     2              OBSERVATION DATA    GPS                 RINEX VERSION / TYPE
teqc 2000Jul20 Karen Wendt 20030425 19:01:14UTC             PGM / RUN BY / DATE
                                                            COMMENT
L2: 1 -> 1; 150 -> 5; 250 -> 9                              COMMENT
L2: 1 -> 1; 150 -> 5; 250 -> 9                              COMMENT
L2: 1 -> 1; 150 -> 5; 250 -> 9                              COMMENT
L2: 1 -> 1; 150 -> 5; 250 -> 9                              COMMENT
L2: 1 -> 1; 150 -> 5; 250 -> 9                              COMMENT
L2: 1 -> 1; 150 -> 5; 250 -> 9                              COMMENT
L2: 1 -> 1; 150 -> 5; 250 -> 9                              COMMENT
L2: 1 -> 1; 150 -> 5; 250 -> 9                              COMMENT
L2: 1 -> 1; 150 -> 5; 250 -> 9                              COMMENT
L2: 1 -> 1; 150 -> 5; 250 -> 9                              COMMENT
L2: 1 -> 1; 150 -> 5; 250 -> 9                              COMMENT
L2: 1 -> 1; 150 -> 5; 250 -> 9                              COMMENT
L2: 1 -> 1; 150 -> 5; 250 -> 9                              COMMENT
L2: 1 -> 1; 150 -> 5; 250 -> 9                              COMMENT
Original Marker Name: chec C_ECC_NCER                       COMMENT
Campaign Name: USGS 2003                                    COMMENT
4-Character Station Name: CHEC                              COMMENT
6-Character Antenna Code: DMRCHT                            COMMENT
Vertical Measurement Point: BCR                             COMMENT
Vertical Offset to Rinex Ref. Point: 0.0348                 COMMENT
Radial Measurement Point: ECF                               COMMENT
Radial Offset to Rinex Ref. Point: 0.1897                   COMMENT
Antenna Height from Field Measurement: 1.3910 m             COMMENT
Additional Antenna Identification Info.:                    COMMENT
Turborogue and Ashtech Choke Ring                           COMMENT
Original XYZ: -2629721.3466 -4449495.5121 3725954.4312      COMMENT
New XYZ position is based on association with SCEC monument COMMENT
E1F1N4E2+0011. Position of that monument is believed to be  COMMENT
valid to within 1 m horizontally; vertical accuracy         COMMENT
should be no worse than 3-times this value.                 COMMENT
                                                            COMMENT
Revised Rinex header created by UCSD GPS archive for        COMMENT
GSAC on 11-Jul-2003 (2003:192) 16:30:51 GMT                 COMMENT
For assistance contact dagnew@ucsd.edu                      COMMENT
or anderson@python.ucsd.edu                                 COMMENT
                                                            COMMENT
C ECC                                                       MARKER NAME
JMS US GEOLOGICAL SURVEY                                    OBSERVER / AGENCY
LP019992803 ASHTECH Z-XII3 CD00                             REC # / TYPE / VERS
CR14333 DORNE-MARGOL. TYPE T                                ANT # / TYPE
 -2629740.3837 -4449467.9117  3725942.0835                  APPROX POSITION XYZ
        1.3432        0.0000        0.0000                  ANTENNA: DELTA H/E/N
     1     1     0                                          WAVELENGTH FACT L1/2
     5    C1    L1    L2    P1    P2                        # / TYPES OF OBSERV
    30                                                      INTERVAL
  2003     4    22    21     3   30.000000                  TIME OF FIRST OBS
  2003     4    22    23    59   30.000000                  TIME OF LAST OBS
                                                            END OF HEADER
 03  4 22 21  3 30.0000000  0  8G 2G15G26G23G 6G18G17G16
                    -41113.93649    -28252.23245                  24979355.544
  21570772.864     -111847.65149    -80424.39847  21570771.925    21570778.397
  21977416.926       87161.79749     55812.25946  21977417.061    21977423.004
  21178213.627      -69829.19049    -50421.37847  21178213.208    21178219.718
  21566261.861      268938.61349    189848.19447  21566261.568    21566267.989
  20888390.432      -82158.76849    -54991.49747  20888389.949
  20888394.961       39528.56049     27322.79543
  23259199.444       71924.18449     52196.36846  23259200.001    23259206.807
 03  4 22 21  3 59.9990000  0  9G 2G15G26G23G 6G18G17G16G29
  24676980.565      -54647.56149    -38797.91745  24676980.012    24676988.145
  21263767.884     -149746.89549   -109956.24547  21263767.490    21263773.895
  21683888.117      120076.96449     81460.44746  21683888.277    21683894.115
  20874037.894      -92864.92749    -68371.25247  20874037.275    20874043.828
  21282887.453      355218.08249    257078.86547  21282887.623    21282894.066
  20583386.172     -109544.98049    -76331.36047  20583386.088    20583391.094
                     54994.76249      2334.46945                  20610377.532
  22964426.078       98297.55649     72746.98946  22964426.108    22964433.272
  23314323.272      143680.43549    104814.70745  23314323.400    23314329.689
 03  4 22 21  4 30.0000000  0  9G 2G15G26G23G 6G18G17G16G29
  24816961.468     -894462.97349   -693199.56545  24816960.915    24816969.557
  21399060.723    -1014198.65549   -783555.01047  21399060.278    21399066.573
  21832750.423     -673065.05049   -536572.29446  21832750.771    21832756.801
  21012208.076     -942194.81449   -730186.71947  21012207.650    21012214.173
  21441857.293     -384811.88649   -319567.96047  21441857.141    21441863.597
  20720731.821     -963208.63749   -741523.80247  20720731.745    20720736.757
  20755826.430     -756055.05549   -629652.42947  20755825.620    20755831.725
  23112019.593     -701515.23349   -550483.84646  23112019.332    23112026.537
  23469309.484     -617284.17549   -488144.73745  23469309.005    23469315.115
 03  4 22 21  5  0.0000000  0  8G15G26G23G 6G18G17G16G29
  21389248.925    -1065760.51549   -823733.02647  21389248.421    21389254.670
  21836602.099     -652825.12849   -520800.89846  21836602.274    21836608.298
  21005322.925     -978377.58749   -758381.02647  21005322.408    21005328.770
  21455767.197     -311714.94449   -262609.36947  21455767.041    21455773.627
  20713025.051    -1003708.58949   -773082.14447  20713024.881    20713029.886
  20756182.942     -754180.90749   -628192.03347  20756182.254    20756188.204
  23114577.160     -688075.47049   -540011.38446  23114576.852    23114584.112
  23479250.927     -565043.54549   -447437.76145  23479249.635    23479256.508
 03  4 22 21  5 30.0000000  0  9G15G26G23G 6G18G17G16G29G 2
  21379467.401    -1117162.91149   -863786.80147  21379466.853    21379473.111
  21840577.864     -631933.34649   -504521.58646  21840577.982    21840583.868
  20998516.959    -1014143.87449   -786250.81147  20998516.310    20998522.609
  21469752.565     -238221.31949   -205341.67847  21469752.450    21469759.086
  20705400.764    -1043775.14249   -804302.79647  20705400.519    20705405.473
  20756576.628     -752111.88849   -626579.81247  20756576.011    20756581.991
  23117233.647     -674114.09949   -529132.44046  23117233.592    23117240.896
  23489281.379     -512328.20049   -406360.91845  23489280.879    23489287.868
                   -861719.38549   -668837.78843
 03  4 22 21  6  0.0000000  0  9G15G26G23G 6G18G17G16G29G 2
  21369716.140    -1168405.63349   -903716.15747  21369715.624    21369721.923
  21844677.407     -610390.71949   -487735.13646  21844677.535    21844683.312
  20991789.909    -1049494.24849   -813796.50747  20991789.357    20991795.673
  21483813.127     -164332.68749   -147766.17847  21483813.046    21483819.655
  20697858.911    -1083408.30649   -835185.73147  20697858.601    20697863.526
  20757007.430     -749848.04149   -624815.77547  20757006.813    20757012.816
  23119989.424     -659632.70549   -517848.27646  23119989.295    23119996.637
  23499402.620     -459140.09449   -364915.65245  23499402.162    23499409.226
                   -887515.29349   -688938.69043
 03  4 22 21  6 30.0000000  0  9G15G26G23G 6G18G17G16G29G 2
  21359995.472    -1219488.39249   -943520.88047  21359994.953    21360001.152
  21848900.688     -588197.53449   -470441.74846  21848900.731    21848906.640
  20985141.964    -1084429.05449   -841018.38547  20985141.439    20985147.797
  21497948.732      -90050.54249    -89884.06647  21497948.590    21497955.153
  20690399.407    -1122608.23849   -865731.08647  20690399.085    20690404.058
  20757475.373     -747388.97049   -622899.62047  20757474.799    20757480.749
  23122843.952     -644632.49949   -506159.86546  23122843.729    23122851.203
  23509613.680     -405480.85549   -323103.28545  23509613.303    23509620.255
  24797162.057     -912881.19449   -708704.23045  24797160.723    24797171.866
 03  4 22 21  7  0.0000000  0  9G15G26G23G 6G18G17G16G29G 2
  21350305.144    -1270411.40349   -983201.10547  21350304.582    21350310.790
  21853247.374     -565355.37449   -452642.63046  21853247.402    21853253.510
  20978572.974    -1118949.23849   -867917.17347  20978572.476    20978578.836
  21512158.718      -15377.13049    -31697.04747  21512158.532    21512165.076
  20683022.279    -1161375.29749   -895939.14047  20683021.942    20683026.973
  20757980.477     -744735.13849   -620831.69447  20757979.869    20757985.831
  23125796.861     -629115.64649   -494068.88846  23125796.723    23125803.951
  23519913.907     -351352.98649   -280925.77845  23519913.522    23519920.351
  24792417.184     -937817.54949   -728135.21145  24792416.957    24792425.794
 03  4 22 21  7 30.0000000  0  9G15G26G23G 6G18G17G16G29G 2
  21340645.262    -1321174.25849  -1022756.53647  21340644.679    21340650.947
  21857717.365     -541864.90949   -434338.39746  21857717.487    21857723.439
  20972082.925    -1153054.99549   -894493.03547  20972082.389    20972088.735
  21526442.728       59685.96849     26793.60747  21526442.604    21526449.293
  20675727.578    -1199709.59049   -925809.97647  20675727.162    20675732.199
  20758522.588     -741886.28049   -618611.80647  20758521.984    20758527.963
  23128848.151     -613083.31249   -481576.21846  23128847.811    23128854.863
  23530303.089     -296758.31149   -238384.47545  23530302.761    23530309.443
  24787754.283     -962324.01449   -747231.15545  24787753.126    24787762.054
 03  4 22 21  8  0.0000000  0  9G15G26G23G 6G18G17G16G29G 2
  21331016.186    -1371775.71249  -1062186.21247  21331015.595    21331021.804
  21862310.913     -517726.03149   -415528.89946  21862311.037    21862316.946
  20965671.762    -1186745.93649   -920745.67447  20965671.208    20965677.546
  21540800.872      135138.04249     85587.35247  21540800.734    21540807.430
  20668515.272    -1237610.64949   -955343.23147  20668514.875    20668519.844
  20759102.152     -738840.94849   -616238.82447  20759101.563    20759107.519
  23131997.193     -596536.08049   -468682.34446  23131996.792    23132003.695
  23540780.862     -241697.76049   -195480.19745  23540780.585    23540787.052
  24783172.692     -986399.91549   -765991.61345  24783171.858    24783180.641
 03  4 22 21  8 30.0000000  0  9G15G26G23G 6G18G17G16G29G 2
  21321418.260    -1422213.89749  -1101488.65147  21321417.570    21321423.759
  21867027.923     -492938.04749   -396213.58346  21867028.032    21867033.935
  20959339.652    -1220020.91249   -946674.17947  20959339.161    20959345.539
  21555232.889      210978.89749    144684.05447  21555232.783    21555239.580
  20661385.697    -1275076.88549   -984537.64747  20661385.291    20661390.236
  20759719.320     -735598.04749   -613711.87947  20759718.716    20759724.572
  23135243.915     -579474.22149   -455387.45646  23135243.544    23135250.624
  23551347.207     -186171.61349   -152213.08945  23551347.081    23551353.409
  24778673.221    -1010043.54449   -784415.23545  24778672.482    24778681.531
 03  4 22 21  9  0.0000000  0  9G15G26G23G 6G18G17G16G29G 2
  21311851.438    -1472487.67149  -1140662.97947  21311850.743    21311856.979
  21871868.557     -467500.94749   -376392.47646  21871868.651    21871874.502
  20953086.806    -1252879.54349   -972278.24747  20953086.330    20953092.727
  21569738.735      287207.69349    204083.04047  21569738.631    21569745.572
  20654338.948    -1312107.56549  -1013392.68347  20654338.589    20654343.491
  20760374.293     -732155.87449   -611029.67347  20760373.722    20760379.640
  23138588.579     -561898.31649   -441692.03846  23138588.138    23138595.261
  23562002.033     -130180.91349   -108583.99745  23562001.905    23562008.120
  24774256.477    -1033253.97249   -802501.29745  24774255.839    24774264.971
 03  4 22 21  9 30.0000000  0  9G15G26G23G 6G18G17G16G29G 2
  21302315.598    -1522598.58049  -1179710.42047  21302314.944    21302321.211
  21876831.909     -441417.41449   -356067.64646  21876832.104    21876838.063
  20946912.834    -1285323.94549   -997559.54147  20946912.374    20946918.733
  21584317.708      363821.08449    263781.71347  21584317.688    21584324.768
  20647374.804    -1348704.34449  -1041909.60647  20647374.460    20647379.335
  20761066.883     -728516.37649   -608193.69747  20761066.323    20761072.181
  23142030.393     -543811.45549   -427598.43646  23142030.065    23142037.166
  23572744.536      -73729.16549    -64595.63845  23572744.408    23572750.727
  24769922.158    -1056032.79449   -820251.05945  24769921.340    24769930.414
 03  4 22 21 10  0.0000000  0  9G15G26G23G 6G18G17G16G29G 2
  21292811.733    -1572540.79749  -1218626.40147  21292811.194    21292817.515
  21881919.328     -414682.99349   -335235.63646  21881919.532    21881925.398
  20940818.640    -1317349.36349  -1022514.36147  20940818.193    20940824.417
  21598970.696      440822.62349    323782.83047  21598970.703    21598977.731
  20640494.108    -1384862.29549  -1070084.58947  20640493.784    20640498.667
  20761798.173     -724673.62049   -605199.34347  20761797.617    20761803.403
  23145570.282     -525209.89149   -413103.76846  23145569.955    23145577.068
  23583575.386      -16813.21749    -20245.59745  23583575.311    23583581.414
  24765670.593    -1078374.76749   -837660.40245  24765669.884    24765678.900
 03  4 22 21 10 30.0000000  0  8G15G26G23G 6G18G17G16G29
  21283340.351    -1622313.47949  -1257410.26847  21283339.770    21283346.072
  21887130.651     -387297.85449   -313896.58146  21887130.834    21887136.618
  20934804.162    -1348955.49149  -1047142.46447  20934803.757    20934809.936
  21613697.544      518211.21249    384085.55347  21613697.399    21613704.342
  20633697.067    -1420581.00749  -1097917.30647  20633696.739    20633701.583
  20762568.326     -720626.51349   -602045.76147  20762567.783    20762573.687
  23149207.830     -506094.46449   -398208.69346  23149207.548    23149214.715
  23594494.307       40565.99749     24465.43245  23594494.331    23594500.416
 03  4 22 21 12  0.0000000  0  9G21G15G26G23G 6G18G17G16G29
  20571794.793     -996390.00449   -778231.76647  20571794.963    20571798.945
  21255137.129    -1770522.88949  -1372898.02447  21255136.525    21255142.780
  21903522.044     -301160.94449   -246776.93446  21903522.198    21903528.068
  20917255.359    -1441175.44349  -1119002.00847  20917254.936    20917261.053
  21658332.925      752770.67949    566858.89647  21658332.758    21658339.682
  20613823.940    -1525015.56749  -1179294.75847  20613823.567    20613828.357
  20765128.790     -707171.45149   -591561.28747  20765128.261    20765134.135
  23160720.569     -445594.09349   -351065.78346  23160720.437    23160727.638
  23627792.719      215550.17149    160816.67945  23627792.730    23627798.977
 03  4 22 21 13  0.0000000  0  9G21G15G26G23G 6G18G17G16G29
  20571282.990     -999081.18749   -780328.77647  20571282.907    20571286.802
  21236480.824    -1868562.66249  -1449292.57047  21236480.171    21236486.462
  21915048.333     -240589.71949   -199578.58546  21915048.537    21915054.443
  20905936.524    -1500656.53449  -1165350.80247  20905936.062    20905942.174
  21688435.458      910960.02349    690123.15247  21688435.288    21688442.171
  20600975.680    -1592533.53249  -1231906.05747  20600975.312    20600980.156
  20767014.032     -697264.52749   -583841.59847  20767013.516    20767019.352
  23168862.378     -402808.87449   -317726.78146  23168862.250    23168869.426
  23650408.657      334398.19149    253425.45545  23650408.742    23650414.986
 03  4 22 21 13 30.0000000  0  9G21G15G26G23G 6G18G17G16G29
  20571080.042    -1000149.27149   -781161.03747  20571079.738    20571083.536
  21227187.707    -1917398.32649  -1487346.29847  21227187.064    21227193.387
  21920981.647     -209410.37149   -175283.01346  21920981.830    21920987.664
  20900381.916    -1529845.98449  -1188095.77547  20900381.517    20900387.571
  21703580.604      990547.17449    752139.02947  21703580.383    21703587.297
  20594662.546    -1625708.81449  -1257756.87747  20594662.212    20594667.088
  20768001.338     -692076.21849   -579798.75547  20768000.832    20768006.688
  23173063.434     -380732.90949   -300524.82446  23173063.351    23173070.491
  23661831.930      394426.75049    300200.94845  23661831.905    23661838.172
 03  4 22 21 14  0.0000000  0  9G21G15G26G23G 6G18G17G16G29
  20570925.930    -1000959.58449   -781792.43747  20570925.565    20570929.372
  21217931.737    -1966038.33449  -1525247.57547  21217931.182    21217937.477
  21927041.621     -177564.39549   -150467.94846  21927041.855    21927047.779
  20894910.924    -1558596.49049  -1210498.71147  20894910.494    20894916.515
  21718801.411     1070532.60749    814465.24247  21718801.236    21718808.166
  20588437.189    -1658422.98549  -1283248.39447  20588436.852    20588441.723
  20769032.444     -686658.42449   -575577.08847  20769031.908    20769037.698
  23177364.687     -358131.36949   -282913.30146  23177364.514    23177371.556
  23673345.089      454928.08049    347344.83545  23673345.024    23673351.320
 03  4 22 21 14 30.0000000  0  9G21G15G26G23G 6G18G17G16G29
  20570818.649    -1001523.39849   -782231.77247  20570818.299    20570822.142
  21208711.053    -2014493.89349  -1563005.11147  21208710.385    21208716.699
  21933226.150     -145064.49549   -125143.35346  21933226.343    21933232.438
  20889521.200    -1586920.23449  -1232569.10647  20889520.676    20889526.673
  21734095.508     1150902.87549    877091.33047  21734095.388    21734102.273
  20582297.456    -1690687.77249  -1308389.74147  20582297.112    20582301.949
  20770104.999     -681022.65449   -571185.57247  20770104.446    20770110.204
  23181763.377     -335017.60849   -264902.64545  23181763.130    23181770.013
  23684945.338      515888.42549    394846.37845  23684945.353    23684951.965
 03  4 22 21 15  0.0000000  0  9G21G15G26G23G 6G18G17G16G29
  20570757.246    -1001846.22149   -782483.31547  20570756.851    20570760.696
  21199524.290    -2062770.33149  -1600623.07147  21199523.635    21199530.035
  21939533.982     -111917.74349    -99314.70846  21939534.077    21939540.146
  20884211.266    -1614823.60949  -1254311.94347  20884210.792    20884216.837
  21749461.412     1231650.29949    940011.31847  21749461.271    21749468.103
  20576242.001    -1722509.47049  -1333185.82647  20576241.654    20576246.475
  20771218.034     -675174.36249   -566628.45547  20771217.445    20771223.129
  23186257.833     -311399.20249   -246498.76545  23186257.528    23186264.512
  23696631.559      577299.94949    442699.50245  23696631.533    23696638.026
 03  4 22 21 15 30.0000000  0 10G21G15G26G23G 6G18G17G16G29G 2
  20570740.650    -1001933.58049   -782551.37847  20570740.263    20570744.032
  21190370.699    -2110872.88249  -1638105.54047  21190370.032    21190376.416
  21945963.367      -78131.19849    -72987.51246  21945963.495    21945969.592
  20878980.074    -1642313.03949  -1275732.22347  20878979.614    20878985.792
  21764897.637     1312767.47749   1003219.41947  21764897.534    21764904.262
  20570269.703    -1753894.07249  -1357641.31747  20570269.369    20570274.194
  20772370.331     -669119.20549   -561910.14647  20772369.768    20772375.464
  23190846.773     -287283.70949   -227707.53945  23190846.501    23190853.680
  23708402.367      639154.89649    490898.11745  23708402.274    23708408.644
                  -1151879.85949   -896893.37043
 03  4 22 21 16  0.0000000  0 10G21G15G26G23G 6G18G17G16G29G 2
  20570768.932    -1001785.12049   -782435.69547  20570768.533    20570772.317
  21181250.216    -2158801.19649  -1675452.24147  21181249.606    21181255.987
  21952514.513      -43705.84249    -46162.56146  21952514.580    21952520.633
  20873827.622    -1669389.03949  -1296830.35747  20873827.200    20873833.372
  21780403.894     1394252.66049   1066714.27147  21780403.770    21780410.502
  20564380.480    -1784841.81849  -1381756.39547  20564380.166    20564384.976
  20773562.140     -662856.31049   -557029.96447  20773561.592    20773567.249
  23195529.931     -262672.76949   -208530.26345  23195529.878    23195537.184
  23720256.988      701451.43149    539440.85045  23720256.928    23720263.272
                  -1169022.48949   -910251.22644                  24721100.044
 03  4 22 21 16 30.0000000  0 10G21G15G26G23G 6G18G17G16G29G 2
  20570842.056    -1001400.99749   -782136.38147  20570841.613    20570845.392
  21172162.939    -2206555.70049  -1712663.50447  21172162.257    21172168.556
  21959186.611       -8643.81749    -18841.51646  21959186.701    21959192.776
  20868753.641    -1696053.03349  -1317607.45047  20868753.233    20868759.336
  21795979.716     1476103.16549   1130493.77647  21795979.577    21795986.285
  20558574.229    -1815353.84049  -1405531.95547  20558573.896    20558578.672
  20774793.423     -656386.31949   -551988.40047  20774792.850    20774798.454
  23200307.321     -237568.83149   -188968.84945  23200307.192    23200314.508
  23732195.049      764186.43149    588325.26845  23732194.993    23732201.361
  24717911.956    -1185729.25449   -923269.60945  24717909.837    24717916.496
 03  4 22 21 17  0.0000000  0 10G21G15G26G23G 6G18G17G16G29G 2
  20570959.708    -1000783.21149   -781654.98247  20570959.191    20570962.993
  21163108.293    -2254137.81549  -1749740.44647  21163107.626    21163113.902
  21965979.231       27051.73249      8973.19846  21965979.359    21965985.504
  20863757.655    -1722307.40549  -1338065.36347  20863757.191    20863763.222
  21811624.307     1558315.25049   1194555.03247  21811624.196    21811630.828
  20552850.464    -1845432.39849  -1428969.75347  20552850.118    20552854.832
  20776063.697     -649711.03249   -546786.89247  20776063.101    20776068.705
  23205177.574     -211975.63249   -169026.18545  23205177.510    23205184.814
  23744215.892      827356.11449    637548.38745  23744215.881    23744222.023
  24714812.006    -1202002.41049   -935950.00145  24714813.131    24714821.838
 03  4 22 21 17 30.0000000  0 10G21G15G26G23G 6G18G17G16G29G 2
  20571121.746     -999931.86549   -780991.59247  20571121.219    20571125.029
  21154086.397    -2301547.58349  -1786683.08847  21154085.831    21154092.061
  21972892.101       63378.92449     37280.09646  21972892.283    21972898.450
  20858839.218    -1748153.45049  -1358205.09147  20858838.796    20858844.815
  21827337.332     1640886.70249   1258896.31747  21827337.169    21827343.820
  20547208.987    -1875078.15049  -1452070.30147  20547208.673    20547213.393
  20777372.932     -642830.65649   -541425.55447  20777372.404    20777377.993
  23210140.533     -185895.65249   -148704.21145  23210140.354    23210147.823
  23756318.972      890957.84849    687108.18845  23756318.952    23756325.067
  24711798.095    -1217842.74849   -948293.15245  24711797.658    24711807.640
 03  4 22 21 18  0.0000000  0 10G21G15G26G23G 6G18G17G16G29G 2
  20571328.162     -998847.01449   -780146.25347  20571327.656    20571331.442
  21145097.497    -2348785.11549  -1823491.52347  21145096.864    21145103.070
  21979925.026      100335.78449     66077.66346  21979925.035    21979931.132
  20853998.329    -1773592.32349  -1378027.54747  20853997.918    20854003.909
  21843118.164     1723814.93749   1323515.62647  21843118.044    21843124.683
  20541649.704    -1904292.27949  -1474834.52347  20541649.402    20541654.074
  20778721.302     -635745.13049   -535904.36347  20778720.751    20778726.336
  23215195.674     -159331.13849   -128004.66645  23215195.444    23215202.954
  23768503.781      954988.80649    737002.43945  23768503.837    23768509.987
  24708866.316    -1233251.10949   -960299.70445  24708866.067    24708875.373
 03  4 22 21 18 30.0000000  0 10G21G15G26G23G 6G18G17G16G29G 2
  20571579.433     -997526.53349   -779117.29847  20571578.932    20571582.711
  21136141.719    -2395848.22849  -1860164.04947  21136141.044    21136147.227
  21987077.437      137922.89249     95366.32846  21987077.553    21987083.632
  20849235.145    -1798622.91449  -1397531.85847  20849234.715    20849240.689
  21858966.813     1807100.01849   1388412.97847  21858966.722    21858973.514
  20536172.925    -1933073.36249  -1497261.31448  20536172.623    20536177.186
  20780109.003     -628452.22049   -530221.58047  20780108.520    20780114.136
  23220342.997     -132282.39349   -106927.81645  23220342.741    23220350.164
  23780770.130     1019448.91449    787231.07745  23780770.145    23780776.162
  24706017.100    -1248225.52649   -971968.09945  24706016.830    24706025.812
 03  4 22 21 19  0.0000000  0 10G21G15G26G23G 6G18G17G16G29G 2
  20571875.736     -995969.26949   -777903.84247  20571875.257    20571879.096
  21127219.338    -2442735.48349  -1896699.54147  21127218.711    21127224.883
  21994349.775      176139.52449    125145.53646  21994349.909    21994355.855
  20844549.687    -1823244.95349  -1416717.82447  20844549.269    20844555.248
  21874883.122     1890740.83349   1453587.53747  21874883.073    21874890.021
  20530778.649    -1961420.93249  -1519350.29348  20530778.308    20530782.765
  20781536.517     -620951.05249   -524376.51347  20781536.032    20781541.593
  23225582.518     -104750.26349    -85474.28245  23225582.143    23225589.350
  23793118.068     1084336.80249    837793.02245  23793118.086    23793123.976
  24703250.077    -1262765.87549   -983298.25545  24703249.775    24703258.656
 03  4 22 21 19 30.0000000  0 10G21G15G26G23G 6G18G17G16G29G 2
  20572217.163     -994174.98049   -776505.69547  20572216.741    20572220.568
  21118330.619    -2489446.58849  -1933097.76947  21118329.905    21118336.069
  22001741.599      214984.33549    155414.23646  22001741.771    22001747.773
  20839941.804    -1847459.25549  -1435586.08147  20839941.459    20839947.375
  21890866.875     1974735.41249   1519037.74546  21890866.778    21890873.812
  20525466.730    -1989335.12549  -1541101.57747  20525466.385    20525470.851
  20783003.773     -613240.92249   -518368.62347  20783003.216    20783008.865
  23230913.687      -76736.74749    -63645.66045  23230913.183    23230920.287
  23805546.701     1149650.14649    888686.53645  23805546.713    23805552.632
  24700565.851    -1276872.41849   -994290.41445  24700565.444    24700574.135
 03  4 22 21 20  0.0000000  0 10G21G15G26G23G 6G18G17G16G29G 2
  20572603.453     -992145.16349   -774924.01147  20572603.023    20572606.826
  21109474.949    -2535982.81449  -1969359.73647  21109474.295    21109480.461
  22009252.460      254453.96549    186169.80546  22009252.641    22009258.553
  20835411.137    -1871268.28649  -1454138.53247  20835410.755    20835416.641
  21906917.208     2059080.01749   1584760.71046  21906917.117    21906924.194
  20520236.815    -2016818.41349  -1562517.08648  20520236.456    20520240.950
  20784510.309     -605323.70649   -512199.36647  20784509.783    20784515.486
  23236335.502      -48245.72849    -41444.94645  23236334.920    23236342.133
  23818055.526     1215385.11349    939908.61445  23818055.594    23818061.679
  24697964.031    -1290547.20549  -1004946.11545  24697963.436    24697971.903
 03  4 22 21 20 30.0000000  0 10G21G15G26G23G 6G18G17G16G29G 2
  20573035.053     -989877.10149   -773156.68847  20573034.634    20573038.429
  21100653.089    -2582341.50549  -2005483.36847  21100652.472    21100658.534
  22016882.334      294549.12949    217412.80546  22016882.509    22016888.271
  20830957.802    -1894670.70549  -1472374.14347  20830957.438    20830963.301
  21923034.201     2143774.91649   1650756.62446  21923034.109    21923041.239
  20515089.275    -2043869.07049  -1583595.48948  20515088.949    20515093.359
  20786056.823     -597196.82949   -505866.73947  20786056.293    20786061.945
  23241848.089      -19277.04249    -18872.03045  23241847.593    23241854.788
  23830644.945     1281541.79249    991459.23645  23830644.958    23830651.115
  24695444.345    -1303788.46049  -1015264.00245  24695443.740    24695452.280
 03  4 22 21 21  0.0000000  0 10G21G15G26G23G 6G18G17G16G29G 2
  20573511.798     -987372.04349   -771204.68747  20573511.344    20573515.128
  21091864.880    -2628523.63749  -2041469.41847  21091864.316    21091870.275
  22024630.710      335266.86549    249140.93446  22024630.955    22024636.432
  20826581.443    -1917668.73049  -1490294.63347  20826581.058    20826586.968
  21939217.327     2228816.61449   1717022.77346  21939217.156    21939224.224
  20510023.727    -2070489.04349  -1604338.28747  20510023.376    20510027.683
  20787642.990     -588861.44249   -499371.63047  20787642.484    20787648.163
  23247450.969       10165.97549      4070.48045  23247450.455    23247457.785
  23843313.888     1348116.26949   1043335.46645  23843313.768    23843320.082
  24693006.965    -1316598.04049  -1025245.54545  24693006.328    24693014.879
 03  4 22 21 21 30.0000000  0 10G21G15G26G23G 6G18G17G16G29G 2
  20574033.865     -984628.74249   -769067.04547  20574033.403    20574037.229
  21083110.597    -2674527.76849  -2077316.75947  21083110.027    21083116.026
  22032497.600      376606.34049    281353.54046  22032497.779    22032502.979
  20822281.975    -1940262.26349  -1507899.93447  20822281.614    20822287.633
  21955465.978     2314204.18149   1783558.42746  21955465.867    21955473.053
  20505040.059    -2096677.91049  -1624745.15647  20505039.746    20505044.086
  20789269.090     -580316.01749   -492712.85547  20789268.579    20789274.277
  23253143.532       40082.26249     27381.79245  23253143.334    23253150.806
  23856061.783     1415107.46049   1095536.35645  23856061.752    23856068.017
  24690651.575    -1328975.32849  -1034890.23145  24690650.888    24690659.806
 03  4 22 21 22  0.0000000  0 10G21G15G26G23G 6G18G17G16G29G 2
  20574601.597     -981645.88749   -766742.74147  20574601.110    20574604.885
  21074390.473    -2720352.61749  -2113024.40347  21074389.854    21074395.892
  22040482.580      418567.18149    314050.30446  22040482.711    22040487.544
  20818059.606    -1962451.22649  -1525189.99848  20818059.207    20818065.236
  21971780.329     2399936.35249   1850362.60846  21971780.203    21971787.474
  20500138.596    -2122435.30349  -1644815.81448  20500138.279    20500142.663
  20790935.385     -571559.45949   -485889.56047  20790934.885    20790940.634
  23258926.432       70470.70549     51061.00545  23258926.180    23258933.461
  23868888.803     1482513.90349   1148060.85845  23868888.643    23868895.154
  24688378.272    -1340919.92449  -1044197.74745  24688377.991    24688386.934
 03  4 22 21 22 30.0000000  0 10G21G15G26G23G 6G18G17G16G29G 2
  20575214.544     -978424.63249   -764232.66247  20575214.066    20575217.860
  21065704.197    -2765999.17249  -2148593.11847  21065703.607    21065709.662
  22048585.041      461146.18249    347228.74946  22048585.252    22048590.064
  20813913.892    -1984237.78349  -1542166.49347  20813913.418    20813919.356
  21988159.712     2486009.84649   1917432.75146  21988159.554    21988166.931
  20495318.977    -2147763.08449  -1664551.70748  20495318.626    20495322.990
  20792641.644     -562593.01949   -478902.72347  20792641.174    20792646.937
  23264798.539      101327.71949     75105.34445  23264798.235    23264805.417
  23881794.277     1550332.09549   1200906.16145  23881794.108    23881800.609
  24686187.387    -1352433.59749  -1053169.46345  24686186.989    24686196.051
 03  4 22 21 23  0.0000000  0 10G21G15G26G23G 6G18G17G16G29G 2
  20575873.217     -974963.80849   -761535.91147  20575872.730    20575876.536
  21057052.166    -2811466.00649  -2184021.78547  21057051.556    21057057.561
  22056805.270      504342.81549    380888.48646  22056805.381    22056810.237
  20809844.685    -2005621.72849  -1558829.26347  20809844.135    20809850.006
  22004603.823     2572423.69649   1984768.10746  22004603.610    22004611.043
  20490581.156    -2172660.83749  -1683952.51548  20490580.766    20490585.115
  20794388.184     -553415.40549   -471751.33547  20794387.665    20794393.437
  23270759.298      132652.15849     99513.92645  23270759.118    23270766.332
  23894777.695     1618560.62349   1254071.27145  23894777.590    23894784.144
  24684078.366    -1363515.72649  -1061804.93445  24684078.009    24684087.189
 03  4 22 21 23 30.0000000  0 10G21G15G26G23G 6G18G17G16G29G 2
  20576577.626     -971262.45949   -758651.73247  20576577.102    20576580.964
  21048434.551    -2856752.01549  -2219309.55747  21048433.932    21048439.871
  22065142.492      548155.78249    415028.47446  22065142.610    22065147.654
  20805851.905    -2026603.26649  -1575178.47147  20805851.429    20805857.276
  22021112.325     2659176.36149   2052367.48646  22021112.201    22021119.685
  20485925.145    -2197128.33649  -1703018.06348  20485924.749    20485929.063
  20796175.161     -544025.29749   -464434.36347  20796174.618    20796180.393
  23276808.756      164442.63749    124285.63445  23276808.611    23276815.883
  23907838.862     1687198.09049   1307554.99045  23907838.788    23907845.434
  24682051.375    -1374166.41449  -1070104.25845  24682051.331    24682060.565
 03  4 22 21 24  0.0000000  0 11G21G15G26G23G 6G18G17G16G 3G29G 2
  20577327.748     -967320.65349   -755580.19447  20577327.243    20577331.012
  21039851.407    -2901857.26549  -2254456.47147  21039850.694    21039856.597
  22073596.615      592582.72949    449646.88446  22073596.728    22073601.918
  20801935.504    -2047184.03049  -1591215.38848  20801935.070    20801940.891
  22037684.849     2746265.10449   2120228.72346  22037684.728    22037692.201
  20481350.618    -2221167.03149  -1721749.47447  20481350.266    20481354.590
  20798002.470     -534422.76049   -456951.86747  20798001.913    20798007.698
  23282946.595      196696.36949    149418.32245  23282946.352    23282953.710
  24219188.705    -1656702.92249  -1275459.13145  24219187.605    24219195.678
  23920977.075     1756241.20049   1361354.80745  23920977.212    23920983.858
  24680106.621    -1384386.71849  -1078068.18245  24680106.607    24680115.702
 03  4 22 21 24 30.0000000  0 11G21G15G26G23G 6G18G17G16G 3G29G 2
  20578123.658     -963138.13949   -752321.08647  20578123.162    20578126.871
  21031302.647    -2946781.09049  -2289462.02147  21031301.983    21031307.911
  22082167.253      637622.12349    484742.53046  22082167.274    22082172.690
  20798095.238    -2067364.73649  -1606940.57448  20798094.779    20798100.588
  22054320.999     2833687.94049   2188350.28846  22054320.831    22054328.264
  20476857.676    -2244777.40249  -1740147.13047  20476857.307    20476861.652
  20799870.338     -524607.37449   -449303.51547  20799869.790    20799875.484
  23289172.169      229411.10449    174910.23945  23289171.922    23289179.241
  24200576.909    -1754510.22149  -1351672.53145  24200576.060    24200583.517
  23934192.017     1825687.90349   1415469.10245  23934192.164    23934199.169
  24678243.929    -1394177.17849  -1085697.14245  24678243.667    24678252.724
 03  4 22 21 25  0.0000000  0 11G21G15G26G23G 6G18G17G16G 3G29G 2
  20578965.360     -958715.09449   -748874.54747  20578964.849    20578968.577
  21022788.426    -2991523.65949  -2324326.32247  21022787.747    21022793.695
  22090853.588      683271.46549    520313.42646  22090853.691    22090859.722
  20794330.819    -2087146.71049  -1622355.05347  20794330.325    20794336.159
  22071020.247     2921442.43049   2256730.30046  22071020.111    22071027.509
  20472446.025    -2267960.56449  -1758211.89947  20472445.691    20472450.013
  20801778.481     -514580.37549   -441490.26647  20801777.869    20801783.558
  23295485.001      262584.43349    200759.48445  23295484.761    23295492.066
  24181997.729    -1852141.99049  -1427749.14945  24181997.272    24182004.816
  23947483.755     1895535.18349   1469895.54445  23947483.812    23947490.551
  24676462.705    -1403538.76349  -1092991.93745  24676462.261    24676471.316
 03  4 22 21 25 30.0000000  0 11G21G15G26G23G 6G18G17G16G 3G29G 2
  20579852.890     -954050.39849   -745239.70947  20579852.435    20579856.171
  21014308.930    -3036083.72549  -2359048.41447  21014308.257    21014314.197
  22099656.034      729529.95349    556358.98546  22099656.227    22099662.624
  20790642.173    -2106530.20949  -1637459.03747  20790641.688    20790647.577
  22087782.378     3009527.24549   2325367.68846  22087782.236    22087789.618
  20468115.786    -2290716.15449  -1775943.49348  20468115.428    20468119.743
  20803727.032     -504339.67049   -433510.50147  20803726.490    20803732.267
  23301884.802      296214.82449    226964.88245  23301884.621    23301891.785
  24163452.708    -1949595.14349  -1503686.61045  24163452.410    24163460.052
  23960851.610     1965781.65349   1524633.02045  23960851.407    23960858.091
  24674763.090    -1412471.30949  -1099952.42445  24674762.656    24674771.684
 03  4 22 21 26  0.0000000  0 11G21G15G26G23G 6G18G17G16G 3G29G 2
  20580786.669     -949143.24149   -741415.93747  20580786.188    20580789.955
  21005864.416    -3080460.14949  -2393627.42447  21005863.733    21005869.581
  22108574.369      776396.30849    592878.22846  22108574.562    22108581.217
  20787029.308    -2125515.58349  -1652252.80048  20787028.909    20787034.787
  22104607.013     3097940.86249   2394261.30146  22104606.859    22104614.267
  20463866.829    -2313044.50049  -1793342.17148  20463866.480    20463870.775
  20805716.560     -493884.58649   -425363.67547  20805716.042    20805721.775
  23308371.229      330300.63449    253525.14645  23308371.020    23308378.286
  24144942.204    -2046866.83149  -1579482.66345  24144942.135    24144949.783
  23974294.835     2036425.50149   1579680.12345  23974294.682    23974301.202
  24673145.016    -1420974.86049  -1106578.63245  24673144.707    24673153.596
 03  4 22 21 26 30.0000000  0 11G21G15G26G23G 6G18G17G16G 3G29G 2
  20581766.735     -943992.81849   -737402.61047  20581766.300    20581770.067
  20997454.992    -3124652.05949  -2428062.65147  20997454.305    20997460.062
  22117608.426      823869.00249    629869.91846  22117608.577    22117614.933
  20783492.171    -2144103.28749  -1666736.68648  20783491.768    20783497.601
  22121493.928     3186681.63849   2463409.83746  22121493.758    22121501.185
  20459699.143    -2334945.73149  -1810408.03248  20459698.795    20459703.111
  20807746.997     -483214.60449   -417049.39447  20807746.477    20807752.212
  23314943.670      364839.80149    280438.68145  23314943.551    23314951.006
  24126467.009    -2143954.32149  -1655135.16245  24126466.815    24126474.627
  23987812.992     2107464.90249   1635035.45045  23987813.073    23987819.551
  24671608.386    -1429049.65449  -1112870.71245  24671608.002    24671616.994
 03  4 22 21 27  0.0000000  0 11G21G15G26G23G 6G18G17G16G 3G29G 2
  20582793.278     -938598.45049   -733199.19847  20582792.809    20582796.629
  20989080.734    -3168658.60849  -2462353.43847  20989080.072    20989085.904
  22126757.711      871946.61249    667332.99146  22126757.714    22126763.711
  20780030.538    -2162293.96849  -1680911.21047  20780030.165    20780035.953
  22138442.768     3275747.74449   2532811.87146  22138442.575    22138450.046
  20455612.671    -2356420.26849  -1827141.40548  20455612.294    20455616.615
  20809818.425     -472329.08849   -408567.18247  20809817.963    20809823.672
  23321602.318      399830.57649    307704.10745  23321602.111    23321609.632
  24108027.208    -2240855.39449  -1730642.41745  24108027.021    24108034.924
  24001406.115     2178897.65949   1690697.31045  24001406.212    24001412.724
  24670153.143    -1436695.86149  -1118828.83945  24670152.819    24670161.914
 03  4 22 21 27 30.0000000  0 11G21G15G26G23G 6G18G17G16G 3G29G 2
  20583866.150     -932960.25649   -728805.79747  20583865.706    20583869.457
  20980741.757    -3212479.54849  -2496499.58847  20980741.105    20980747.012
  22136021.343      920626.89749    705265.69946  22136021.421    22136027.292
  20776644.246    -2180088.88249  -1694777.34247  20776643.879    20776649.620
  22155453.004     3365136.83249   2602465.58046  22155452.859    22155460.413
  20451607.189    -2377468.83349  -1843542.85047  20451606.797    20451611.165
  20811931.050     -461227.81449   -399916.83847  20811930.530    20811936.205
  23328346.526      435270.47249    335319.50545  23328346.262    23328353.598
  24089623.372    -2337568.12949  -1806002.90045  24089623.011    24089630.968
  24015073.820     2250721.14449   1746663.61945  24015073.920    24015080.307
  24668779.769    -1443914.48049  -1124453.80145  24668779.259    24668788.157
 03  4 22 21 28  0.0000000  0 11G21G15G26G23G 6G18G17G16G 3G29G 2
  20584985.596     -927077.58849   -724221.89847  20584985.141    20584988.948
  20972438.410    -3256114.20049  -2530500.58947  20972437.793    20972443.653
  22145399.338      969908.13549    743666.65146  22145399.419    22145405.240
  20773333.197    -2197488.78949  -1708335.67448  20773332.791    20773338.487
  22172524.285     3454846.82349   2672369.34546  22172524.161    22172531.818
  20447682.609    -2398092.12949  -1859612.91948  20447682.304    20447686.654
  20814084.776     -449910.16249   -391097.88347  20814084.219    20814089.900
  23335175.638      471157.24249    363283.13045  23335175.385    23335182.801
  24071255.792    -2434090.16649  -1881214.81445  24071255.347    24071263.254
  24028815.306     2322933.19349   1802932.75945  24028815.416    24028821.766
  24667487.494    -1450706.04949  -1129745.97645  24667486.904    24667495.755
 03  4 22 21 28 30.0000000  0 11G21G15G26G23G 6G18G17G16G 3G29G 2
  20586151.858     -920948.99349   -719446.36347  20586151.344    20586155.260
  20964170.723    -3299561.20449  -2564355.36347  20964170.047    20964176.024
  22154891.295     1019789.29649    782535.08046  22154891.379    22154897.153
  20770097.230    -2214493.73649  -1721586.24248  20770096.841    20770102.563
  22189656.254     3544876.59049   2742522.27346  22189656.290    22189664.041
  20443839.112    -2418289.85949  -1875351.37848  20443838.795    20443843.152
  20816279.910     -438374.63149   -382109.16347  20816279.400    20816285.079
  23342089.540      507489.79649    391594.09745  23342089.268    23342096.796
  24052924.909    -2530418.00849  -1956275.38845  24052924.597    24052932.529
  24042630.584     2395532.47749   1859503.59645  24042630.733    24042636.979
  24666276.568    -1457070.17449  -1134705.11045  24666275.942    24666284.782
 03  4 22 21 29  0.0000000  0 11G21G15G26G23G 6G18G17G16G 3G29G 2
  20587364.823     -914574.75949   -714479.42347  20587364.354    20587368.198
  20955938.646    -3342820.25649  -2598063.69247  20955938.076    20955944.085
  22164496.880     1070268.07349    821869.19246  22164497.028    22164502.888
  20766936.189    -2231104.96649  -1734530.02148  20766935.770    20766941.577
  22206848.811     3635223.59249   2812922.42546  22206848.888    22206856.578
  20440076.340    -2438063.10349  -1890759.07448  20440076.070    20440080.394
  20818516.449     -426621.12949   -372950.58847  20818515.941    20818521.733
  23349087.734      544265.33349    420250.24645  23349087.483    23349095.075
  24034631.490    -2626549.70249  -2031183.13445  24034631.401    24034639.088
  24056519.069     2468516.20749   1916374.01045  24056519.128    24056525.494
  24665146.508    -1463008.04949  -1139332.10245  24665146.154    24665155.075
 03  4 22 21 29 30.0000000  0 11G21G15G26G23G 6G18G17G16G 3G29G 2
  20588624.751     -907953.74749   -709320.18347  20588624.302    20588628.135
  20947742.671    -3385890.61949  -2631624.98647  20947742.040    20947748.039
  22174215.763     1121342.77949    861667.68646  22174216.020    22174221.789
  20763849.982    -2247322.98849  -1747167.40748  20763849.566    20763855.399
  22224101.634     3725886.08749   2883568.39146  22224101.564    22224109.164
  20436394.344    -2457412.19149  -1905836.26048  20436394.069    20436398.386
  20820794.482     -414649.23249   -363621.83747  20820794.025    20820799.912
  23356170.031      581481.84149    449250.01845  23356169.720    23356177.245
  24016375.950    -2722482.58349  -2105935.94445  24016375.879    24016383.507
  24070480.093     2541882.31749   1973542.36845  24070480.143    24070486.789
  24664097.360    -1468519.97549  -1143627.15845  24664097.181    24664106.114
 03  4 22 21 30  0.0000000  0 11G21G15G26G23G 6G18G17G16G 3G29G 2
  20589931.540     -901086.22949   -703968.86447  20589931.107    20589934.949
  20939582.558    -3428771.95949  -2665038.97947  20939581.939    20939587.946
  22184047.876     1173011.37049    901928.89646  22184048.194    22184053.758
  20760838.353    -2263149.18549  -1759499.47348  20760837.951    20760843.798
  22241413.713     3816861.62149   2954458.29146  22241413.749    22241421.368
  20432792.896    -2476338.13449  -1920583.72148  20432792.582    20432796.878
  20823114.210     -402458.68049   -354122.70147  20823113.788    20823119.589
  23363335.703      619136.63449    478591.28945  23363335.329    23363342.796
  23998158.635    -2818214.63149  -2180532.25945  23998158.631    23998166.062
  24084513.262     2615627.96049   2031006.49245  24084513.388    24084519.936
  24663129.379    -1473606.77849  -1147590.95345  24663129.090    24663138.384
 03  4 22 21 30 30.0000000  0 11G21G15G26G23G 6G18G17G16G 3G29G 2
  20591285.296     -893972.11249   -698425.38747  20591284.890    20591288.708
  20931458.490    -3471464.01549  -2698305.48247  20931457.904    20931463.911
  22193992.616     1225271.27949    942650.87746  22193992.829    22193998.530
  20757901.008    -2278584.95749  -1771527.30648  20757900.595    20757906.450
  22258785.032     3908147.76649   3025590.23046  22258785.033    22258792.584
  20429271.751    -2494842.03849  -1935002.31748  20429271.390    20429275.645
  20825475.552     -390049.91849   -344453.53347  20825475.114    20825480.897
  23370584.167      657227.26249    508272.17845  23370583.811    23370591.356
  23979980.111    -2913743.99549  -2254970.65245  23979979.946    23979987.331
  24098618.495     2689750.67449   2088764.37845  24098618.544    24098625.092
  24662242.531    -1478269.53349  -1151224.33545  24662242.025    24662251.268
 03  4 22 21 31  0.0000000  0 11G21G15G26G23G 6G18G17G16G 3G29G 2
  20592686.253     -886610.18949   -692688.82247  20592685.830    20592689.564
  20923370.650    -3513965.29049  -2731423.33747  20923370.152    20923376.120
  22204049.718     1278121.48449    983832.87546  22204050.056    22204055.828
  20755037.916    -2293630.40749  -1783251.00448  20755037.526    20755043.313
  22276215.209     3999743.17849   3096963.15046  22276215.177    22276222.788
  20425830.875    -2512923.63449  -1949091.84648  20425830.542    20425834.813
  20827878.679     -377421.08349   -334612.88147  20827878.240    20827884.123
  23377915.213      695752.10949    538291.41345  23377914.936    23377922.446
  23961840.666    -3009067.58549  -2329248.71745  23961840.353    23961847.767
  24112795.221     2764248.81049   2146814.83345  24112795.279    24112801.632
  24661435.809    -1482508.38449  -1154527.39745  24661435.513    24661444.716
 03  4 22 21 31 30.0000000  0 11G21G15G26G23G 6G18G17G16G 3G29G 2
  20594134.318     -879000.53549   -686759.21847  20594133.898    20594137.626
  20915319.335    -3556275.67949  -2764392.43847  20915318.776    20915324.671
  22214218.941     1331559.29249   1025472.70546  22214219.136    22214224.719
  20752248.853    -2308287.08849  -1794671.75848  20752248.467    20752254.137
  22293703.634     4091645.19149   3168574.98346  22293703.600    22293711.331
  20422470.115    -2530584.30249  -1962853.37848  20422469.799    20422474.124
  20830323.683     -364572.33249   -324600.87147  20830323.287    20830329.139
  23385328.404      734708.21549    568646.71045  23385328.144    23385335.614
  23943740.530    -3104183.64349  -2403365.05745  23943740.473    23943747.627
  24127042.853     2839119.35249   2205155.47745  24127042.756    24127049.164
  24660709.829    -1486324.45349  -1157501.02045  24660709.386    24660718.472
 03  4 22 21 32  0.0000000  0 11G21G15G26G23G 6G18G17G16G 3G29G 2
  20595629.673     -871142.10649   -680635.76247  20595629.282    20595633.062
  20907304.395    -3598394.09549  -2797211.95147  20907303.845    20907309.781
  22224499.524     1385583.41349   1067569.43346  22224499.739    22224505.189
  20749533.674    -2322555.39249  -1805789.88048  20749533.297    20749538.903
  22311250.193     4183852.38049   3240424.59246  22311250.123    22311257.934
  20419189.607    -2547823.78649  -1976286.70948  20419189.210    20419193.581
  20832810.904     -351502.76649   -314416.78047  20832810.435    20832816.187
  23392823.270      774094.09049    599336.86345  23392823.016    23392830.592
  23925680.511    -3199089.08349  -2477317.27145  23925680.416    23925687.614
  24141360.935     2914360.75449   2263785.08945  24141360.813    24141367.088
  24660064.376    -1489717.78549  -1160145.23445  24660063.703    24660072.698
 03  4 22 21 32 30.0000000  0 11G21G15G26G23G 6G18G17G16G 3G29G 2
  20597172.634     -863034.07749   -674317.80947  20597172.194    20597175.933
  20899326.300    -3640319.42249  -2829881.01347  20899325.708    20899331.644
  22234891.311     1440192.07449   1110121.64046  22234891.574    22234897.130
  20746892.317    -2336435.88249  -1816605.81048  20746891.916    20746897.547
  22328854.559     4276363.03549   3312510.66046  22328854.415    22328862.113
  20415989.001    -2564642.75549  -1989392.37148  20415988.645    20415993.037
  20835340.275     -338211.18649   -304059.72047  20835339.804    20835345.491
  23400399.655      813907.73249    630360.35945  23400399.390    23400406.971
  23907660.979    -3293781.45949  -2551103.47545  23907661.001    23907668.137
  24155749.095     2989970.98749   2322702.10245  24155749.043    24155755.309
  24659499.123    -1492688.72049  -1162460.32445  24659498.525    24659507.332
 03  4 22 21 33  0.0000000  0 11G21G15G26G23G 6G18G17G16G 3G29G 2
  20598763.234     -854676.00349   -667805.01547  20598762.723    20598766.437
  20891385.041    -3682051.09549  -2862399.16547  20891384.456    20891390.334
  22245393.996     1495383.21749   1153127.72346  22245394.184    22245399.788
  20744324.482    -2349929.71149  -1827120.44048  20744324.103    20744329.761
  22346516.287     4369174.93049   3384831.50246  22346516.099    22346523.692
  20412868.320    -2581041.99549  -2002170.96448  20412867.956    20412872.323
  20837911.962     -324697.15449   -293529.29547  20837911.474    20837917.122
  23408056.911      854146.68149    661715.27045  23408056.649    23408064.429
  23889682.648    -3388258.28249  -2624721.72345  23889682.577    23889689.771
  24170206.710     3065947.34949   2381904.43045  24170206.864    24170213.238
  24659013.765    -1495238.31649  -1164447.06645  24659013.281    24659022.294
 03  4 22 21 33 30.0000000  0 11G21G15G26G23G 6G18G17G16G 3G29G 2
  20600401.411     -846067.13449   -661096.79847  20600400.969    20600404.701
  20883480.883    -3723587.96449  -2894765.53347  20883480.277    20883486.115
  22256006.868     1551154.93549   1196586.20146  22256007.137    22256012.820
  20741830.153    -2363037.35149  -1837334.14848  20741829.760    20741835.406
  22364234.795     4462286.22249   3457385.61546  22364234.672    22364242.238
  20409827.382    -2597021.95749  -2014622.84348  20409827.021    20409831.460
  20840526.042     -310960.36449   -282825.30447  20840525.524    20840531.167
  23415794.800      894808.70349    693399.81345  23415794.612    23415802.313
  23871745.741    -3482516.70849  -2698169.78045  23871745.814    23871753.009
  24184733.870     3142287.97849   2441390.60745  24184734.007    24184740.473
  24658608.568    -1497366.96949  -1166105.79845  24658608.051    24658617.458
 03  4 22 21 34  0.0000000  0 11G21G15G26G23G 6G18G17G16G 3G29G 2
  20602087.341     -837207.56449   -654193.23947  20602086.892    20602090.659
  20875613.732    -3764929.79949  -2926979.92747  20875613.164    20875619.007
  22266729.794     1607504.75549   1240495.14846  22266730.004    22266735.799
  20739409.030    -2375760.47749  -1847248.23548  20739408.616    20739414.210
  22382009.898     4555694.29349   3530170.99546  22382009.787    22382017.288
  20406866.036    -2612583.65049  -2026748.80948  20406865.691    20406870.160
  20843182.456     -297000.70549   -271947.63547  20843181.946    20843187.613
  23423612.558      935890.90049    725411.78745  23423612.510    23423620.196
  23853851.114    -3576554.94749  -2771446.27845  23853851.032    23853858.163
  24199329.918     3218990.04449   2501158.43345  24199329.963    24199336.388
  24658283.501    -1499075.91549  -1167437.48245  24658282.986    24658292.506
 03  4 22 21 34 30.0000000  0 11G21G15G26G23G 6G18G17G16G 3G29G 2
  20603821.019     -828096.89349   -647094.00247  20603820.582    20603824.327
  20867783.914    -3806075.86749  -2959041.76647  20867783.324    20867789.166
  22277562.315     1664430.75349   1284853.06446  22277562.525    22277568.522
  20737060.889    -2388100.00849  -1856863.42148  20737060.482    20737066.042
  22399841.092     4649396.87549   3603185.85746  22399840.943    22399848.435
  20403984.170    -2627727.83749  -2038549.44148  20403983.846    20403988.271
  20845881.266     -282817.63949   -260895.90047  20845880.817    20845886.631
  23431510.089      977391.08649    757749.44645  23431509.843    23431517.591
  23835998.701    -3670370.48949  -2844549.23345  23835998.511    23836005.616
  24213994.188     3296051.08849   2561205.93245  24213994.291    24214000.729
  24658037.993    -1500365.92249  -1168442.74145  24658037.556    24658046.968
 03  4 22 21 35  0.0000000  0 11G21G15G26G23G 6G18G17G16G 3G29G 2
  20605602.778     -818733.89649   -639798.16047  20605602.348    20605606.052
  20859991.483    -3847024.93149  -2990950.10747  20859990.909    20859996.809
  22288504.318     1721931.27349   1329658.66046  22288504.460    22288510.634
  20734785.688    -2400056.27249  -1866179.95048  20734785.257    20734790.813
  22417728.121     4743392.57149   3676429.11446  22417727.979    22417735.366
  20401181.811    -2642454.67049  -2050024.85948  20401181.436    20401185.785
  20848623.038     -268409.64249   -249668.88747  20848622.579    20848628.443
  23439486.569     1019307.69649    790411.60245  23439486.350    23439494.240
  23818189.316    -3763960.27649  -2917476.29545  23818189.121    23818196.202
  24228726.380     3373469.41049   2621531.85845  24228726.572    24228732.833
  24657872.337    -1501236.92649  -1169121.53545  24657871.901    24657881.237
 03  4 22 21 35 30.0000000  0 11G21G15G26G23G 6G18G17G16G 3G29G 2
  20607432.501     -809118.42849   -632305.58947  20607432.072    20607435.802
  20852236.621    -3887776.91149  -3022704.87347  20852236.087    20852241.884
  22299555.211     1780003.72449   1374909.91346  22299555.399    22299561.392
  20732583.183    -2411630.68849  -1875198.94248  20732582.752    20732588.230
  22435670.205     4837678.85149   3749898.79746  22435670.099    22435677.658
  20398458.523    -2656765.56049  -2061176.17248  20398458.141    20398462.486
  20851407.539     -253777.05349   -238266.87247  20851407.081    20851412.948
  23447541.982     1061637.71749    823395.89145  23447541.575    23447549.478
  23800423.071    -3857322.50649  -2990226.02445  23800422.929    23800430.136
  24243526.002     3451242.26749   2682134.02845  24243526.296    24243532.601
  24657785.932    -1501690.40649  -1169474.94145  24657785.600    24657794.893
 03  4 22 21 36  0.0000000  0 11G21G15G26G23G 6G18G17G16G 3G29G 2
  20609310.466     -799249.67949   -624615.65247  20609310.071    20609313.772
  20844519.621    -3928330.47249  -3054305.02447  20844519.060    20844524.781
  22310714.670     1838646.48949   1420605.56546  22310714.823    22310720.758
  20730453.210    -2422823.88549  -1883920.87948  20730452.746    20730458.179
  22453667.207     4932253.88649   3823593.48346  22453667.180    22453674.951
  20395814.364    -2670660.44349  -2072003.32448  20395814.042    20395818.362
  20854234.958     -238918.83149   -226689.03447  20854234.474    20854240.295
  23455675.494     1104379.00449    856700.64645  23455675.114    23455682.936
  23782700.466    -3950454.37649  -3062796.24845  23782700.499    23782707.743
  24258392.681     3529367.55349   2743010.81845  24258392.945    24258399.552
  24657779.130    -1501726.84049  -1169503.41445  24657778.634    24657788.197
 03  4 22 21 36 30.0000000  0 11G21G15G26G23G 6G18G17G16G 3G29G 2
  20611236.793     -789126.93249   -616727.79647  20611236.378    20611240.099
  20836840.490    -3968684.69049  -3085749.84547  20836839.906    20836845.669
  22321981.925     1897857.37749   1466743.88846  22321982.164    22321988.227
  20728395.479    -2433636.86849  -1892346.55048  20728395.061    20728400.476
  22471718.947     5027115.74549   3897511.65846  22471718.932    22471726.781
  20393249.266    -2684140.11249  -2082506.93248  20393248.898    20393253.221
  20857105.590     -223833.96449   -214934.59347  20857105.116    20857110.842
  23463886.962     1147529.30649    890324.13745  23463886.509    23463894.349
  23765022.368    -4043353.29749  -3135184.94145  23765022.288    23765029.655
  24273326.128     3607843.02949   2804160.50145  24273326.336    24273332.758
  24657851.458    -1501346.87149  -1169207.38145  24657851.064    24657860.451
 03  4 22 21 37  0.0000000  0 11G21G15G26G23G 6G18G17G16G 3G29G 2
  20613211.333     -778750.15349   -608641.99247  20613210.961    20613214.720
  20829199.224    -4008839.24149  -3117039.07147  20829198.686    20829204.508
  22333356.779     1957633.86849   1513322.97846  22333357.049    22333363.292
  20726409.889    -2444070.84049  -1900476.88448  20726409.475    20726414.931
  22489824.716     5122261.92249   3971651.38846  22489824.718    22489832.668
  20390762.912    -2697205.71149  -2092687.88948  20390762.579    20390766.870
  20860019.351     -208522.09849   -203003.26747  20860018.869    20860024.631
  23472175.559     1191086.17849    924264.43845  23472175.181    23472183.192
  23747389.134    -4136017.00349  -3207390.36845  23747388.965    23747396.211
  24288325.827     3686665.95749   2865580.91745  24288326.012    24288332.400
  24658003.243    -1500551.52849  -1168587.70845  24658002.629    24658011.912
 03  4 22 21 37 30.0000000  0 11G21G15G26G23G 6G18G17G16G 3G29G 2
  20615234.533     -768118.55749   -600357.63147  20615234.140    20615237.868
  20821596.255    -4048793.15749  -3148171.96547  20821595.699    20821601.495
  22344839.234     2017974.18449   1560341.35646  22344839.499    22344845.597
  20724496.384    -2454126.59449  -1908312.51348  20724495.970    20724501.367
  22507984.222     5217690.48449   4046011.15746  22507984.206    22507992.215
  20388355.272    -2709857.68449  -2102546.54148  20388354.946    20388359.223
  20862976.309     -192983.22349   -190895.06147  20862975.822    20862981.596
  23480541.204     1235046.96649    958519.46945  23480540.710    23480548.824
  23729800.842    -4228442.99849  -3279410.56945  23729800.761    23729808.167
  24303391.165     3765834.24849   2927270.42945  24303391.302    24303397.686
  24658233.770    -1499341.51849  -1167644.90945  24658233.001    24658242.423
 03  4 22 21 38  0.0000000  0 11G21G15G26G23G 6G18G17G16G 3G29G 2
  20617306.277     -757231.64049   -591874.31447  20617305.816    20617309.606
  20814031.641    -4088545.67849  -3179147.93847  20814031.096    20814036.839
  22356428.592     2078875.73949   1607797.11446  22356428.836    22356434.694
  20722654.635    -2463805.23449  -1915854.28148  20722654.215    20722659.574
  22526197.107     5313399.17649   4120589.20046  22526197.108    22526205.152
  20386026.190    -2722096.93049  -2112083.59048  20386025.878    20386030.120
  20865976.683     -177216.76249   -178609.50347  20865976.175    20865981.849
  23488982.958     1279409.34149    993087.42445  23488982.675    23488990.803
  23712258.437    -4320628.79949  -3351243.58645  23712258.245    23712265.697
  24318521.648     3845345.47549   2989227.19545  24318521.788    24318528.216
  24658542.508    -1497718.03549  -1166379.93445  24658541.917    24658551.429
 03  4 22 21 38 30.0000000  0 11G21G15G26G23G 6G18G17G16G 3G29G 2
  20619426.635     -746088.40949   -583191.28747  20619426.238    20619430.064
  20806505.600    -4128095.38649  -3209965.86847  20806504.996    20806510.780
  22368124.369     2140337.11749   1655689.08046  22368124.629    22368130.031
  20720884.475    -2473107.28549  -1923102.59948  20720884.041    20720889.448
  22544462.841     5409386.39349   4195384.29246  22544462.893    22544471.125
  20383775.525    -2733923.83349  -2121299.33248  20383775.236    20383779.499
  20869020.339     -161221.41049   -166145.59647  20869019.868    20869025.682
  23497500.864     1324171.43549   1027966.83845  23497500.619    23497508.785
  23694762.376    -4412571.47749  -3422887.17045  23694762.177    23694769.584
  24333717.011     3925197.68249   3051449.59745  24333717.108    24333723.551
  24658930.058    -1495681.20849  -1164792.85945  24658929.598    24658939.108
 03  4 22 21 39  0.0000000  0 11G21G15G26G23G 6G18G17G16G 3G29G 2
  20621595.929     -734688.77549   -574308.44847  20621595.526    20621599.350
  20799018.084    -4167442.08549  -3240625.60147  20799017.510    20799023.318
  22379926.212     2202355.38949   1704015.00346  22379926.359    22379931.783
  20719185.714    -2482034.19449  -1930058.59448  20719185.267    20719190.728
  22562781.134     5505649.46149   4270394.31446  22562781.142    22562789.587
  20381603.147    -2745339.63549  -2130194.73648  20381602.890    20381607.165
  20872107.738     -144996.92249   -153503.13347  20872107.321    20872113.103
  23506094.438     1369330.30949   1063155.43645  23506094.239    23506102.282
  23677312.916    -4504269.20249  -3494339.87345  23677312.618    23677320.021
  24348976.784     4005387.99849   3113935.53845  24348976.824    24348983.210
  24659396.137    -1493232.60749  -1162884.94645  24659395.686    24659405.034
 03  4 22 21 39 30.0000000  0 11G21G15G26G23G 6G18G17G16G 3G29G 2
  20623814.069     -723032.42049   -565225.57747  20623813.641    20623817.453
  20791569.269    -4206585.21449  -3271126.71747  20791568.777    20791574.596
  22391833.262     2264928.28649   1752773.07446  22391833.476    22391839.163
  20717558.073    -2490587.27649  -1936723.30748  20717557.643    20717563.039
  22581151.620     5602186.26949   4345617.61546  22581151.653    22581160.280
  20379508.947    -2756345.10149  -2138770.40148  20379508.630    20379512.900
  20875238.938     -128542.74649   -140681.69947  20875238.433    20875244.229
  23514763.190     1414883.41849   1098651.24445  23514762.798    23514770.865
  23659910.636    -4595719.30849  -3565599.61745  23659910.196    23659917.470
  24364300.269     4085913.92949   3176682.93845  24364300.306    24364306.779
  24659940.564    -1490372.96249  -1160656.72045  24659939.918    24659949.104
 03  4 22 21 40  0.0000000  0 11G21G15G26G23G 6G18G17G16G 3G29G 2
  20626081.217     -711118.46949   -555941.97747  20626080.781    20626084.652
  20784159.581    -4245523.73049  -3301468.38547  20784159.026    20784164.756
  22403845.537     2328053.69749   1801961.70546  22403845.760    22403851.566
  20716001.382    -2498767.37749  -1943097.38248  20716000.991    20716006.377
  22599573.778     5698994.80649   4421052.68846  22599573.850    22599582.488
  20377492.605    -2766940.94749  -2147026.88848  20377492.266    20377496.535
  20878413.843     -111858.63949   -127681.10647  20878413.365    20878419.165
  23523506.047     1460828.28249   1134452.29445  23523505.706    23523513.987
  23642555.762    -4686919.42649  -3636664.57245  23642555.400    23642562.561
  24379687.354     4166773.29949   3239690.16845  24379687.364    24379693.935
  24660562.962    -1487103.09749  -1158108.82545  24660562.228    24660571.401
 03  4 22 21 40 30.0000000  0 11G21G15G26G23G 6G18G17G16G 3G29G 2
  20628397.580     -698946.20349   -546457.09247  20628397.138    20628400.964
  20776788.978    -4284256.37349  -3331649.63447  20776788.439    20776794.165
  22415962.562     2391729.63749   1851579.29846  22415963.011    22415968.904
  20714515.566    -2506575.34449  -1949181.48948  20714515.160    20714520.579
  22618047.425     5796073.08449   4496697.91146  22618047.401    22618056.049
  20375554.093    -2777127.76849  -2154964.65048  20375553.798    20375558.020
  20881632.845      -94943.18749   -114500.23247  20881632.307    20881638.035
  23532323.133     1507162.71849   1170556.91545  23532322.912    23532331.247
  23625248.836    -4777866.88049  -3707532.65545  23625248.631    23625255.759
  24395137.265     4247963.76649   3302955.41045  24395137.478    24395144.043
  24661263.313    -1483423.79849  -1155241.92845  24661262.563    24661271.572
 03  4 22 21 41  0.0000000  0 11G21G15G26G23G 6G18G17G16G 3G29G 2
  20630763.128     -686515.05449   -536770.47647  20630762.690    20630766.491
  20769457.682    -4322782.20149  -3361669.73447  20769457.234    20769462.899
  22428184.275     2455953.75849   1901624.04046  22428184.591    22428190.449
  20713100.367    -2514012.24749  -1954976.45048  20713099.939    20713105.385
  22636571.815     5893418.84849   4572551.57646  22636571.887    22636580.481
  20373693.316    -2786906.38549  -2162584.31748  20373692.996    20373697.179
  20884895.745      -77796.20749   -101138.95147  20884895.228    20884900.955
  23541214.067     1553884.18249   1206963.10645  23541213.906    23541222.181
  23607990.588    -4868559.10749  -3778201.88945  23607990.548    23607997.470
  24410649.796     4329483.05849   3366476.87545  24410650.039    24410656.835
  24662041.330    -1479336.04749  -1152056.74845  24662040.385    24662049.449
 03  4 22 21 41 30.0000000  0 11G21G15G26G23G 6G18G17G16G 3G29G 2
  20633178.006     -673825.26549   -526882.32847  20633177.568    20633181.320
  20762165.858    -4361101.28349  -3391528.72447  20762165.342    20762170.996
  22440509.310     2520722.85149   1952093.45846  22440509.708    22440515.647
  20711755.350    -2521079.95649  -1960483.72948  20711754.960    20711760.477
  22655146.824     5991029.21749   4648611.43146  22655146.797    22655155.248
  20371909.858    -2796278.37949  -2169887.14648  20371909.551    20371913.721
  20888202.747      -60417.46349    -87597.06847  20888202.288    20888208.054
  23550178.185     1600989.38749   1243668.30945  23550178.000    23550186.258
  23590781.368    -4958994.37749  -3848670.84845  23590781.232    23590788.209
  24426224.554     4411328.04449   3430252.13045  24426224.746    24426231.436
  24662896.434    -1474841.59349  -1148554.62745  24662895.663    24662904.786
 03  4 22 21 42  0.0000000  0 11G21G15G26G23G 6G18G17G16G 3G29G 2
  20635642.130     -660876.12149   -516792.08147  20635641.683    20635645.468
  20754913.505    -4399212.37849  -3421225.65847  20754913.023    20754918.715
  22452938.024     2586035.10849   2002986.09346  22452938.285    22452944.278
  20710480.509    -2527779.05749  -1965703.77748  20710480.133    20710485.656
  22673771.684     6088902.28949   4724875.99746  22673771.624    22673780.100
  20370203.679    -2805244.09449  -2176873.39648  20370203.382    20370207.586
  20891554.057      -42806.24749    -73874.04647  20891553.559    20891559.466
  23559214.969     1648476.18649   1280670.87045  23559214.834    23559222.850
  23573621.847    -5049169.81749  -3918937.35245  23573621.381    23573628.462
  24441860.647     4493496.53349   3494279.42345  24441860.842    24441867.851
  24663828.972    -1469941.07149  -1144736.10745  24663828.117    24663837.371
 03  4 22 21 42 30.0000000  0 11G21G15G26G23G 6G18G17G16G 3G29G 2
  20638155.812     -647666.72949   -506499.05347  20638155.392    20638159.112
  20747700.961    -4437114.78749  -3450759.97347  20747700.426    20747706.134
  22465469.539     2651888.10949   2054300.06946  22465469.729    22465475.771
  20709275.604    -2534110.75449  -1970637.54648  20709275.217    20709280.648
  22692446.216     6187036.02849   4801343.65446  22692446.126    22692454.506
  20368574.706    -2813804.32549  -2183543.68748  20368574.449    20368578.586
  20894949.702      -24961.78149    -59969.26947  20894949.218    20894955.132
  23568323.689     1696342.20049   1317968.92245  23568323.599    23568331.543
  23556511.891    -5139082.93049  -3988999.46245  23556511.406    23556518.533
  24457558.239     4575986.33949   3558557.12845  24457558.414    24457565.294
  24664838.281    -1464635.26849  -1140601.80445  24664837.838    24664847.104
 03  4 22 21 43  0.0000000  0 11G21G15G26G23G 6G18G17G16G 3G29G 2
  20640719.400     -634195.42549   -496001.93447  20640718.988    20640722.608
  20740528.377    -4474806.73749  -3480130.29947  20740527.842    20740533.599
  22478103.485     2718280.35249   2106034.24646  22478103.713    22478109.677
  20708140.600    -2540075.26549  -1975285.19148  20708140.213    20708145.570
  22711169.955     6285428.99549   4878013.33746  22711169.874    22711178.228
  20367022.934    -2821959.19649  -2189898.10948  20367022.663    20367026.725
  20898390.092       -6882.68149    -45881.65847  20898389.586    20898395.472
  23577504.016     1744585.59649   1355561.01745  23577504.004    23577512.037
  23539452.576    -5228730.35549  -4058854.53745  23539452.026    23539459.256
  24473316.501     4658795.73749   3623083.88245  24473316.625    24473323.576
  24665925.069    -1458924.38949  -1136151.85045  24665924.675    24665933.952
 03  4 22 21 43 30.0000000  0 12G21G15G14G26G23G 6G18G17G16G 3G29G 2
  20643332.320     -620464.43349   -485302.46547  20643331.879    20643335.504
  20733395.421    -4512289.89549  -3509337.92547  20733394.949    20733400.752
  24660775.810    -2383193.19049  -1831753.70145  24660775.591    24660794.637
  22490839.201     2785206.94549   2158184.82446  22490839.396    22490845.440
  20707074.767    -2545676.08349  -1979649.43648  20707074.401    20707079.799
  22729941.929     6384076.46849   4954881.29546  22729941.889    22729950.278
  20365547.666    -2829712.14149  -2195939.33448  20365547.355    20365551.361
  20901874.742       11429.14149    -31612.70247  20901874.234    20901880.115
  23586755.500     1793201.62349   1393443.48445  23586755.348    23586763.395
  23522443.803    -5318112.23349  -4128502.71945  23522443.152    23522450.531
  24489134.578     4741919.89749   3687855.87445  24489134.704    24489141.615
  24667088.395    -1452812.02449  -1131389.05345  24667087.930    24667097.298
 03  4 22 21 44  0.0000000  0 12G21G15G14G26G23G 6G18G17G16G 3G29G 2
  20645994.179     -606476.10049   -474402.46347  20645993.756    20645997.303
  20726302.000    -4549565.92049  -3538384.15047  20726301.550    20726307.260
  24639186.719    -2496643.13149  -1920155.55645  24639186.257    24639205.043
  22503675.801     2852663.16949   2210748.09246  22503675.999    22503681.917
  20706077.493    -2550916.80849  -1983733.09048  20706077.111    20706082.532
  22748761.294     6482973.85049   5031944.02946  22748761.400    22748769.854
  20364148.189    -2837066.29449  -2201669.82048  20364147.854    20364151.909
  20905403.255       29971.64949    -17164.00147  20905402.761    20905408.600
  23596077.012     1842184.78749   1431612.03245  23596076.646    23596084.715
  23505485.476    -5407228.50649  -4197943.90945  23505484.881    23505492.293
  24505011.590     4825353.94249   3752869.35945  24505011.753    24505018.752
  24668327.551    -1446301.86849  -1126316.28945  24668326.903    24668336.167
 03  4 22 21 44 30.0000000  0 12G21G15G14G26G23G 6G18G17G16G 3G29G 2
  20648706.650     -592221.95549   -463295.32447  20648706.198    20648709.781
  20719249.649    -4586626.34649  -3567262.37947  20719249.182    20719254.848
  24617595.561    -2610102.64149  -2008564.91045  24617595.204    24617613.722
  22516613.983     2920653.75149   2263727.74546  22516614.193    22516619.899
  20705149.864    -2555791.34349  -1987531.39948  20705149.503    20705154.894
  22767629.576     6582126.33949   5109205.50546  22767629.657    22767638.196
  20362825.710    -2844015.47349  -2207084.74548  20362825.419    20362829.570
  20908977.234       48753.03149     -2529.16147  20908976.726    20908982.567
  23605469.250     1891540.06049   1470070.54445  23605468.754    23605476.972
  23488579.328    -5496069.22449  -4267170.38045  23488578.965    23488586.430
  24520948.638     4909102.84149   3818128.15545  24520948.720    24520955.571
  24669643.513    -1439387.64449  -1120928.68045  24669642.732    24669652.019
 03  4 22 21 45  0.0000000  0 12G21G15G14G26G23G 6G18G17G16G 3G29G 2
  20651469.494     -577702.81949   -451981.71547  20651469.086    20651472.741
  20712238.244    -4623471.67149  -3595972.99747  20712237.796    20712243.393
  24596002.755    -2723570.67049  -2096980.90644  24596002.413    24596020.740
  22529653.242     2989174.96649   2317120.88946  22529653.396    22529658.942
  20704291.610    -2560301.99549  -1991046.16948  20704291.207    20704296.468
  22786545.681     6681530.39049   5186663.01146  22786545.732    22786554.363
  20361580.089    -2850561.54849  -2212185.56048  20361579.782    20361583.933
  20912596.638       67772.84549     12291.47347  20912596.121    20912601.970
  23614931.447     1941263.52349   1508815.93445  23614930.993    23614939.220
  23471725.782    -5584633.06849  -4336181.11245  23471725.733    23471733.145
  24536944.686     4993162.68349   3883629.24145  24536944.956    24536951.605
  24671035.451    -1432071.61649  -1115227.95845  24671034.818    24671044.137
 03  4 22 21 45 30.0000000  0 12G21G15G14G26G23G 6G18G17G16G 3G29G 2
  20654282.796     -562918.68949   -440461.62347  20654282.358    20654286.083
  20705267.776    -4660101.56349  -3624515.74347  20705267.312    20705272.912
  24574408.858    -2837044.99849  -2185401.80945  24574408.512    24574426.787
  22542792.871     3058224.08749   2370925.35746  22542793.040    22542798.520
  20703502.295    -2564450.25949  -1994278.55848  20703501.854    20703507.059
  22805509.231     6781183.24449   5264314.41246  22805509.304    22805517.888
  20360410.807    -2856706.10649  -2216973.50748  20360410.511    20360414.629
  20916261.316       87030.98049     27297.80247  20916260.784    20916266.675
  23624463.094     1991352.15149   1547845.89145  23624462.664    23624470.953
  23454925.762    -5672918.37649  -4404974.80145  23454925.543    23454932.907
  24552999.464     5077530.74749   3949370.52445  24552999.762    24553006.224
  24672503.700    -1424355.27249  -1109215.30745  24672503.171    24672512.612
 03  4 22 21 46  0.0000000  0 12G21G15G14G26G23G 6G18G17G16G 3G29G 2
  20657146.462     -547870.03249   -428735.38947  20657146.016    20657149.739
  20698338.276    -4696516.17049  -3652890.73947  20698337.819    20698343.454
  24552813.829    -2950524.32249  -2273826.62345  24552813.503    24552831.743
  22556032.159     3127797.37949   2425138.30246  22556032.343    22556037.974
  20702781.364    -2568238.51649  -1997230.41748  20702780.953    20702786.199
  22824519.508     6881081.68849   5342157.16746  22824519.503    22824527.957
  20359317.475    -2862451.21049  -2221450.18248  20359317.178    20359321.347
  20919971.227      106526.71549     42489.28647  20919970.736    20919976.645
  23634063.606     2041802.15249   1587157.44745  23634063.058    23634071.430
  23438178.886    -5760923.77849  -4473550.40445  23438178.716    23438185.930
  24569112.440     5162203.34349   4015349.12644  24569112.468    24569119.198
  24674048.153    -1416241.09849  -1102892.66045  24674047.402    24674056.783
 03  4 22 21 46 30.0000000  0 12G21G15G14G26G23G 6G18G17G16G 3G29G 2
  20660060.439     -532556.63849   -416802.88147  20660060.058    20660063.819
  20691449.918    -4732714.76049  -3681097.41047  20691449.478    20691455.085
  24531218.270    -3064006.05449  -2362253.31745  24531217.962    24531236.318
  22569370.840     3197892.07849   2479757.51746  22569370.959    22569376.586
  20702128.604    -2571668.14949  -1999902.83148  20702128.235    20702133.597
  22843576.111     6981223.19849   5420189.30446  22843575.991    22843584.421
  20358299.978    -2867797.69749  -2225616.25348  20358299.732    20358303.910
  20923726.480      126260.83149     57866.51247  20923726.006    20923731.943
  23643732.345     2092610.89649   1626748.53945  23643731.745    23643740.159
  23421485.648    -5848646.83649  -4541905.97145  23421485.543    23421492.674
  24585282.586     5247177.74449   4081562.87944  24585282.481    24585289.381
  24675668.067    -1407730.23049  -1096260.92945  24675667.151    24675676.512
 03  4 22 21 47  0.0000000  0 12G21G15G14G26G23G 6G18G17G16G 3G29G 2
  20663025.206     -516977.15749   -404663.02947  20663024.766    20663028.524
  20684602.977    -4768695.58449  -3709134.39447  20684602.508    20684608.154
  24509622.741    -3177486.81949  -2450679.22245  24509622.673    24509641.022
  22582808.449     3268506.48149   2534781.69246  22582808.586    22582814.070
  20701544.158    -2574739.48749  -2002296.06448  20701543.789    20701549.137
  22862678.494     7081606.22849   5498409.64946  22862678.397    22862686.839
  20357358.360    -2872745.84749  -2229471.93348  20357358.114    20357362.261
  20927527.360      146234.50149     73430.39747  20927526.885    20927532.783
  23653468.777     2143776.24649   1666617.48645  23653468.224    23653476.807
  23404846.850    -5936084.34749  -4610039.04345  23404846.752    23404853.652
  24601509.951     5332452.52249   4148010.68944  24601509.899    24601516.184
  24677363.075    -1398823.02849  -1089320.34545  24677362.387    24677371.673
 03  4 22 21 47 30.0000000  0 12G21G15G14G26G23G 6G18G17G16G 3G29G 2
  20666040.630     -501131.02049   -392315.38747  20666040.218    20666043.899
  20677797.633    -4804458.04449  -3737001.21747  20677797.089    20677802.737
  24488028.030    -3290964.20049  -2539102.50845  24488028.132    24488046.341
  22596344.334     3339638.01749   2590208.83046  22596344.496    22596349.897
  20701027.642    -2577453.87749  -2004411.14748  20701027.227    20701032.537
  22881826.345     7182228.41549   5576816.37446  22881826.212    22881834.744
  20356492.383    -2877296.92449  -2233018.20448  20356492.104    20356496.205
  20931374.038      166448.32049     89181.42347  20931373.492    20931379.331
  23663272.615     2195295.31349   1706762.08645  23663272.087    23663280.565
  23388262.745    -6023233.80249  -4677947.67346  23388262.803    23388269.461
  24617793.927     5418024.89749   4214690.39044  24617793.586    24617800.550
  24679133.441    -1389520.95349  -1082072.07045  24679132.512    24679141.895
 03  4 22 21 48  0.0000000  0 12G21G15G14G26G23G 6G18G17G16G 3G29G 2
  20669106.812     -485018.42649   -379760.12347  20669106.405    20669110.001
  20671033.807    -4840001.87349  -3764697.69147  20671033.311    20671038.975
  24466434.742    -3404436.08849  -2627521.50745  24466434.630    24466452.664
  22609978.061     3411283.50149   2646036.47146  22609978.158    22609983.586
  20700578.614    -2579813.11949  -2006249.49248  20700578.238    20700583.524
  22901019.086     7283087.05049   5655407.31446  22901019.014    22901027.655
  20355701.653    -2881452.35749  -2236256.19048  20355701.351    20355705.420
  20935266.256      186902.28849    105119.56047  20935265.777    20935271.617
  23673143.024     2247165.16649   1747180.01045  23673142.675    23673151.135
  23371733.986    -6110093.37749  -4745630.40345  23371733.966    23371740.435
  24634133.969     5503891.66149   4281599.46944  24634133.744    24634140.364
  24680978.229    -1379825.72049  -1074517.42545  24680977.364    24680986.955
 03  4 22 21 48 30.0000000  0 12G21G15G14G26G23G 6G18G17G16G 3G29G 2
  20672223.716     -468639.07149   -366996.98547  20672223.278    20672226.887
  20664311.784    -4875326.54949  -3792223.38547  20664311.285    20664316.882
  24444843.205    -3517900.15249  -2715934.37245  24444842.688    24444860.360
  22623709.105     3483439.99549   2702262.28946  22623709.162    22623714.543
  20700196.899    -2581818.71149  -2007812.26448  20700196.522    20700201.849
  22920256.128     7384179.49749   5734180.43646  22920256.197    22920265.081
  20354985.869    -2885213.34249  -2239186.80748  20354985.577    20354989.691
  20939204.355      207596.54049    121244.94547  20939203.831    20939209.577
  23683079.814     2299382.59249   1787868.76045  23683079.495    23683087.877
  23355260.658    -6196661.06649  -4813085.69145  23355260.570    23355267.017
  24650529.806     5590050.20749   4348735.96844  24650529.522    24650535.588
  24682897.531    -1369738.74449  -1066657.54045  24682896.856    24682906.366
 03  4 22 21 49  0.0000000  0 12G21G15G14G26G23G 6G18G17G16G 3G29G 2
  20675391.523     -451991.67549   -354024.99547  20675391.154    20675394.742
  20657631.746    -4910430.42349  -3819577.03447  20657631.219    20657636.798
  24423253.500    -3631353.10049  -2804338.59045  24423253.035    24423270.489
  22637536.918     3556105.68449   2758884.86246  22637536.979    22637542.389
  20699882.441    -2583471.18849  -2009099.88648  20699882.070    20699887.403
  22939537.712     7485504.06749   5813134.42546  22939537.708    22939546.707
  20354345.056    -2888580.12749  -2241810.25648  20354344.830    20354348.998
  20943188.273      228532.55149    137558.70847  20943187.793    20943193.580
  23693082.215     2351945.68049   1828826.85245  23693082.130    23693090.546
  23338843.610    -6282933.54949  -4880310.94546  23338843.405    23338849.854
  24666980.410     5676498.71048   4416098.34944  24666980.163    24666986.495
  24684891.372    -1359260.73549  -1058492.95245  24684890.825    24684900.383
 03  4 22 21 49 30.0000000  0 12G21G15G14G26G23G 6G18G17G16G 3G29G 2
  20678610.499     -435076.21249   -340844.11447  20678610.116    20678613.656
  20650993.815    -4945312.88049  -3846758.15147  20650993.325    20650998.849
  24401666.075    -3744792.83549  -2892732.53045  24401665.709    24401682.939
  22651461.204     3629277.59949   2815901.90846  22651461.260    22651466.314
  20699634.891    -2584772.22549  -2010113.65848  20699634.491    20699639.825
  22958863.104     7587058.15849   5892267.28346  22958863.050    22958872.056
  20353779.143    -2891554.28149  -2244127.76448  20353778.912    20353783.058
  20947218.337      249710.41749    154060.94147  20947217.863    20947223.560
  23703150.148     2404851.22749   1870051.80045  23703149.950    23703158.340
  23322482.973    -6368908.89449  -4947304.68446  23322482.821    23322489.220
  24683485.435     5763234.32748   4483684.46744  24683485.670    24683491.607
  24686959.752    -1348393.27249  -1050024.88845  24686959.003    24686968.431
 03  4 22 21 50  0.0000000  0 12G21G15G14G26G23G 6G18G17G16G 3G29G 2
  20681880.660     -417891.70249   -327453.59247  20681880.252    20681883.771
  20644398.312    -4979972.64649  -3873765.73547  20644397.751    20644403.294
  24380081.675    -3858216.47649  -2981113.91445  24380081.542    24380098.480
  22665481.057     3702953.20549   2873311.45446  22665481.214    22665486.417
  20699453.971    -2585722.69849  -2010854.26548  20699453.567    20699458.899
  22978231.721     7688839.81249   5971577.44046  22978231.651    22978240.754
  20353287.727    -2894136.83849  -2246140.12848  20353287.452    20353291.585
  20951294.527      271131.27149    170752.51147  20951294.101    20951299.792
  23713282.750     2458096.79549   1911541.72745  23713282.346    23713290.874
  23306179.300    -6454584.37749  -5014064.75645  23306179.228    23306185.594
  24700044.691     5850255.00648   4551492.75544  24700045.204    24700051.967
  24689101.945    -1337137.42149  -1041254.16845  24689101.051    24689110.613
 03  4 22 21 50 30.0000000  0 12G21G15G14G26G23G 6G18G17G16G 3G29G 2
  20685202.084     -400437.62449   -313853.02547  20685201.663    20685205.252
  20637845.244    -5014408.90349  -3900599.16247  20637844.668    20637850.288
  24358501.322    -3971621.09449  -3069480.46545  24358500.891    24358517.655
  22679596.493     3777130.13649   2931111.62946  22679596.582    22679601.931
  20699339.505    -2586323.83549  -2011322.66148  20699339.126    20699344.444
  22997643.048     7790846.64349   6051063.06146  22997643.073    22997652.189
  20352870.676    -2896328.16649  -2247847.64148  20352870.431    20352874.578
  20955417.153      292795.68449    187633.86647  20955416.717    20955422.399
  23723479.318     2511679.76249   1953294.51545  23723478.987    23723487.643
  23289933.327    -6539957.46149  -5080589.17745  23289933.175    23289939.546
  24716658.099     5937558.00648   4619520.91544  24716658.869
  24691317.425    -1325494.43549  -1032181.78945  24691316.806    24691326.379
 03  4 22 21 51  0.0000000  0 12G21G15G14G26G23G 6G18G17G16G 3G29G 2
  20688574.790     -382713.81049   -300042.25947  20688574.388    20688578.002
  20631334.836    -5048621.01049  -3927257.92747  20631334.314    20631339.938
  24336924.967    -4085004.32049  -3157830.39445  24336924.519    24336940.869
  22693806.651     3851805.50449   2989300.17846  22693806.725    22693812.366
  20699291.310    -2586577.19149  -2011520.05948  20699290.919    20699296.245
  23017096.696     7893076.17349   6130722.19646  23017096.815    23017106.074
  20352527.818    -2898129.95949  -2249251.61748  20352527.528    20352531.707
  20959586.143      314703.90149    204705.19347  20959585.681    20959591.375
  23733739.298     2565597.17149   1995307.91245  23733739.045    23733747.882
  23273745.224    -6625025.98549  -5146876.29945  23273745.022    23273751.512
                   6025141.62648   4687767.77144
  24693606.872    -1313465.88349  -1022809.01845  24693606.052    24693615.475
 03  4 22 21 51 30.0000000  0 11G21G15G14G26G23G 6G18G17G16G 3G 2
  20691998.991     -364719.38549   -286020.63747  20691998.587    20692002.267
  20624867.425    -5082607.74849  -3953741.08047  20624866.842    20624872.473
  24315353.003    -4198363.52949  -3246161.62045  24315352.483    24315368.688
  22708111.180     3926976.82249   3047875.21546  22708111.261    22708117.134
  20699309.024    -2586483.71449  -2011447.20248  20699308.667    20699314.065
  23036592.614     7995526.17049   6210553.15646  23036592.649    23036601.861
  20352258.951    -2899542.95849  -2250352.64248  20352258.675    20352262.844
  20963801.726      336856.61149    221967.03447  20963801.262    20963806.913
  23744062.593     2619846.32449   2037579.82045  23744062.407    23744071.261
  23257615.401    -6709787.39549  -5212924.10245  23257615.328    23257622.034
  24695968.784    -1301052.87049  -1013136.65545  24695968.037    24695977.641
 03  4 22 21 52  0.0000000  0 11G21G15G14G26G23G 6G18G17G16G 3G 2
  20695475.088     -346452.33249   -271786.57647  20695474.651    20695478.339
  20618443.176    -5116366.83549  -3980046.84247  20618442.629    20618448.343
  24293786.231    -4311694.75549  -3334471.07045  24293785.923    24293801.857
  22722510.063     4002642.79149   3106835.65546  22722510.213    22722515.883
  20699392.760    -2586043.21949  -2011103.94248  20699392.439    20699397.907
  23056130.320     8098195.93549   6290555.30146  23056130.243    23056139.500
  20352064.121    -2900566.61049  -2251150.27348  20352063.849    20352068.010
  20968064.212      359256.08049    239421.15247  20968063.731    20968069.372
  23754449.187     2674425.99549   2080109.25545  23754448.777    23754457.513
  23241544.787    -6794237.85949  -5278729.60345  23241544.763    23241551.623
  24698403.746    -1288255.25849  -1003164.59445  24698403.261    24698413.077
 03  4 22 21 52 30.0000000  0 11G21G15G14G26G23G 6G18G17G16G 3G 2
  20699002.789     -327914.06949   -257341.17847  20699002.359    20699006.081
  20612062.214    -5149899.23349  -4006175.97647  20612061.687    20612067.323
  24272225.178    -4424997.14449  -3422758.06945  24272224.730    24272240.566
  22737002.091     4078798.75449   3166177.93746  22737002.310    22737008.126
  20699542.039    -2585258.80049  -2010492.67648  20699541.685    20699547.177
  23075708.910     8201081.18049   6370725.37946  23075708.740    23075718.124
  20351942.878    -2901203.92749  -2251646.86648  20351942.593    20351946.712
  20972373.358      381900.66949    257066.29147  20972372.878    20972378.508
  23764897.444     2729331.41349   2122892.53645  23764897.024    23764905.839
  23225533.721    -6878376.57049  -5344292.18346  23225533.678    23225540.527
  24700911.814    -1275076.23849   -992895.33245  24700911.304    24700921.033
 03  4 22 21 53  0.0000000  0 11G21G15G14G26G23G 6G18G17G16G 3G 2
  20702582.328     -309103.78649   -242683.81247  20702581.871    20702585.653
  20605724.633    -5183203.61949  -4032127.42047  20605724.094    20605729.706
  24250670.016    -4538267.54949  -3511020.13845  24250669.502    24250685.306
  22751587.081     4155442.53149   3225900.31446  22751587.214    22751592.901
  20699756.610    -2584131.44349  -2009614.19548  20699756.257    20699761.685
  23095328.001     8304179.89649   6451061.79446  23095327.907    23095337.452
  20351894.994    -2901455.63549  -2251842.98748  20351894.677    20351898.743
  20976729.332      404791.86149    274903.57247  20976728.893    20976734.580
  23775407.418     2784560.30749   2165927.86645  23775406.838    23775415.747
  23209582.303    -6962200.76349  -5409609.66546  23209582.450    23209589.313
  24703492.279    -1261516.86549   -982329.70845  24703491.798    24703501.485
 03  4 22 21 53 30.0000000  0 11G21G15G14G26G23G 6G18G17G16G 3G 2
  20706213.631     -290020.65449   -227813.83947  20706213.207    20706217.062
  20599430.610    -5216278.92649  -4057900.37647  20599430.071    20599435.622
  24229121.487    -4651503.23349  -3599255.19545  24229121.249    24229136.731
  22766264.177     4232571.36249   3286000.68046  22766264.383    22766270.152
  20700036.170    -2582662.33349  -2008469.41148  20700035.804    20700041.257
  23114987.430     8407489.78149   6531562.74946  23114987.297    23114996.961
  20351920.256    -2901322.87649  -2251739.51548  20351919.959    20351923.969
  20981132.461      427930.01549    292933.29747  20981132.014    20981137.666
  23785978.056     2840109.82549   2209213.03745  23785977.700    23785986.768
  23193691.445    -7045708.11549  -5474680.27546  23193691.651    23193698.380
  24706144.557    -1247578.55649   -971468.79545  24706144.203    24706154.073
 03  4 22 21 54  0.0000000  0 11G21G15G14G26G23G 6G18G17G16G 3G 2
  20709897.012     -270664.40749   -212731.05047  20709896.657    20709900.453
  20593180.321    -5249124.48349  -4083494.29747  20593179.728    20593185.343
  24207580.236    -4764701.58749  -3687461.16345  24207579.862    24207595.357
  22781033.116     4310182.46349   3346476.83146  22781033.358    22781038.858
  20700380.456    -2580852.89449  -2007059.43748  20700380.105    20700385.594
  23134686.598     8511008.57149   6612226.48046  23134686.510    23134696.110
  20352018.580    -2900806.44949  -2251337.08748  20352018.271    20352022.236
  20985582.568      451315.65149    311155.85847  20985582.124    20985587.788
  23796609.568     2895977.35749   2252746.00945  23796609.180    23796618.193
  23177861.229    -7128895.90749  -5539501.87346  23177861.540    23177868.260
  24708868.983    -1233262.76149   -960313.76745  24708868.337    24708878.430
 03  4 22 21 54 30.0000000  0 11G21G15G14G26G23G 6G18G17G16G 3G 2
  20713632.552     -251034.33449   -197434.89347  20713632.131    20713635.962
  20586973.999    -5281739.19949  -4108908.35247  20586973.395    20586978.924
  24186046.553    -4877860.09549  -3775636.07445  24186046.080    24186061.252
  22795893.316     4388273.15949   3407326.71046  22795893.561    22795899.035
  20700789.324    -2578704.37349  -2005385.24748  20700788.952    20700794.393
  23154424.990     8614733.90949   6693051.17045  23154424.894    23154434.498
  20352189.601    -2899907.54349  -2250636.62548  20352189.273    20352193.248
  20990079.891      474949.60149    329571.91147  20990079.530    20990085.215
  23807300.895     2952159.93949   2296524.47745  23807300.528    23807309.627
  23162092.679    -7211761.83749  -5604072.67446  23162092.697    23162099.305
  24711664.942    -1218570.81349   -948865.61945  24711664.280    24711674.165
 03  4 22 21 55  0.0000000  0 11G21G15G14G26G23G 6G18G17G16G 3G 2
  20717420.105     -231129.87149   -181924.92047  20717419.729    20717423.618
  20580811.736    -5314121.97449  -4134141.65847  20580811.111    20580816.666
  24164520.529    -4990976.05649  -3863777.84645  24164520.242    24164535.294
  22810844.155     4466840.95249   3468548.32146  22810844.431    22810849.871
  20701262.450    -2576217.90749  -2003447.72148  20701262.085    20701267.483
  23174202.246     8718663.55049   6774035.05445  23174202.153    23174211.810
  20352433.159    -2898627.21449  -2249638.95148  20352432.884    20352436.849
  20994624.823      498832.54149    348181.98847  20994624.354    20994630.026
  23818051.547     3008654.76949   2340546.25045  23818051.216    23818060.409
  23146385.508    -7294303.65049  -5668390.90946  23146385.411    23146392.025
  24714532.345    -1203504.09349   -937125.43945  24714531.455    24714541.257
 03  4 22 21 55 30.0000000  0 11G21G15G14G26G23G 6G18G17G16G 3G 2
  20721260.247     -210949.71949   -166200.12947  20721259.910    20721263.718
  20574693.901    -5346271.15249  -4159192.94347  20574693.286    20574698.898
  24143003.300    -5104045.80849  -3951883.58545  24143003.028    24143018.334
  22825885.400     4545883.63349   3530139.97646  22825885.648    22825891.313
  20701799.764    -2573394.07749  -2001247.30648  20701799.402    20701804.783
  23194018.068     8822795.95249   6855176.92345  23194018.025    23194027.780
  20352749.387    -2896965.74449  -2248344.28148  20352749.055    20352753.005
  20999217.047      522965.62249    366986.97047  20999216.685    20999222.462
  23828861.039     3065459.67949   2384809.65245  23828860.793    23828870.255
  23130740.469    -7376517.94349  -5732453.93546  23130740.452    23130747.160
  24717470.787    -1188063.34449   -925093.81845  24717469.862    24717479.600
 03  4 22 21 56  0.0000000  0 11G21G15G14G26G23G 6G18G17G16G 3G 2
  20725152.933     -190493.90549   -150260.52647  20725152.526    20725156.280
  20568620.567    -5378186.28349  -4184061.86447  20568619.991    20568625.610
  24121495.404    -5217067.20749  -4039951.67845  24121495.138    24121510.480
  22841016.474     4625397.98049   3592099.15146  22841016.763    22841022.519
  20702401.058    -2570234.55049  -1998785.31548  20702400.676    20702406.040
  23213872.132     8927128.23249   6936474.52445  23213872.110    23213881.864
  20353137.694    -2894924.95049  -2246754.03348  20353137.396    20353141.411
  21003857.223      547349.58349    385987.44947  21003856.782    21003862.577
  23839729.212     3122571.71149   2429312.36345  23839728.919    23839738.569
  23115158.212    -7458402.54249  -5796260.06346  23115158.249    23115165.061
  24720479.894    -1172250.33449   -912772.12545  24720479.028    24720488.815
 03  4 22 21 56 30.0000000  0 11G21G15G14G26G23G 6G18G17G16G 3G 2
  20729098.008     -169762.07349   -134105.86047  20729097.644    20729101.455
  20562592.048    -5409866.51049  -4208747.74247  20562591.514    20562597.033
  24099997.120    -5330037.83949  -4127980.21245  24099997.020    24100012.354
  22856236.798     4705380.97849   3654423.52146  22856237.056    22856242.877
  20703065.870    -2566740.89849  -1996062.97448  20703065.476    20703070.806
  23233763.734     9031657.76749   7017925.84345  23233763.700    23233773.475
  20353598.037    -2892505.85449  -2244869.00548  20353597.738    20353601.766
  21008545.053      571984.27349    405183.30847  21008544.627    21008550.390
  23850655.342     3179987.49549   2474051.76545  23850655.035    23850664.547
  23099639.061    -7539955.41249  -5859807.72546  23099639.223    23099646.106
  24723559.338    -1156066.79049   -900161.69145  24723558.766    24723568.506
 03  4 22 21 57  0.0000000  0 11G21G15G14G26G23G 6G18G17G16G 3G 2
  20733095.835     -148753.26949   -117735.36247  20733095.506    20733099.315
  20556608.535    -5441310.47749  -4233249.51447  20556607.956    20556613.448
  24078509.379    -5442954.51449  -4215966.65945  24078509.176    24078524.350
  22871545.678     4785830.30749   3717111.28646  22871545.998    22871551.990
  20703794.109    -2562914.05949  -1993081.00848  20703793.722    20703799.015
  23253692.353     9136382.56349   7099529.30745  23253692.354    23253702.173
  20354130.098    -2889709.34149  -2242689.88748  20354129.839    20354133.869
  21013280.736      596870.07449    424574.83247  21013280.219    21013286.030
  23861638.677     3237704.74649   2519026.05745  23861638.441    23861647.919
  23084183.682    -7621173.85249  -5923094.77946  23084183.842    23084190.842
  24726709.120    -1139513.92849   -887263.48945  24726708.696    24726718.440
 03  4 22 21 57 30.0000000  0 11G21G15G14G26G23G 6G18G17G16G 3G 2
  20737146.504     -127467.40249   -101148.97447  20737146.112    20737149.863
  20550669.992    -5472517.77149  -4257566.86647  20550669.418    20550674.867
  24057032.103    -5555815.18449  -4303909.47445  24057032.134    24057047.124
  22886942.867     4866742.59449   3780159.75346  22886943.199    22886949.133
  20704585.406    -2558755.83549  -1989840.81748  20704585.024    20704590.293
  23273657.671     9241299.88649   7181282.80445  23273657.622    23273667.523
  20354733.680    -2886537.09949  -2240217.99748  20354733.451    20354737.499
  21018064.318      622008.11449    444162.90347  21018063.857    21018069.624
  23872678.732     3295720.05049   2564232.59245  23872678.478    23872687.970
  23068792.437    -7702055.81649  -5986119.64646  23068792.547    23068799.546
  24729929.220    -1122593.67649   -874078.99845  24729928.527    24729938.301
 03  4 22 21 58  0.0000000  0 11G21G15G14G26G23G 6G18G17G16G 3G 2
  20741249.789     -105904.25149    -84346.52047  20741249.462    20741253.197
  20544776.663    -5503487.53249  -4281699.13547  20544776.078    20544781.499
  24035566.221    -5668617.43849  -4391806.78945  24035566.195    24035580.901
  22902427.631     4948114.93149   3843566.73746  22902427.909    22902433.848
  20705439.355    -2554267.88449  -1986343.68648  20705439.003    20705444.346
  23293659.028     9346407.05049   7263184.18945  23293659.024    23293669.073
  20355408.660    -2882990.30049  -2237454.24248  20355408.394    20355412.418
  21022895.990      647398.43649    463947.56247  21022895.512    21022901.288
  23883774.701     3354030.37549   2609669.00845  23883774.667    23883784.130
  23053465.732    -7782599.14749  -6048880.64346  23053465.648    23053472.623
  24733218.685    -1105307.75749   -860609.57745  24733217.970    24733227.909
 03  4 22 21 58 30.0000000  0 11G21G15G14G26G23G 6G18G17G16G 3G 2
  20745406.202      -84062.52049    -67326.99447  20745405.814    20745409.525
  20538928.792    -5534218.13049  -4305645.03647  20538928.206    20538933.630
  24014112.137    -5781357.92049  -4479655.95945  24014112.007    24014126.431
  22917999.448     5029945.00249   3907330.38446  22917999.739    22918005.704
  20706356.045    -2549450.80049  -1982590.09648  20706355.688    20706361.000
  23313696.270     9451702.48649   7345232.32545  23313696.333    23313706.415
  20356154.712    -2879069.51849  -2234399.07148  20356154.458    20356158.512
  21027775.853      673042.35349    483929.82547  21027775.394    21027781.043
  23894926.697     3412633.50349   2655333.60245  23894926.467    23894935.926
  23038203.809    -7862800.83149  -6111375.42846  23038203.783    23038210.733
  24736577.383    -1087657.16549   -846856.01245  24736576.784    24736586.997
 03  4 22 21 59  0.0000000  0 11G21G15G14G26G23G 6G18G17G16G 3G 2
  20749615.607      -61941.81449    -50090.08347  20749615.260    20749618.943
  20533126.503    -5564708.70649  -4329403.91547  20533125.973    20533131.463
  23992670.301    -5894034.05849  -4567455.00845  23992670.111    23992684.250
  22933657.839     5112230.14449   3971448.64146  22933658.129    22933664.112
  20707335.132    -2544305.94649  -1978581.10448  20707334.721    20707340.026
  23333768.822     9557183.96449   7427425.40145  23333768.847    23333779.303
  20356971.822    -2874775.75649  -2231053.26948  20356971.572    20356975.583
  21032704.183      698940.66149    504110.31347  21032703.742    21032709.289
  23906133.724     3471526.66149   2701224.18145  23906133.648    23906143.192
  23023007.445    -7942658.19649  -6173601.91546  23023007.463    23023014.296
  24740005.032    -1069643.31249   -832819.37245  24740004.701    24740015.473
 03  4 22 21 59 30.0000000  0 11G21G15G14G26G23G 6G18G17G16G 3G 2
  20753878.364      -39541.39149    -32635.21247  20753877.969    20753881.626
  20527370.170    -5594958.03749  -4352974.80747  20527369.678    20527375.234
  23971241.162    -6006642.75549  -4655201.51745  23971241.186    23971254.992
  22949402.111     5194967.38749   4035919.17846  22949402.409    22949408.485
  20708376.203    -2538834.68749  -1974317.76748  20708375.830    20708381.147
  23353876.536     9662848.93349   7509761.45345  23353876.577    23353887.051
  20357859.654    -2870110.41549  -2227417.91848  20357859.347    20357863.327
  21037680.979      725093.61949    524489.23047  21037680.517    21037686.102
  23917395.466     3530707.03049   2747338.55345  23917395.441    23917405.050
  23007877.034    -8022169.24149  -6235558.51946  23007876.958    23007883.645
  24743501.675    -1051267.72949   -818500.90045  24743501.610    24743512.299
 03  4 22 22  0  0.0000000  0 11G21G15G14G26G23G 6G18G17G16G 3G 2
  20758194.273      -16861.37849    -14962.48447  20758193.821    20758197.498
  20521659.927    -5624965.74949  -4376357.41647  20521659.361    20521664.965
  23949825.298    -6119182.17149  -4742894.07645  23949825.411    23949838.895
  22965231.932     5278153.29549   4100739.28346  22965232.211    22965238.039
  20709479.041    -2533038.92349  -1969801.57148  20709478.716    20709483.994
  23374018.732     9768694.36749   7592238.11245  23374018.573    23374029.253
  20358817.756    -2865074.99049  -2223494.19948  20358817.544    20358821.524
  21042706.327      751501.47149    545066.76547  21042705.808    21042711.429
  23928711.420     3590170.84149   2793673.81045  23928711.258    23928721.022
  22992812.768    -8101332.18649  -6297243.88246  22992812.687    22992819.243
  24747067.017    -1032532.69149   -803902.29645  24747066.912    24747077.660
 03  4 22 22  0 30.0000000  0 11G21G15G14G26G23G 6G18G17G16G 3G 2
  20762563.481        6099.24749      2928.90647  20762563.117    20762566.772
  20515995.867    -5654730.39849  -4399550.63447  20515995.342    20516000.928
  23928423.492    -6231649.20449  -4830530.19745  23928423.418    23928436.586
  22981146.629     5361785.52049   4165907.22346  22981146.903    22981152.879
  20710643.572    -2526919.59549  -1965033.24048  20710643.210    20710648.487
  23394194.734     9874718.37449   7674853.95345  23394194.685    23394205.274
  20359846.154    -2859670.42549  -2219282.83448  20359845.992    20359850.002
  21047780.119      778165.39849    565843.84247  21047779.705    21047785.361
  23940080.267     3649915.70949   2840228.04745  23940080.327    23940090.307
  22977815.500    -8180143.93449  -6358655.59746  22977815.309    22977821.760
  24750700.731    -1013439.35149   -789024.51445  24750700.346    24750710.926
 03  4 22 22  1  0.0000000  0 11G21G15G14G26G23G 6G18G17G16G 3G 2
  20766986.237       29341.06749     21039.40647  20766985.865    20766989.567
  20510378.322    -5684250.93649  -4422553.63347  20510377.781    20510383.295
  23907035.620    -6344040.89549  -4918107.61345  23907035.684    23907048.667
  22997145.834     5445861.30249   4231420.76246  22997146.167    22997151.859
  20711869.364    -2520477.85649  -1960013.68548  20711868.992    20711874.318
  23414404.245     9980918.78049   7757607.19045  23414404.145    23414414.938
  20360944.754    -2853897.67249  -2214784.56548  20360944.531    20360948.491
  21052902.844      805085.58949    586820.59447  21052902.449    21052908.108
  23951502.449     3709938.92549   2886999.16845  23951502.519    23951512.548
  22962885.484    -8258601.81949  -6419791.57546  22962885.205    22962891.557
  24754402.230     -993989.20249   -773868.68745  24754401.944    24754412.162
 03  4 22 22  1 30.0000000  0 11G21G15G14G26G23G 6G18G17G16G 3G 2
  20771462.513       52864.53749     39369.37547  20771462.206    20771465.899
  20504807.451    -5713526.31049  -4445365.59647  20504806.897    20504812.374
  23885662.920    -6456354.57049  -5005624.25545  23885662.701    23885675.539
  23013228.760     5530377.76149   4297277.69745  23013229.123    23013235.030
  20713156.213    -2513715.05749  -1954743.95348  20713155.880    20713161.208
  23434646.700    10087293.25749   7840496.12445  23434646.632    23434657.560
  20362113.228    -2847757.67549  -2210000.13348  20362112.962    20362116.868
  21058074.465      832262.95149    607997.74347  21058074.078    21058079.873
  23962977.245     3770237.70049   2933985.01545  23962977.226    23962987.336
  22948023.038    -8336703.71849  -6480650.14346  22948022.805    22948029.229
  24758171.472     -974183.75949   -758436.00245  24758170.955    24758181.243
 03  4 22 22  2  0.0000000  0 11G21G15G14G26G23G 6G18G17G16G 3G 2
  20775992.657       76670.43849     57919.41447  20775992.340    20775996.035
  20499283.498    -5742554.99849  -4467985.33647  20499282.932    20499288.329
  23864305.378    -6568587.18149  -5093077.75345  23864305.196    23864317.891
  23029395.004     5615332.51749   4363476.13945  23029395.421    23029401.459
  20714504.142    -2506632.21249  -1949224.83548  20714503.727    20714508.983
  23454921.856    10193839.75749   7923519.05145  23454921.845    23454932.862
  20363351.279    -2841251.51549  -2204930.39048  20363351.016    20363354.998
  21063295.341      859698.64549    629376.19447  21063294.904    21063300.712
  23974503.579     3830809.12649   2981183.32945  23974503.766    23974513.920
  22933228.835    -8414446.82849  -6541229.13946  22933228.726    22933235.145
  24762007.912     -954024.57249   -742727.69145  24762007.209    24762017.382
 03  4 22 22  2 30.0000000  0 11G21G15G14G26G23G 6G18G17G16G 3G 2
  20780576.606      100759.17649     76689.84547  20780576.296    20780580.011
  20493806.527    -5771336.46249  -4490412.43247  20493805.973    20493811.363
  23842963.890    -6680736.46949  -5180466.34645  23842963.620    23842976.062
  23045644.116     5700721.94249   4430013.33345  23045644.592    23045650.647
  20715912.500    -2499231.06649  -1943457.69648  20715912.073    20715917.315
  23475229.593    10300555.56949   8006673.92945  23475229.486    23475240.433
  20364658.687    -2834380.68949  -2199576.48848  20364658.410    20364662.503
  21068565.298      887392.80849    650956.04347  21068564.926    21068570.765
  23986081.529     3891650.30849   3028591.82145  23986081.580    23986091.665
  22918503.388    -8491829.03149  -6601526.93046  22918503.320    22918509.811
  24765911.294     -933513.37049   -726745.10045  24765910.376    24765920.623
 03  4 22 22  3  0.0000000  0 11G21G15G14G26G23G 6G18G17G16G 3G 2
  20785214.460      125130.79049     95680.71347  20785214.116    20785217.772
  20488376.694    -5799870.12649  -4512646.44047  20488376.162    20488381.615
  23821638.562    -6792799.93749  -5267788.08345  23821638.473    23821650.525
  23061975.668     5786542.94749   4496886.77945  23061975.966    23061981.851
  20717381.122    -2491513.32449  -1937443.85548  20717380.706    20717385.958
  23495568.984    10407437.79549   8089958.47145  23495568.825    23495579.646
  20366035.227    -2827146.85949  -2193939.72848  20366034.957    20366039.048
  21073884.668      915345.65349    672737.46747  21073884.234    21073890.034
  23997710.186     3952757.77449   3076207.81845  23997710.110    23997720.183
  22903847.015    -8568848.63349  -6661542.15246  22903846.927    22903853.488
  24769881.116     -912652.16349   -710489.75945  24769880.249    24769890.362
 03  4 22 22  3 30.0000000  0 11G21G15G14G26G23G 6G18G17G16G 3G 2
  20789906.077      149785.51949    114892.17847  20789905.728    20789909.418
  20482994.148    -5828155.26049  -4534686.77647  20482993.619    20482999.127
  23800330.054    -6904775.30949  -5355041.15545  23800329.806    23800341.802
  23078388.563     5872792.36249   4564094.06145  23078388.743    23078394.557
  20718909.616    -2483480.65949  -1931184.61648  20718909.228    20718914.494
  23515939.376    10514483.82849   8173370.65945  23515939.194    23515950.155
  20367480.624    -2819551.44049  -2188021.19948  20367480.327    20367484.376
  21079253.278      943557.67349    694720.84347  21079252.797    21079258.607
  24009388.782     4014128.47949   3124028.93345  24009388.706    24009398.678
  22889260.244    -8645503.25549  -6721272.98646  22889260.125    22889266.627
  24773917.385     -891443.02849   -693963.30345  24773916.374    24773926.567
 03  4 22 22  4  0.0000000  0 11G21G15G14G26G23G 6G18G17G16G 3G 2
  20794651.874      174724.61249    134325.22947  20794651.532    20794655.181
  20477659.295    -5856190.14549  -4556532.12847  20477658.762    20477664.264
  23779038.741    -7016659.01449  -5442222.82145  23779038.605    23779050.512
  23094882.539     5959467.94449   4631633.43645  23094882.646    23094888.589
  20720497.980    -2475133.64049  -1924680.43048  20720497.628    20720502.877
  23536340.387    10621691.99449   8256909.18745  23536340.440    23536351.346
  20368994.642    -2811594.88049  -2181821.27248  20368994.379    20368998.389
  21084671.434      972029.92949    716907.00647  21084670.966    21084676.676
  24021117.088     4075760.10349   3172053.37845  24021117.076    24021126.876
  22874743.675    -8721789.90149  -6780717.07346  22874743.364    22874749.815
  24778019.528     -869887.00249   -677166.53445  24778018.594    24778028.673
 03  4 22 22  4 30.0000000  0 11G21G15G14G26G23G 6G18G17G16G 3G 2
  20799451.974      199948.97949    153980.56947  20799451.609    20799455.244
  20472372.295    -5883973.18049  -4578181.22847  20472371.772    20472377.350
  23757765.706    -7128448.15749  -5529330.79945  23757765.562    23757777.247
  23111457.071     6046567.11049   4699502.85545  23111457.231    23111463.113
  20722145.976    -2466473.44049  -1917932.21148  20722145.577    20722150.805
  23556772.239    10729060.11349   8340572.33045  23556772.295    23556783.096
  20370577.330    -2803277.83649  -2175340.44748  20370577.033    20370581.059
  21090139.294     1000763.32749    739296.64747  21090138.831    21090144.414
  24032894.452     4137650.03449   3220279.07545  24032894.613    24032904.448
  22860297.329    -8797706.02749  -6839872.45146  22860297.006    22860303.435
  24782187.378     -847985.42549   -660100.49745  24782186.459    24782196.748
 03  4 22 22  5  0.0000000  0 11G21G15G14G26G23G 6G18G17G16G 3G 2
  20804306.285      225458.81649    173858.35747  20804305.929    20804309.567
  20467133.487    -5911503.35449  -4599633.29147  20467132.949    20467138.505
  23736511.322    -7240140.05449  -5616362.99445  23736510.906    23736522.505
  23128111.583     6134086.85949   4767700.05445  23128111.801    23128117.687
  20723853.186    -2457501.44449  -1910941.03148  20723852.855    20723858.066
  23577233.854    10836585.75649   8424358.26445  23577234.000    23577244.832
  20372228.286    -2794601.89149  -2168579.95748  20372228.030    20372232.066
  21095656.944     1029758.60649    761890.35847  21095656.461    21095662.050
  24044720.256     4199795.28649   3268703.71245  24044720.426    24044730.632
  22845921.751    -8873249.28449  -6898737.30046  22845921.537    22845927.949
  24786420.363     -825740.13849   -642766.65545  24786419.728    24786429.951
 03  4 22 22  5 30.0000000  0 11G21G15G14G26G23G 6G18G17G16G 3G 2
  20809215.134      251254.87849    193959.17047  20809214.761    20809218.451
  20461943.020    -5938779.74649  -4620887.60947  20461942.452    20461947.944
  23715275.683    -7351731.86049  -5703317.19045  23715275.227    23715286.820
  23144845.372     6222024.39749   4836222.73145  23144845.686    23144851.555
  20725619.571    -2448218.92349  -1903707.88248  20725619.272    20725624.446
  23597725.213    10944266.86749   8508265.30145  23597725.314    23597736.157
  20373947.436    -2785568.13349  -2161540.66048  20373947.130    20373951.064
  21101224.452     1059016.31249    784688.53947  21101224.036    21101229.708
  24056594.509     4262193.03749   3317325.09245  24056594.416    24056604.934
  22831617.875    -8948416.94349  -6957309.45946  22831617.521    22831623.969
  24790718.489     -803152.54349   -625166.11345  24790718.004    24790728.338
 03  4 22 22  6  0.0000000  0 11G21G15G14G26G23G 6G18G17G16G 3G 2
  20814178.507      277337.89849    214283.59747  20814178.144    20814181.919
  20456800.983    -5965801.31149  -4641943.35747  20456800.402    20456805.926
  23694059.434    -7463220.61649  -5790191.08645  23694059.145    23694070.720
  23161658.272     6310376.74149   4905068.70145  23161658.527    23161664.379
  20727444.876    -2438627.34649  -1896233.91548  20727444.529    20727449.682
  23618245.714    11052100.92549   8592291.54445  23618245.827    23618256.827
  20375734.413    -2776177.49749  -2154223.26548  20375734.103    20375738.014
  21106842.031     1088537.18549    807691.81147  21106841.598    21106847.268
  24068516.285     4324840.12249   3366140.80245  24068516.002    24068526.334
  22817385.694    -9023206.71549  -7015587.15046  22817385.412    22817391.942
  24795081.327     -780224.50449   -607300.27845  24795080.873    24795091.540
 03  4 22 22  6 30.0000000  0 11G21G15G14G26G23G 6G18G17G16G 3G 2
  20819196.588      303707.96849    234831.69447  20819196.230    20819199.965
  20451707.521    -5992567.36549  -4662800.01147  20451707.008    20451712.491
  23672863.487    -7574604.36149  -5876983.19545  23672863.108    23672874.562
  23178549.704     6399140.67049   4974235.33645  23178549.964    23178555.617
  20729328.529    -2428728.53949  -1888520.54248  20729328.195    20729333.377
  23638794.622    11160085.32749   8676434.92545  23638794.842    23638805.896
  20377588.957    -2766431.92249  -2146629.29748  20377588.619    20377592.564
  21112509.745     1118321.27749    830900.18647  21112509.314    21112514.925
  24080484.558     4387733.35949   3415148.27845  24080484.476    24080494.562
  22803225.963    -9097616.79449  -7073568.99546  22803225.715    22803232.085
  24799508.804     -756958.09849   -589170.74245  24799508.577    24799519.051
 03  4 22 22  7  0.0000000  0 11G21G15G14G26G23G 6G18G17G16G 3G 2
  20824269.222      330364.88249    255603.31247  20824268.859    20824272.589
  20446662.902    -6019077.17549  -4683456.98547  20446662.370    20446667.791
  23651687.980    -7685880.55449  -5963691.48645  23651687.628    23651699.008
  23195518.723     6488312.53949   5043719.86745  23195518.916    23195524.495
  20731270.262    -2418524.29549  -1880569.16648  20731269.951    20731275.198
  23659371.637    11268217.00849   8760693.04845  23659371.797    23659382.857
  20379510.697    -2756333.17649  -2138760.13248  20379510.359    20379514.329
  21118227.603     1148368.63749    854313.69747  21118227.205    21118232.739
  24092499.265     4450869.52349   3464345.05845  24092498.810    24092509.014
  22789138.899    -9171645.56149  -7131253.70246  22789138.548    22789144.825
  24804000.444     -733355.46649   -570779.26845  24804000.247    24804010.455
 03  4 22 22  7 30.0000000  0 11G21G15G14G26G23G 6G18G17G16G 3G 2
  20829396.678      357309.67149    276599.24647  20829396.339    20829400.103
  20441667.294    -6045329.16549  -4703913.07447  20441666.808    20441672.185
  23630533.515    -7797046.08349  -6050313.56445  23630533.302    23630544.590
  23212564.655     6577889.90949   5113520.35545  23212564.896    23212570.367
  20733270.059    -2408015.57249  -1872380.53448  20733269.726    20733274.894
  23679976.384    11376493.96549   8845064.37145  23679976.572    23679987.389
  20381499.509    -2745881.80949  -2130616.19948  20381499.182    20381503.125
  21123995.852     1178680.50049    877933.30047  21123995.372    21124001.049
  24104559.212     4514246.00449   3513729.08245  24104559.160    24104569.351
  22775124.838    -9245290.20349  -7188639.09146  22775124.360    22775130.663
  24808555.982     -709418.01949   -552126.84745  24808555.604    24808565.673
 03  4 22 22  8  0.0000000  0 11G21G15G14G26G23G 6G18G17G16G 3G 2
  20834579.082      384543.46149    297820.37247  20834578.741    20834582.497
  20436721.003    -6071322.09649  -4724167.29047  20436720.463    20436725.879
  23609400.741    -7908097.99949  -6136847.11545  23609400.483    23609411.594
  23229687.347     6667870.13949   5183634.80745  23229687.522    23229693.165
  20735327.549    -2397203.38949  -1863955.45048  20735327.212    20735332.394
  23700608.135    11484914.06249   8929547.23545  23700608.430    23700619.442
  20383555.160    -2735078.89549  -2122198.32948  20383554.879    20383558.818
  21129814.554     1209257.63349    901759.62447  21129814.044    21129819.746
  24116664.850     4577859.88549   3563298.08545  24116664.670    24116674.994
  22761184.243    -9318547.85949  -7245722.95746  22761183.920    22761190.175
  24813174.837     -685147.32749   -533214.80545  24813174.298    24813184.555
 03  4 22 22  8 30.0000000  0 11G21G15G14G26G23G 6G18G17G16G 3G 2
  20839816.588      412066.05149    319266.54747  20839816.165    20839819.764
  20431824.149    -6097055.31449  -4744219.12747  20431823.593    20431828.945
  23588289.987    -8019033.77049  -6223290.17045  23588289.678    23588300.695
  23246886.161     6758249.88249   5254060.54345  23246886.246    23246891.911
  20737442.352    -2386089.49649  -1855295.24948  20737442.028    20737447.297
  23721266.930    11593474.43049   9014139.38445  23721267.078    23721278.066
  20385677.454    -2723925.96649  -2113507.72448  20385677.189    20385681.157
  21135683.699     1240100.23949    925792.81547  21135683.251    21135688.914
  24128815.149     4641707.80749   3613049.48045  24128814.849    24128825.163
  22747317.788    -9391416.70149  -7302503.82946  22747317.440    22747323.669
  24817856.631     -660545.56749   -514044.76545  24817855.836    24817866.290
 03  4 22 22  9  0.0000000  0 11G21G15G14G26G23G 6G18G17G16G 3G 2
  20845108.979      439877.81049    340938.04247  20845108.592    20845112.078
  20426976.852    -6122527.96749  -4764067.93747  20426976.298    20426981.654
  23567201.918    -8129850.89749  -6309640.75845  23567201.567    23567212.648
  23264160.303     6849026.02749   5324795.13345  23264160.387    23264166.009
  20739614.345    -2374675.49249  -1846401.21247  20739614.024    20739619.281
  23741952.057    11702172.72649   9098838.99245  23741951.998    23741963.003
  20387866.179    -2712424.27749  -2104545.35848  20387865.904    20387869.897
  21141603.424     1271209.02349    950033.40847  21141602.973    21141608.731
  24141009.085     4705787.02649   3662981.07845  24141009.037    24141019.400
  22733525.815    -9463894.45449  -7358979.97346  22733525.338    22733531.615
  24822600.989     -635614.75149   -494618.31145  24822600.041    24822610.704
 03  4 22 22  9 30.0000000  0 11G21G15G14G26G23G 6G18G17G16G 3G 2
  20850456.552      467979.82549    362835.71447  20850456.180    20850459.720
  20422179.447    -6147738.59449  -4783712.56647  20422178.870    20422184.200
  23546136.901    -8240546.12849  -6395896.39845  23546136.600    23546147.707
  23281509.351     6940196.16649   5395836.76145  23281509.496    23281515.345
  20741843.314    -2362962.37849  -1837274.09347  20741842.961    20741848.164
  23762662.616    11811006.93249   9183644.51645  23762662.551    23762673.783
  20390121.049    -2700574.92149  -2095312.08848  20390120.793    20390124.738
  21147574.152     1302584.87049    974482.10547  21147573.689    21147579.503
  24153247.157     4770094.95249   3713090.91045  24153246.735    24153257.244
  22719808.738    -9535978.24949  -7415149.11546  22719808.284    22719814.590
  24827407.828     -610356.37749   -474936.61145  24827406.803    24827417.223
 03  4 22 22 10  0.0000000  0 10G21G15G14G26G23G 6G18G17G16G 3
  20855860.191      496376.08849    384962.66547  20855859.858    20855863.373
  20417432.798    -6172682.33649  -4803149.23447  20417432.216    20417437.513
  23525096.427    -8351113.01249  -6482052.00745  23525096.056    23525107.054
  23298933.267     7031760.51249   5467185.54745  23298933.524    23298939.607
  20744129.522    -2350947.95549  -1827912.19447  20744129.188    20744134.372
  23783399.170    11919978.29049   9268556.90545  23783399.225    23783410.700
  20392442.588    -2688375.24149  -2085805.83648  20392442.306    20392446.187
  21153596.492     1334231.83649    999142.06747  21153595.970    21153601.698
  24165528.524     4834632.02749   3763379.28645  24165527.973    24165538.347
  22706167.706    -9607662.36749  -7471006.82346  22706167.207    22706173.540
 03  4 22 22 10 30.0000000  0 10G21G15G14G26G23G 6G18G17G16G 3
  20861319.078      525062.97349    407316.07747  20861318.779    20861322.291
  20412736.286    -6197362.15249  -4822380.24747  20412735.747    20412741.101
  23504079.987    -8461553.22549  -6568108.91845  23504079.576    23504090.472
  23316431.173     7123712.15649   5538836.14445  23316431.371    23316437.424
  20746471.978    -2338637.74349  -1818319.80747  20746471.667    20746476.928
  23804160.757    12029080.15649   9353570.99445  23804160.732    23804172.388
  20394829.729    -2675830.81549  -2076030.94648  20394829.423    20394833.297
  21159669.677     1366146.37549   1024010.53147  21159669.156    21159674.721
  24177851.676     4899391.16849   3813840.66645  24177851.332    24177861.970
  22692602.337    -9678948.88649  -7526554.71446  22692601.839    22692608.135
 03  4 22 22 11  0.0000000  0 10G21G15G14G26G23G 6G18G17G16G 3
  20866833.337      554040.27249    429895.79347  20866832.952    20866836.514
  20408090.203    -6221777.77949  -4841405.40147  20408089.634    20408095.053
  23483087.951    -8571864.80749  -6654065.59645  23483087.647    23483098.416
  23334001.960     7216047.40349   5610785.64245  23334002.217    23334008.394
  20748870.398    -2326033.97049  -1808498.67747  20748870.066    20748875.386
  23824946.757    12138309.50949   9438684.40645  23824946.661    23824958.371
  20397282.107    -2662943.60149  -2065988.95248  20397281.806    20397285.663
  21165793.764     1398328.56649   1049087.54947  21165793.206    21165798.861
  24190216.352     4964368.67249   3864472.21545  24190216.162    24190226.739
  22679112.996    -9749836.15849  -7581791.50546  22679112.477    22679118.672
 03  4 22 22 11 30.0000000  0 10G21G15G14G26G23G 6G18G17G16G 3
  20872403.080      583309.40249    452702.90147  20872402.716    20872406.334
  20403494.678    -6245927.16149  -4860223.09547  20403494.135    20403499.553
  23462121.264    -8682043.82549  -6739918.99545  23462121.042    23462131.643
  23351645.283     7308764.21249   5683032.45545  23351645.602    23351651.781
  20751324.621    -2313136.84449  -1798448.96247  20751324.317    20751329.610
  23845756.533    12247664.91649   9523896.05945  23845756.626    23845768.362
  20399799.646    -2649714.06649  -2055680.21748  20399799.293    20399803.140
  21171969.057     1430780.11549   1074374.45047  21171968.541    21171974.281
  24202622.353     5029562.62949   3915272.41745  24202622.242    24202632.989
  22665700.209    -9820320.69449  -7636714.47246  22665699.603    22665705.895
 03  4 22 22 12  0.0000000  0 10G21G15G14G26G23G 6G18G17G16G 3
  20878028.307      612870.64049    475737.62447  20878027.972    20878031.696
  20398950.084    -6269809.41649  -4878832.63647  20398949.551    20398954.890
  23441180.325    -8792087.87549  -6825667.21945  23441180.080    23441190.589
  23369360.596     7401859.39549   5755574.11245  23369360.978    23369367.252
  20753834.413    -2299948.15749  -1788172.05747  20753834.060    20753839.337
  23866589.878    12357143.77949   9609203.90245  23866590.033    23866601.778
  20402381.999    -2636143.54849  -2045105.78648  20402381.675    20402385.452
  21178195.725     1463501.46149   1099871.59747  21178195.201    21178200.918
  24215069.186     5094969.73249   3966238.73645  24215069.087    24215079.896
  22652364.157    -9890400.59349  -7691322.15546  22652363.765    22652370.081
 03  4 22 22 12 30.0000000  0 10G21G15G14G26G23G 6G18G17G16G 3
  20883709.337      642724.53449    499000.39047  20883709.029    20883712.782
  20394456.435    -6293423.41649  -4897233.13947  20394455.922    20394461.299
  23420265.690    -8901993.84049  -6911307.84145  23420265.359    23420275.824
  23387147.743     7495330.07949   5828408.37345  23387148.004    23387154.207
  20756399.387    -2286469.09949  -1777668.88547  20756399.024    20756404.302
  23887446.536    12466743.84449   9694606.16445  23887446.644    23887458.360
  20405029.058    -2622233.04849  -2034266.42948  20405028.772    20405032.473
  21184473.825     1496493.11149   1125579.37247  21184473.304    21184478.934
  24227555.989     5160587.26449   4017369.04045  24227555.762    24227566.943
  22639105.694    -9960073.46449  -7745612.66846  22639105.443    22639111.658
 03  4 22 22 13  0.0000000  0 10G21G15G14G26G23G 6G18G17G16G 3
  20889446.166      672871.41749    522491.46447  20889445.797    20889449.490
  20390013.996    -6316768.34949  -4915423.98447  20390013.527    20390018.895
  23399377.759    -9011759.59149  -6996839.23245  23399377.289    23399387.825
  23405005.576     7589172.88949   5901532.55245  23405005.861    23405011.891
  20759019.296    -2272701.42449  -1766940.81547  20759018.910    20759024.215
  23908325.683    12576462.18349   9780100.58645  23908325.740    23908337.356
  20407740.491    -2607984.33549  -2023163.52148  20407740.166    20407743.919
  21190803.373     1529754.71749   1151497.48947  21190802.813    21190808.628
  24240081.967     5226411.68849   4068660.51145  24240081.899    24240093.153
  22625925.165   -10029337.49249  -7799584.59246  22625924.909    22625931.102
 03  4 22 22 13 30.0000000  0 10G21G15G14G26G23G 6G18G17G16G 3
  20895239.040      703312.43849    546211.73347  20895238.617    20895242.231
  20385623.154    -6339842.21649  -4933403.60747  20385622.687    20385628.042
  23378517.055    -9121381.81149  -7082258.75445  23378516.511    23378527.183
  23422933.552     7683385.29849   5974944.79145  23422933.960    23422939.891
  20761693.946    -2258646.03249  -1755988.55347  20761693.569    20761698.820
  23929226.875    12686297.26949   9865685.99445  23929226.900    23929238.749
  20410516.120    -2593398.03549  -2011797.57148  20410515.844    20410519.611
  21197184.374     1563288.22949   1177627.48447  21197183.905    21197189.891
  24252647.081     5292440.63349   4120111.35845  24252647.081    24252658.344
  22612822.782   -10098189.75649  -7853235.68046  22612822.669    22612828.850
 03  4 22 22 14  0.0000000  0 10G21G15G14G26G23G 6G18G17G16G 3
  20901087.970      734048.39849    570161.82647  20901087.498    20901091.116
  20381284.246    -6362643.61449  -4951170.91547  20381283.721    20381289.032
  23357683.938    -9230856.93549  -7167563.69645  23357683.773    23357694.411
  23440931.274     7777964.88149   6048643.09345  23440931.601    23440937.777
  20764423.296    -2244303.74449  -1744812.73647  20764422.919    20764428.004
  23950149.985    12796247.11049   9951360.80545  23950150.005    23950161.874
  20413356.000    -2578474.66249  -2000168.96548  20413355.678    20413359.433
  21203617.363     1597094.44849   1203969.99147  21203616.961    21203622.914
  24265250.868     5358671.71449   4171719.68545  24265250.706    24265261.752
  22599799.401   -10166627.60449  -7906563.85446  22599799.364    22599805.518
 03  4 22 22 14 30.0000000  0 10G21G15G14G26G23G 6G18G17G16G 3
  20906992.845      765079.19749    594341.65047  20906992.410    20906996.085
  20376997.253    -6385171.89449  -4968725.40547  20376996.689    20377002.056
  23336879.691    -9340182.80649  -7252752.34445  23336879.555    23336890.006
  23458998.454     7872908.17149   6122624.83445  23458998.783    23459004.986
  20767206.797    -2229676.46849  -1733414.85047  20767206.372    20767211.482
  23971094.217    12906308.82749  10037122.78345  23971094.286    23971106.137
  20416259.527    -2563216.32549  -1988279.34548  20416259.208    20416262.983
  21210102.451     1631173.57749   1230525.14247  21210101.952    21210108.003
  24277892.322     5425101.52349   4223482.90045  24277892.124    24277903.101
  22586855.478   -10234649.21649  -7959567.67446  22586855.236    22586861.403
 03  4 22 22 15  0.0000000  0 10G21G15G14G26G23G 6G18G17G16G 3
  20912953.954      796404.83849    618751.22647  20912953.534    20912957.199
  20372762.278    -6407426.50149  -4986066.64647  20372761.751    20372767.107
  23316104.359    -9449357.20549  -7337822.93845  23316104.158    23316114.316
  23477134.205     7968211.57149   6196887.15945  23477134.488    23477140.680
  20770044.022    -2214766.15049  -1721796.41447  20770043.628    20770048.867
  23992058.960    13016479.57149  10122969.70745  23992059.063    23992071.352
  20419226.362    -2547624.81749  -1976130.11048  20419226.114    20419229.940
  21216639.276     1665525.36249   1257292.76047  21216638.877    21216644.928
  24290570.697     5491726.64049   4275398.27545  24290570.707    24290581.783
  22573990.867   -10302252.70849  -8012245.69046  22573990.672    22573996.847
 03  4 22 22 15 30.0000000  0 10G21G15G14G26G23G 6G18G17G16G 3
  20918971.378      828026.68349    643391.61147  20918970.988    20918974.663
  20368579.797    -6429405.72649  -5003193.30347  20368579.246    20368584.551
  23295358.480    -9558376.87449  -7422773.00245  23295358.130    23295368.209
  23495338.101     8063872.80049   6271428.34845  23495338.385    23495344.422
  20772935.067    -2199573.55949  -1709958.02147  20772934.687    20772939.964
  24013044.184    13126757.43649  10208900.10545  24013044.255    24013056.818
  20422256.648    -2531700.80249  -1963721.78348  20422256.406    20422260.225
  21223228.503     1700151.27349   1284273.97647  21223228.005    21223233.982
  24303285.604     5558544.53549   4327463.86645  24303285.854    24303297.150
  22561206.217   -10369435.42949  -8064595.83446  22561206.172    22561212.309
 03  4 22 22 16  0.0000000  0 10G21G15G14G26G23G 6G18G17G16G 3
  20925045.061      859944.46149    668262.59047  20925044.753    20925048.459
  20364449.781    -6451109.07749  -5020104.99747  20364449.265    20364454.529
  23274642.372    -9667239.47649  -7507600.66945  23274642.001    23274652.009
  23513609.467     8159888.06749   6346245.36345  23513609.686    23513615.447
  20775879.422    -2184100.69849  -1697901.24347  20775879.078    20775884.306
  24034049.278    13237139.41549  10294911.63145  24034049.225    24034062.314
  20425349.844    -2515445.92849  -1951055.64448  20425349.575    20425353.466
  21229869.801     1735051.56149   1311468.98947  21229869.387    21229875.358
  24316037.040     5625551.73449   4379676.97845  24316037.157    24316048.559
  22548502.010   -10436195.69849  -8116616.78546  22548502.037    22548508.257
 03  4 22 22 16 30.0000000  0 10G21G15G14G26G23G 6G18G17G16G 3
  20931175.408      892159.31149    693365.06747  20931175.049    20931178.782
  20360372.630    -6472534.79749  -5036800.35547  20360372.118    20360377.334
  23253956.756    -9775941.79849  -7592303.45345  23253956.302    23253966.134
  23531947.531     8256255.05349   6421336.48345  23531947.752    23531953.597
  20778877.001    -2168348.38949  -1685626.70547  20778876.643    20778881.878
  24055073.874    13347623.75049  10381002.90045  24055074.078    24055087.399
  20428505.835    -2498861.11349  -1938132.40748  20428505.550    20428509.449
  21236563.503     1770226.96749   1338878.39647  21236563.063    21236568.932
  24328823.584     5692745.76949   4432035.64745  24328823.705    24328835.566
  22535878.814   -10502530.65849  -8168306.33846  22535878.806    22535885.141
 03  4 22 22 17  0.0000000  0 10G21G15G14G26G23G 6G18G17G16G 3
  20937362.139      924671.52749    718699.23547  20937361.806    20937365.670
  20356348.491    -6493681.92049  -5053278.61647  20356347.944    20356353.198
  23233302.099    -9884481.14149  -7676879.25645  23233301.701    23233311.469
  23550351.542     8352970.49049   6496699.08345  23550351.951    23550358.036
  20781927.345    -2152318.32949  -1673135.74447  20781927.011    20781932.287
  24076117.721    13458207.94749  10467171.97745  24076117.880    24076130.970
  20431724.434    -2481947.56949  -1924953.02348  20431724.122    20431728.002
  21243309.614     1805678.03649   1366502.58547  21243309.173    21243315.116
  24341645.486     5760123.45949   4484537.42245  24341645.568    24341657.351
  22523336.833   -10568438.54649  -8219663.10246  22523336.828    22523343.312
 03  4 22 22 17 30.0000000  0 10G21G15G14G26G23G 6G18G17G16G 3
  20943605.788      957481.60849    744265.53347  20943605.384    20943609.288
  20352377.512    -6514549.14949  -5069538.78047  20352376.983    20352382.292
  23212678.862    -9992854.52449  -7761325.76045  23212678.647    23212688.305
  23568821.797     8450031.52949   6572331.01145  23568822.114    23568828.259
  20785030.525    -2136011.81749  -1660429.35647  20785030.123    20785035.324
  24097180.240    13568889.68249  10553417.11945  24097180.278    24097193.442
  20435005.341    -2464706.52049  -1911518.42948  20435005.000    20435008.860
  21250108.310     1841405.21549   1394341.94647  21250107.876    21250113.696
  24354502.165     5827682.00649   4537180.15045  24354502.109    24354513.363
  22510876.568   -10633917.09049  -8270685.31946  22510876.625    22510883.172
 03  4 22 22 18  0.0000000  0 10G21G15G14G26G23G 6G18G17G16G 3
  20949905.869      990588.97349    770063.46047  20949905.502    20949909.386
  20348459.814    -6535136.48649  -5085580.85547  20348459.325    20348464.666
  23192087.853   -10101060.42249  -7845641.73645  23192087.512    23192097.145
  23587357.057     8547433.97549   6648228.99145  23587357.212    23587363.381
  20788185.739    -2119431.23249  -1647509.41147  20788185.329    20788190.474
  24118260.926    13679665.46949  10639735.45645  24118260.734    24118274.000
  20438347.972    -2447140.56049  -1897830.66848  20438347.666    20438351.549
  21256959.529     1877408.52849   1422396.45747  21256959.064    21256964.818
  24367392.187     5895417.08049   4589960.43345  24367391.715    24367403.302
  22498498.578   -10698964.96749  -8321371.94346  22498498.494    22498504.929
 03  4 22 22 18 30.0000000  0 10G21G15G14G26G23G 6G18G17G16G 3
  20956262.623     1023994.18549    796093.49047  20956262.281    20956266.093
  20344595.646    -6555442.48349  -5101403.69447  20344595.120    20344600.458
  23171529.178   -10209095.73449  -7929824.80846  23171528.945    23171538.445
  23605956.759     8645175.08949   6724390.84645  23605956.847    23605962.813
  20791392.751    -2102577.97949  -1634376.98747  20791392.339    20791397.534
  24139358.785    13790533.05149  10726125.43045  24139358.580    24139371.846
  20441752.294    -2429250.79949  -1883890.58348  20441751.970    20441755.897
  21263863.409     1913688.28849   1450666.39247  21263862.954    21263868.661
  24380315.207     5963326.10849   4642876.26345  24380314.689    24380326.364
  22486202.825   -10763579.97149  -8371721.25846  22486202.715    22486209.021
 03  4 22 22 19  0.0000000  0 10G21G15G14G26G23G 6G18G17G16G 3
  20962676.436     1057698.87849    822356.87547  20962676.021    20962679.932
  20340785.502    -6575464.89449  -5117005.56247  20340784.957    20340790.281
  23151003.769   -10316957.04849  -8013872.31146  23151003.534    23151012.853
  23624620.174     8743252.76649   6800814.94845  23624620.435    23624626.497
  20794651.617    -2085452.35749  -1621032.33647  20794651.242    20794656.445
  24160473.735    13901491.03849  10812585.74445  24160473.651    24160487.097
  20445218.200    -2411037.48749  -1869698.38748  20445217.880    20445221.807
  21270820.022     1950246.25149   1479153.10547  21270819.628    21270825.475
  24393270.843     6031406.91449   4695925.92745  24393270.190    24393282.088
  22473989.838   -10827759.00549  -8421730.84746  22473989.890    22473996.084
 03  4 22 22 19 30.0000000  0 10G21G15G14G26G23G 6G18G17G16G 3
  20969147.279     1091703.63749    848854.07247  20969146.932    20969150.868
  20337029.628    -6595202.56349  -5132385.55647  20337029.048    20337034.364
  23130511.990   -10424640.99349  -8097781.59946  23130511.820    23130520.944
  23643347.077     8841664.15949   6877499.10345  23643347.362    23643353.615
  20797962.189    -2068055.48649  -1607476.32247  20797961.781    20797966.993
  24181605.459    14012537.28549  10899114.87945  24181605.392    24181618.846
  20448745.552    -2392501.31949  -1855254.61748  20448745.218    20448749.100
  21277829.799     1987083.24649   1507857.23647  21277829.375    21277835.230
  24406258.730     6099656.97349   4749107.46045  24406258.009    24406270.009
  22461860.469   -10891499.60549  -8471398.80346  22461860.457    22461866.532
 03  4 22 22 20  0.0000000  0 10G21G15G14G26G23G 6G18G17G16G 3
  20975675.163     1126008.25049    875584.93147  20975674.872    20975678.855
  20333327.895    -6614654.73249  -5147543.08047  20333327.390    20333332.689
  23110054.400   -10532145.39749  -8181550.97946  23110054.213    23110063.277
  23662136.885     8940405.81049   6954440.58745  23662137.192    23662143.673
  20801323.964    -2050389.21849  -1593710.38747  20801323.543    20801328.761
  24202753.632    14123668.90849  10985710.50545  24202753.431    24202766.930
  20452333.954    -2373644.45249  -1840560.94748  20452333.574    20452337.386
  21284892.807     2024199.27949   1536778.81747  21284892.366    21284898.200
  24419277.810     6168072.59249   4802417.98745  24419277.156    24419289.186
  22449814.645   -10954800.35349  -8520724.02746  22449814.607    22449820.700
 03  4 22 22 20 30.0000000  0 10G21G15G14G26G23G 6G18G17G16G 3
  20982260.467     1160613.51349    902550.05847  20982260.133    20982263.995
  20329680.907    -6633820.16249  -5162477.16848  20329680.355    20329685.678
  23089631.507   -10639467.65949  -8265178.42846  23089631.261    23089640.257
  23680988.997     9039474.67649   7031637.00945  23680989.443    23680995.819
  20804736.675    -2032455.07249  -1579735.71247  20804736.251    20804741.497
  24223917.547    14234883.44849  11072370.75345  24223917.340    24223930.785
  20455982.968    -2354468.24549  -1825618.44148  20455982.638    20455986.429
  21292008.928     2061594.46149   1565917.91547  21292008.470    21292014.437
  24432327.986     6236650.82449   4855855.23945  24432327.422    24432339.345
  22437853.006   -11017658.85749  -8569704.63846  22437852.988    22437859.096
 03  4 22 22 21  0.0000000  0 10G21G15G14G26G23G 6G18G17G16G 3
  20988902.986     1195519.29049    929749.36047  20988902.595    20988906.337
  20326088.553    -6652698.05549  -5177187.20148  20326087.972    20326093.391
  23069243.644   -10746605.36849  -8348662.08046  23069243.456    23069252.319
  23699902.967     9138867.34449   7109085.79345  23699903.348    23699909.548
  20808200.061    -2014254.68649  -1565553.58547  20808199.673    20808204.901
  24245096.480    14346178.31349  11159093.62045  24245096.259    24245109.849
  20459692.504    -2334974.23049  -1810428.28948  20459692.180    20459696.021
  21299178.030     2099269.54749   1595275.09447  21299177.715    21299183.834
  24445408.649     6305388.40449   4909416.64145  24445408.145    24445420.066
  22425975.942   -11080073.35449  -8618339.27046  22425975.920    22425982.037
 03  4 22 22 21 30.0000000  0 10G21G15G14G26G23G 6G18G17G16G 3
  20995602.599     1230726.05649    957183.19747  20995602.227    20995605.980
  20322551.101    -6671287.28749  -5191672.30547  20322550.551    20322555.940
  23048891.363   -10853555.42049  -8431999.50846  23048891.275    23048900.067
  23718878.136     9238580.74549   7186784.47745  23718878.352    23718884.326
  20811713.872    -1995789.53249  -1551165.13947  20811713.471    20811718.700
  24266289.929    14457551.17549  11245877.23745  24266289.846    24266303.807
  20463462.280    -2315163.73049  -1794991.53448  20463461.990    20463465.806
  21306400.988     2137225.05249   1624850.80347  21306400.486    21306406.539
  24458518.865     6374282.12149   4963099.73745  24458518.579    24458530.571
  22414183.872   -11142041.69249  -8666626.23946  22414183.723    22414189.853
 03  4 22 22 22  0.0000000  0 10G21G15G14G26G23G 6G18G17G16G 3
  21002359.629     1266233.96949    984851.69147  21002359.199    21002362.849
  20319068.765    -6689587.23149  -5205931.99048  20319068.252    20319073.561
  23028575.444   -10960315.70549  -8515189.08046  23028575.280    23028583.965
  23737913.635     9338611.57649   7264730.50745  23737913.724    23737919.646
  20815277.708    -1977061.36549  -1536571.74847  20815277.343    20815282.537
  24287498.099    14568999.25449  11332719.43545  24287498.004    24287512.127
  20467292.006    -2295038.26649  -1779309.34348  20467291.739    20467295.502
  21313676.927     2175460.93449   1654644.97347  21313676.519    21313682.772
  24471658.145     6443328.86349   5016902.02645  24471658.073    24471670.169
  22402476.753   -11203562.37249  -8714564.38646  22402476.679    22402482.871
 03  4 22 22 22 30.0000000  0 10G21G15G14G26G23G 6G18G17G16G 3
  21009174.135     1302044.03849   1012755.62947  21009173.682    21009177.392
  20315641.916    -6707596.10749  -5219964.87148  20315641.354    20315646.641
  23008296.098   -11066882.70049  -8598228.01546  23008295.959    23008304.676
  23757009.007     9438957.29649   7342921.92645  23757009.035    23757014.808
  20818891.462    -1958070.96949  -1521774.02547  20818891.072    20818896.269
  24308720.037    14680520.69349  11419618.83445  24308720.103    24308734.352
  20471181.584    -2274598.51949  -1763382.25948  20471181.306    20471185.077
  21321006.689     2213978.56249   1684658.68647  21321006.264    21321012.351
  24484826.547     6512526.33149   5070821.75345  24484826.237    24484838.357
  22390855.420   -11264632.69149  -8762151.60146  22390855.343    22390861.637
 03  4 22 22 23  0.0000000  0 10G21G15G14G26G23G 6G18G17G16G 3
  21016046.228     1338156.76349   1040895.41447  21016045.744    21016049.400
  20312270.506    -6725312.49049  -5233769.83548  20312269.958    20312275.289
  22988054.149   -11173253.59549  -8681114.15746  22988053.952    22988062.632
  23776163.595     9539615.19049   7421356.61145  23776163.544    23776169.407
  20822554.763    -1938819.63049  -1506772.97547  20822554.416    20822559.658
  24329955.642    14792113.27849  11506573.65645  24329955.911    24329970.223
  20475130.705    -2253845.92749  -1747211.40048  20475130.412    20475134.215
  21328390.113     2252778.33249   1714892.24847  21328389.663    21328395.791
  24498022.485     6581871.53649   5124856.63745  24498022.292    24498034.572
  22379320.121   -11325250.32449  -8809386.08246  22379320.189    22379326.535
 03  4 22 22 23 30.0000000  0 11G21G15G14G26G23G 6G18G17G16G 3G31
  21022975.812     1374571.96849   1069270.88347  21022975.357    21022979.035
  20308954.893    -6742735.83449  -5247346.45748  20308954.423    20308959.719
  22967849.718   -11279426.47149  -8763845.98846  22967849.559    22967858.258
  23795376.939     9640581.26549   7500031.39945  23795376.904    23795382.660
  20826267.419    -1919309.50849  -1491570.28347  20826267.075    20826272.293
  24351204.366    14903774.02749  11593581.56745  24351204.661    24351219.147
  20479138.937    -2232782.32149  -1730798.19748  20479138.657    20479142.523
  21335827.245     2291860.35949   1745345.77347  21335826.794    21335832.719
  24511246.095     6651360.89949   5179003.80144  24511245.827    24511258.215
  22367871.628   -11385414.08749  -8856266.90346  22367871.545    22367877.814
                  -1345678.65449  -1034575.67644                  24367819.942
 03  4 22 22 24  0.0000000  0 11G21G15G14G26G23G 6G18G17G16G 3G31
  21029963.035     1411290.26649   1097882.52947  21029962.580    21029966.305
  20305695.310    -6759865.17749  -5260693.97348  20305694.790    20305700.108
  22947683.814   -11385398.20049  -8846421.08546  22947683.570    22947692.170
  23814648.540     9741852.85849   7578944.24645  23814648.491    23814654.227
  20830029.203    -1899541.80849  -1476166.86747  20830028.781    20830033.962
  24372465.788    15015500.63349  11680640.83445  24372465.912    24372480.518
  20483206.188    -2211408.75949  -1714143.45948  20483205.902    20483209.756
  21343318.343     2331225.32449   1776019.71847  21343317.779    21343323.829
  24524496.463     6720991.38049   5233260.94644  24524496.283    24524508.880
  22356509.817   -11445121.71649  -8902792.29646  22356509.610    22356515.789
  24349785.788    -1440405.09349  -1108388.41045  24349785.894    24349793.833
 03  4 22 22 24 30.0000000  0 11G21G15G14G26G23G 6G18G17G16G 3G31
  21037007.909     1448311.24549   1126730.03547  21037007.473    21037011.085
  20302491.804    -6776699.71749  -5273811.79348  20302491.268    20302496.581
  22927556.346   -11491166.62649  -8928837.76346  22927556.313    22927564.834
  23833977.449     9843426.28849   7658092.29245  23833977.430    23833983.206
  20833839.536    -1879518.47649  -1460564.26247  20833839.103    20833844.303
  24393739.009    15127290.30149  11767749.20545  24393739.105    24393753.892
  20487331.984    -2189727.29249  -1697248.80648  20487331.716    20487335.568
  21350862.957     2370873.04049   1806914.04747  21350862.466    21350868.344
  24537773.283     6790759.46349   5287625.32044  24537773.252    24537785.814
  22345234.872   -11504371.91749  -8948961.24346  22345234.596    22345240.821
  24331811.331    -1534863.81149  -1181992.52645  24331811.358    24331818.686
 03  4 22 22 25  0.0000000  0 11G21G15G14G26G23G 6G18G17G16G 3G31
  21044110.599     1485636.25649   1155814.45647  21044110.186    21044113.695
  20299344.772    -6793237.71549  -5286698.52648  20299344.236    20299349.479
  22907468.470   -11596728.32049  -9011093.34346  22907468.390    22907476.801
  23853363.224     9945299.23649   7737473.75045  23853363.250    23853368.899
  20837698.356    -1859240.29549  -1444763.07347  20837697.942    20837703.093
  24415023.674    15239141.33749  11854905.38245  24415023.920    24415038.672
  20491516.371    -2167738.16049  -1680114.40748  20491516.129    20491520.010
  21358461.617     2410804.78849   1838029.66247  21358461.225    21358467.227
  24551076.194     6860663.11349   5342095.33444  24551076.124    24551088.718
  22334047.480   -11563161.83949  -8994771.54346  22334047.201    22334053.380
  24313888.497    -1629051.37849  -1255385.36945  24313888.755    24313895.681
 03  4 22 22 25 30.0000000  0 11G21G15G14G26G23G 6G18G17G16G 3G31
  21051271.133     1523265.82949   1185136.18547  21051270.729    21051274.478
  20296254.359    -6809477.85649  -5299353.16948  20296253.826    20296259.074
  22887420.599   -11702080.58049  -9093185.72946  22887420.379    22887428.692
  23872805.388    10047468.67349   7817086.23645  23872805.471    23872811.391
  20841605.373    -1838708.61749  -1428764.35247  20841604.957    20841610.100
  24436319.886    15351051.14149  11942107.34145  24436320.056    24436334.715
  20495758.989    -2145443.15249  -1662741.66648  20495758.721    20495762.597
  21366114.505     2451021.11449   1869367.03947  21366114.007    21366119.955
  24564403.639     6930699.11249   5396668.52544  24564403.506    24564416.369
  22322948.154   -11621489.25749  -9040221.44246  22322947.825    22322953.987
  24296017.341    -1722965.14949  -1328564.85545  24296017.138    24296024.519
 03  4 22 22 26  0.0000000  0 11G21G15G14G26G23G 6G18G17G16G 3G31
  21058489.843     1561200.60349   1214695.72847  21058489.421    21058493.250
  20293220.945    -6825418.46449  -5311774.40048  20293220.436    20293225.676
  22867412.957   -11807220.19249  -9175112.42846  22867412.770    22867421.030
  23892303.540    10149931.94049   7896927.66145  23892303.702    23892309.586
  20845560.356    -1817924.45749  -1412568.89747  20845560.009    20845565.140
  24457626.983    15463017.69049  12029353.52345  24457627.026    24457641.570
  20500059.718    -2122842.73949  -1645130.94648  20500059.424    20500063.253
  21373821.761     2491522.35849   1900926.43447  21373821.252    21373827.262
  24577755.659     7000864.92949   5451342.82644  24577755.723    24577768.563
  22311937.281   -11679351.83749  -9085309.14946  22311936.908    22311943.038
  24278198.909    -1816602.09649  -1401528.64045  24278198.582    24278206.110
 03  4 22 22 26 30.0000000  0 11G21G15G14G26G23G 6G18G17G16G 3G31
  21065766.719     1599440.93449   1244493.38847  21065766.344    21065770.042
  20290244.859    -6841058.45249  -5323961.38748  20290244.286    20290249.481
  22847446.386   -11912144.43449  -9256871.30646  22847446.133    22847454.331
  23911857.012    10252685.88149   7976995.58245  23911857.165    23911863.240
  20849563.248    -1796889.22449  -1396177.79747  20849562.888    20849568.017
  24478944.159    15575038.73549  12116642.17445  24478944.269    24478958.802
  20504418.261    -2099938.53749  -1627283.50648  20504417.957    20504421.789
  21381583.127     2532309.86949   1932708.88447  21381582.768    21381588.828
  24591132.261     7071157.59949   5506116.01644  24591132.392    24591145.269
  22301014.987   -11736747.67849  -9130033.14946  22301014.799    22301020.955
  24260433.605    -1909959.57249  -1474274.67545  24260433.391    24260440.704
 03  4 22 22 27  0.0000000  0 11G21G15G14G26G23G 6G18G17G16G 3G31
  21073101.724     1637986.46449   1274528.85047  21073101.335    21073104.981
  20287325.900    -6856397.28049  -5335913.70448  20287325.357    20287330.598
  22827521.113   -12016851.29349  -9338460.78546  22827520.807    22827528.999
  23931465.082    10355726.96249   8057287.27645  23931465.221    23931471.430
  20853613.532    -1775604.86049  -1379592.56647  20853613.164    20853618.270
  24500271.367    15687111.24649  12203970.91345  24500271.394    24500286.015
  20508834.201    -2076732.51849  -1609200.88348  20508833.910    20508837.714
  21389399.231     2573383.30549   1964714.12747  21389398.758    21389404.997
  24604532.470     7141573.38949   5560985.09344  24604532.535    24604545.695
  22290181.989   -11793675.48249  -9174392.44346  22290181.768    22290187.916
  24242721.926    -2003035.47149  -1546801.27845  24242721.643    24242728.864
 03  4 22 22 27 30.0000000  0 11G21G15G14G26G23G 6G18G17G16G 3G31
  21080495.125     1676837.98849   1304802.77047  21080494.627    21080498.103
  20284464.547    -6871433.70449  -5347630.38748  20284464.008    20284469.237
  22807637.850   -12121337.84849  -9419878.62546  22807637.471    22807645.564
  23951127.137    10459052.34149   8137800.48045  23951127.409    23951133.743
  20857710.971    -1754072.78049  -1362814.31647  20857710.568    20857715.704
  24521608.096    15799233.28249  12291338.22745  24521607.952    24521622.611
  20513307.404    -2053225.74949  -1590883.91248  20513307.113    20513310.918
  21397269.649     2614742.84749   1996942.34547  21397269.289    21397275.371
  24617955.477     7212109.55949   5615947.98244  24617955.325    24617968.233
  22279438.328   -11850133.13749  -9218385.38546  22279438.186    22279444.302
  24225064.492    -2095826.92649  -1619106.25045  24225064.177    24225071.237
 03  4 22 22 28  0.0000000  0 11G21G15G14G26G23G 6G18G17G16G 3G31
  21087946.431     1715995.54449   1335315.13347  21087945.999    21087949.663
  20281660.864    -6886167.02849  -5359110.88948  20281660.339    20281665.558
  22787796.843   -12225601.48949  -9501122.76546  22787796.657    22787804.682
  23970842.853    10562658.68749   8218532.59445  23970843.160    23970849.443
  20861855.158    -1732294.49649  -1345844.21847  20861854.769    20861859.967
  24542953.663    15911401.95949  12378741.87745  24542953.426    24542968.228
  20517837.433    -2029419.77849  -1572333.80148  20517837.177    20517841.027
  21405194.741     2656389.08249   2029393.89147  21405194.342    21405200.612
  24631400.014     7282762.84249   5671002.14444  24631400.177    24631413.259
  22268784.689   -11906118.95849  -9262010.67046  22268784.441    22268790.517
  24207461.356    -2188331.72249  -1691187.83245  24207461.014    24207467.939
 03  4 22 22 28 30.0000000  0 10G21G15G14G26G23G18G17G16G 3G31
  21095457.243     1755465.66549   1366071.05847  21095456.899    21095460.609
  20278916.229    -6900589.75849  -5370349.36548  20278915.699    20278920.960
  22768000.141   -12329633.51249  -9582186.41346  22767999.842    22768007.815
  23990612.444    10666549.12849   8299486.10145  23990612.714    23990619.158
  20866047.167    -1710265.35049  -1328678.63847  20866046.786    20866051.955
  20522425.401    -2005309.78449  -1553546.78248  20522425.171    20522429.070
  21413175.721     2698328.61949   2062074.05047  21413175.287    21413181.353
  24644868.040     7353536.38449   5726149.97144  24644867.913    24644881.416
  22258222.146   -11961624.97549  -9305262.06246  22258221.953    22258228.095
  24189914.598    -2280540.95649  -1763039.13445  24189914.041    24189921.039
 03  4 22 22 29  0.0000000  0 10G21G15G14G26G23G18G17G16G 3G31
  21103026.292     1795240.22449   1397064.21947  21103025.819    21103029.569
  20276229.424    -6914709.10149  -5381351.43748  20276228.899    20276234.112
  22748246.228   -12433439.58549  -9663073.99946  22748245.997    22748253.971
  24010434.116    10770712.08649   8380651.95645  24010434.242    24010440.848
  20870285.054    -1687995.21149  -1311325.27047  20870284.673    20870289.756
  20527069.342    -1980905.55849  -1534530.49348  20527069.116    20527073.079
  21421210.805     2740553.49749   2094976.53847  21421210.345    21421216.538
  24658356.671     7424418.79849   5781382.63244  24658356.723    24658370.106
  22247749.612   -12016657.76049  -9348144.72146  22247749.524    22247755.626
  24172422.857    -2372460.47149  -1834664.66645  24172422.031    24172429.217
 03  4 22 22 29 30.0000000  0 10G21G15G14G26G23G18G17G16G 3G31
  21110653.229     1835320.69249   1428295.73847  21110652.819    21110656.564
  20273600.780    -6928522.79649  -5392115.34848  20273600.268    20273605.419
  22728536.201   -12537015.83849  -9743782.51846  22728535.843    22728543.758
  24030307.204    10875145.71849   8462028.74645  24030307.354    24030313.870
  20874568.702    -1665484.35349  -1293784.33347  20874568.327    20874573.457
  20531769.294    -1956207.46049  -1515285.22348  20531769.032    20531772.931
  21429300.530     2783065.65949   2128102.86847  21429300.064    21429306.326
  24671866.338     7495408.26849   5836698.70544  24671866.034    24671879.232
  22237367.693   -12071214.26549  -9390656.25946  22237367.711    22237373.754
  24154986.663    -2464086.40149  -1906061.40845  24154986.011    24154993.282
 03  4 22 22 30  0.0000000  0  9G21G15G14G26G23G18G17G 3G31
  21118339.376     1875711.42949   1459769.03047  21118338.978    21118342.701
  20271031.329    -6942025.74849  -5402637.11248  20271030.777    20271035.873
  22708871.071   -12640355.48949  -9824306.68246  22708870.767    22708878.583
  24050231.877    10979850.93049   8543617.12045  24050232.121    24050238.671
  20878898.709    -1642730.14049  -1276053.76347  20878898.320    20878903.506
  20536525.692    -1931212.46549  -1495808.59648  20536525.399    20536529.239
  21437445.885     2825869.15349   2161456.22147  21437445.445    21437451.660
  22227077.657   -12125288.63649  -9432792.08946  22227077.625    22227083.718
  24137608.055    -2555412.09649  -1977224.23345  24137607.322    24137614.579
 03  4 22 22 30 30.0000000  0  9G21G15G14G26G23G18G17G 3G31
  21126084.578     1916412.69049   1491484.29147  21126084.166    21126087.917
  20268521.129    -6955216.63149  -5412915.71148  20268520.595    20268525.706
  22689251.556   -12743456.12249  -9904644.58246  22689251.199    22689258.893
  24070207.879    11084824.85549   8625414.91945  24070208.042    24070214.216
  20883274.755    -1619733.97049  -1258134.66347  20883274.340    20883279.516
  20541338.319    -1905922.15049  -1476101.85148  20541338.048    20541341.811
  21445646.588     2868964.19949   2195036.76847  21445646.178    21445652.303
  22216879.875   -12178879.03749  -9474550.80146  22216879.694    22216885.763
  24120286.933    -2646435.08349  -2048151.16545  24120286.074    24120293.362
 03  4 22 22 31  0.0000000  0  9G21G15G14G26G23G18G17G 3G31
  21133887.715     1957418.37149   1523436.75947  21133887.324    21133891.017
  20266069.352    -6968100.74649  -5422955.26448  20266068.812    20266073.940
  22669676.855   -12846321.32349  -9984799.04046  22669676.390    22669684.050
  24090233.410    11190057.82049   8707414.54545  24090233.268    24090239.171
  20887695.307    -1596503.74949  -1240033.18947  20887694.890    20887700.041
  20546205.666    -1880344.10449  -1456170.89648  20546205.388    20546209.136
  21453901.775     2912345.00749   2228839.98447  21453901.303    21453907.445
  22206773.300   -12231990.04949  -9515935.97247  22206773.051    22206779.007
  24103022.715    -2737159.07149  -2118845.10445  24103021.945    24103029.347
 03  4 22 22 31 30.0000000  0  9G21G15G14G26G23G18G17G 3G31
  21141749.221     1998730.98649   1555628.38847  21141748.822    21141752.663
  20263676.507    -6980675.18649  -5432753.50748  20263675.949    20263681.125
  22650147.570   -12948946.37649 -10064766.38046  22650147.320    22650154.980
  24110307.917    11295548.85149   8789615.29545  24110307.650    24110313.618
  20892160.412    -1573038.84249  -1221748.82547  20892160.059    20892165.218
  20551127.821    -1854477.76849  -1436015.29948  20551127.531    20551131.305
  21462211.692     2956013.93349   2262867.69447  21462211.299    21462217.331
  22196758.543   -12284617.75449  -9556944.53347  22196758.334    22196764.209
  24085816.255    -2827579.38149  -2189302.44545  24085815.447    24085822.833
 03  4 22 22 32  0.0000000  0  9G21G15G14G26G23G18G17G 3G31
  21149669.127     2040350.97749   1588059.52347  21149668.819    21149672.708
  20261342.776    -6992938.60649  -5442309.41648  20261342.235    20261347.460
  22630664.712   -13051328.33749 -10144544.30946  22630664.527    22630672.127
  24130430.901    11401295.08149   8872014.86445  24130430.650    24130436.738
  20896670.090    -1549340.35249  -1203282.46347  20896669.757    20896674.883
  20556104.544    -1828324.42049  -1415636.06448  20556104.315    20556108.084
  21470576.779     2999971.84549   2297120.58447  21470576.229    21470582.350
  22186836.179   -12336760.18249  -9597574.97447  22186835.923    22186841.824
  24068668.380    -2917693.27249  -2259521.00045  24068667.378    24068674.606
 03  4 22 22 32 30.0000000  0  9G21G15G14G26G23G18G17G 3G31
  21157648.087     2082279.77949   1620731.30447  21157647.626    21157651.561
  20259068.765    -7004888.64649  -5451621.12048  20259068.239    20259073.426
  22611228.998   -13153463.41149 -10224129.86946  22611228.752    22611236.213
  24150602.248    11507294.75249   8954611.94044  24150601.906    24150607.722
  20901224.197    -1525408.40849  -1184634.17947  20901223.884    20901228.940
  20561136.029    -1801884.13649  -1395033.24248  20561135.762    20561139.461
  21478996.965     3044220.48949   2331600.03647  21478996.570    21479002.498
  22177006.585   -12388414.40549  -9637824.97847  22177006.358    22177012.370
  24051579.069    -3007496.79449  -2329497.67945  24051578.389    24051585.410
 03  4 22 22 33  0.0000000  0  9G21G15G14G26G23G18G17G 3G31
  21165685.688     2124517.54149   1653643.84147  21165685.311    21165689.162
  20256854.617    -7016524.24149  -5460687.80848  20256854.042    20256859.243
  22591840.776   -13255348.80749 -10303520.86446  22591840.514    22591847.836
  24170821.032    11613544.60449   9037403.97444  24170820.871    24170826.433
  20905822.388    -1501244.84249  -1165805.41347  20905822.031    20905827.085
  20566221.809    -1775158.27749  -1374207.89348  20566221.541    20566225.221
  21487472.578     3088760.10949   2366306.21147  21487472.182    21487478.040
  22167270.106   -12439578.91749  -9677693.40047  22167270.018    22167276.139
  24034549.604    -3096987.69249  -2399230.77345  24034548.769    24034555.598
 03  4 22 22 33 30.0000000  0  9G21G15G14G26G23G18G17G 3G31
  21173782.107     2167065.24949   1686797.85947  21173781.795    21173785.769
  20254700.597    -7027843.69749  -5469508.15048  20254700.043    20254705.239
  22572500.567   -13356981.78149 -10382715.18346  22572500.294    22572507.485
  24191086.554    11720042.28348   9120389.08044  24191086.480    24191092.152
  20910464.533    -1476850.47149  -1146796.79847  20910464.157    20910469.191
  20571361.762    -1748147.57049  -1353160.57548  20571361.463    20571365.242
  21496003.726     3133591.38249   2401239.63947  21496003.227    21496009.326
  22157627.459   -12490251.40749  -9717178.41347  22157627.304    22157633.414
  24017579.882    -3186162.63649  -2468717.64045  24017579.046    24017585.935
 03  4 22 22 34  0.0000000  0  9G21G15G14G26G23G18G17G 3G31
  21181937.942     2209923.51349   1720193.89847  21181937.580    21181941.420
  20252607.028    -7038845.64549  -5478081.08648  20252606.422    20252611.648
  22553209.156   -13458358.92149 -10461710.15946  22553208.749    22553215.776
  24211398.757    11826784.97648   9203565.15444  24211398.935    24211404.635
  20915150.392    -1452226.25749  -1127609.09047  20915150.003    20915155.035
  20576555.653    -1720853.17549  -1331892.21448  20576555.407    20576559.230
  21504590.436     3178715.38849   2436401.21547  21504590.012    21504595.908
  22148078.852   -12540429.48249  -9756278.18347  22148078.685    22148084.775
  24000670.830    -3275018.61449  -2537955.98945  24000670.302    24000677.282
 03  4 22 22 34 30.0000000  0  9G21G15G14G26G23G18G17G 3G31
  21190152.627     2253091.66349   1753831.40247  21190152.223    21190156.041
  20250573.760    -7049529.92149  -5486406.48348  20250573.250    20250578.417
  22533966.562   -13559478.56949 -10540504.50046  22533966.080    22533973.112
  24231756.936    11933768.83748   9286929.14044  24231757.553    24231762.922
  20919879.448    -1427374.51649  -1108244.08347  20919879.079    20919884.123
  20581803.202    -1693277.18749  -1310404.42948  20581802.924    20581806.814
  21513232.858     3224131.34649   2471790.22947  21513232.419    21513238.599
  22138624.491   -12590112.64649  -9794992.29747  22138624.229    22138630.268
  23983823.047    -3363553.96749  -2606944.50945  23983822.715    23983829.664
 03  4 22 22 35  0.0000000  0  9G21G15G14G26G23G18G17G 3G31
  21198426.350     2296570.07449   1787710.66447  21198425.905    21198429.710
  20248601.382    -7059895.18049  -5494483.29348  20248600.845    20248605.952
  22514773.432   -13660338.06049 -10619096.10446  22514772.947    22514780.091
  24252160.644    12040990.88258   9370478.67844                  24252162.065
  20924651.581    -1402296.75149  -1088702.95347  20924651.215    20924656.243
  20587104.013    -1665420.96349  -1288698.27348  20587103.775    20587107.656
  21521931.030     3269839.36949   2507406.86547  21521930.587    21521936.580
  22129264.554   -12639299.10449  -9833319.36547  22129264.309    22129270.287
  23967036.846    -3451766.22349  -2675681.24645  23967036.516    23967043.410
 03  4 22 22 35 30.0000000  0  9G21G15G14G26G23G18G17G 3G31
  21206759.034     2340358.98449   1821831.86447  21206758.627    21206762.472
  20246689.862    -7069940.19949  -5502310.56448  20246689.319    20246694.414
  22495630.487   -13760934.69049 -10697482.89146  22495629.870    22495637.055
  24272609.231    12148448.07558   9454211.46144                  24272609.805
  20929466.527    -1376994.21149  -1068986.67647  20929466.132    20929471.150
  20592457.961    -1637285.88949  -1266774.82748  20592457.688    20592461.555
  21530684.754     3315840.25249   2543251.68247  21530684.277    21530690.380
  22119999.355   -12687987.09749  -9871258.02447  22119999.233    22120005.254
  23950312.321    -3539652.69749  -2744164.13745  23950312.135    23950319.025
 03  4 22 22 36  0.0000000  0  9G21G15G14G26G23G18G17G 3G31
  21215150.920     2384458.95549   1856195.46547  21215150.577    21215154.377
  20244839.496    -7079663.70049  -5509887.30048  20244839.000    20244844.064
  22476537.816   -13861265.68349 -10775662.70546  22476537.397    22476544.506
                  12256137.67758   9538125.27144
  20934323.942    -1351467.93049  -1049096.05547  20934323.560    20934328.580
  20597864.876    -1608872.95749  -1244634.86648  20597864.535    20597868.364
  21539494.333     3362134.96049   2579325.46247  21539493.829    21539499.810
  22110829.536   -12736174.67549  -9908806.75647  22110829.521    22110835.477
  23933650.563    -3627210.38449  -2812390.85145  23933650.299    23933657.301
 03  4 22 22 36 30.0000000  0  8G21G15G14G23G18G17G 3G31
  21223602.413     2428871.41649   1890802.56547  21223601.986    21223605.764
  20243050.799    -7089063.22749  -5517211.59148  20243050.318    20243055.414
  22457496.820   -13961327.06949 -10853632.42146  22457496.209    22457503.235
  20939223.949    -1325718.09149  -1029031.23847  20939223.607    20939228.592
  20603324.495    -1580182.42849  -1222278.60348  20603324.136    20603327.984
  21548359.933     3408724.47749   2615628.96447  21548359.511    21548365.542
  22101755.679   -12783859.14749  -9945963.44847  22101755.463    22101761.336
  23917051.998    -3714435.63049  -2880358.49745  23917051.779    23917058.649
 03  4 22 22 37  0.0000000  0  8G21G15G14G23G18G17G 3G31
  21232113.888     2473600.31149   1925656.22847  21232113.583    21232117.487
  20241324.670    -7098134.03149  -5524279.73148  20241324.163    20241329.317
  22438508.020   -14061112.51849 -10931387.14246  22438507.525    22438514.370
  20944167.019    -1299742.39649  -1008790.42647  20944166.645    20944171.668
  20608837.388    -1551211.90849  -1199704.16448  20608837.049    20608840.896
  21557282.516     3455613.14049   2652165.56247  21557282.074    21557288.186
  22092778.302   -12831035.01949  -9982723.84147  22092778.208    22092784.048
  23900518.158    -3801322.07649  -2948062.16145  23900517.876    23900524.654
 03  4 22 22 37 30.0000000  0  8G21G15G14G23G18G17G 3G31
  21240684.367     2518637.79849   1960750.36447  21240684.011    21240687.871
  20239659.760    -7106883.05049  -5531097.13148  20239659.285    20239664.407
  22419570.844   -14160627.36049 -11008930.99846  22419570.375    22419577.071
  20949151.210    -1273550.37849   -988381.04747  20949150.795    20949155.856
  20614401.757    -1521970.73149  -1176918.82248  20614401.447    20614405.258
  21566260.645     3502793.67849   2688929.60647  21566260.249    21566266.276
  22083896.531   -12877708.83249 -10019093.00847  22083896.367    22083902.344
  23884047.981    -3887875.26849  -3015506.13845  23884047.348    23884053.927
 03  4 22 22 38  0.0000000  0  8G21G15G14G23G18G17G 3G31
  21249313.710     2563985.43849   1996086.16847  21249313.317    21249317.156
  20238056.638    -7115307.76349  -5537661.82648  20238056.115    20238061.243
  22400685.857   -14259867.50849 -11086260.79746  22400685.459    22400692.070
  20954176.544    -1247142.03549   -967803.11247  20954176.116    20954181.223
  20620017.675    -1492458.71749  -1153922.43948  20620017.359    20620021.229
  21575294.559     3550267.44649   2725922.12047  21575294.125    21575300.229
  22075110.796   -12923877.68049 -10055068.69247  22075110.669    22075116.658
  23867641.490    -3974091.17549  -3082687.26545  23867640.966    23867647.688
 03  4 22 22 38 30.0000000  0  8G21G15G14G23G18G17G 3G31
  21258002.369     2609645.62049   2031665.51347  21258002.032    21258006.024
  20236515.771    -7123405.06749  -5543971.39748  20236515.232    20236520.384
  22381853.893   -14358828.89549 -11163373.39346  22381853.536    22381860.053
  20959243.107    -1220516.79849   -947056.16747  20959242.738    20959247.799
  20625685.241    -1462675.22449  -1130714.51148  20625684.945    20625688.825
  21584384.763     3598036.68149   2763144.87647  21584384.362    21584390.441
  22066421.769   -12969537.85049 -10090648.01247  22066421.784    22066427.754
  23851299.983    -4059965.36049  -3149602.15745  23851299.629    23851306.371
 03  4 22 22 39  0.0000000  0  8G21G15G14G23G18G17G 3G31
  21266750.628     2655617.92649   2067488.08047  21266750.295    21266754.270
  20235037.237    -7131174.67249  -5550025.62448  20235036.736    20235041.846
  22363075.343   -14457509.21049 -11240266.95946  22363075.026    22363081.563
  20964350.743    -1193676.64549   -926141.75947  20964350.312    20964355.291
  20631404.122    -1432622.33249  -1107296.67448  20631403.836    20631407.721
  21593531.098     3646100.90549   2800597.49047  21593530.699    21593536.795
  22057829.988   -13014688.40049 -10125830.23647  22057829.932    22057835.763
  23835024.069    -4145495.89949  -3216249.26845  23835023.677    23835030.444
 03  4 22 22 39 30.0000000  0  8G21G15G14G23G18G17G 3G31
  21275558.220     2701902.12649   2103553.68347  21275557.897    21275561.780
  20233621.298    -7138615.56049  -5555823.70148  20233620.766    20233625.880
  22344350.687   -14555906.20749 -11316939.76146  22344350.508    22344357.132
  20969498.875    -1166623.31049   -905061.22747  20969498.408    20969503.350
  20637173.907    -1402301.70049  -1083670.18848  20637173.592    20637177.487
  21602733.797     3694460.31849   2838280.13647  21602733.349    21602739.374
  22049335.536   -13059328.07149 -10160614.35747  22049335.312    22049341.052
  23818814.094    -4230680.43849  -3282626.76145  23818813.479    23818820.246
 03  4 22 22 40  0.0000000  0  8G21G15G14G23G18G17G 3G31
  21284425.202     2748498.26349   2139862.33447  21284424.790    21284428.891
  20232267.993    -7145727.21549  -5561365.24148  20232267.463    20232272.621
  22325680.598   -14654017.43249 -11393389.88546  22325680.443    22325687.112
  20974687.073    -1139358.34449   -883815.79047  20974686.697    20974691.687
  20642994.346    -1371715.06349  -1059836.43448  20642994.043    20642997.910
  21611992.366     3743115.18649   2876192.97247  21611991.979    21611998.003
  22040938.300   -13103455.57149 -10194999.39247  22040938.056    22040943.832
  23802670.358    -4315516.81549  -3348732.94345  23802669.505    23802676.284
 03  4 22 22 40 30.0000000  0  8G21G15G14G23G18G17G 3G31
  21293351.702     2795407.89549   2176415.28047  21293351.380    21293355.584
  20230977.800    -7152506.81549  -5566648.03448  20230977.276    20230982.423
  22307065.652   -14751838.78249 -11469614.13946  22307065.420    22307072.207
  20979915.738    -1111881.41549   -862405.19447  20979915.337    20979920.357
  20648865.493    -1340861.99649  -1035795.07448  20648865.198    20648869.060
  21621307.688     3792067.09849   2914337.29447  21621307.240    21621313.206
  22032638.962   -13147067.83849 -10228982.93847  22032638.832    22032644.735
  23786593.432    -4400000.77549  -3414564.50645  23786592.695    23786599.520
 03  4 22 22 41  0.0000000  0  8G21G15G14G23G18G17G 3G31
  21302337.954     2842630.76449   2213212.29347  21302337.658    21302341.865
  20229750.958    -7158953.76749  -5571671.62148  20229750.465    20229755.554
  22288506.231   -14849368.35049 -11545611.02246  22288505.899    22288512.744
  20985184.357    -1084194.60149   -840831.05047  20985183.989    20985188.967
  20654787.032    -1309744.21049  -1011547.44848  20654786.739    20654790.595
  21630679.464     3841315.75649   2952712.85447  21630679.022    21630685.025
  22024437.924   -13190164.02249 -10262564.36747  22024437.859    22024443.818
  23770583.948    -4484130.37249  -3480119.97745  23770583.298    23770590.108
 03  4 22 22 41 30.0000000  0  8G21G15G14G23G18G17G 3G31
  21311383.835     2890167.06549   2250253.54947  21311383.486    21311387.741
  20228587.682    -7165067.23649  -5576435.35748  20228587.101    20228592.241
  22270002.856   -14946603.42249 -11621378.43446  22270002.418    22270009.367
  20990492.623    -1056299.37249   -819094.50047  20990492.235    20990497.261
  20660758.515    -1278363.51649   -987094.95348  20660758.255    20660762.151
  21640107.860     3890862.01249   2991320.28347  21640107.415    21640113.529
  22016335.508   -13232742.79749 -10295742.61047  22016335.468    22016341.403
  23754642.380    -4567903.15449  -3545397.39145  23754641.793    23754648.573
 03  4 22 22 42  0.0000000  0  8G21G15G14G23G18G17G 3G31
  21320489.280     2938016.31649   2287538.66147  21320488.912    21320493.201
  20227487.812    -7170846.74349  -5580938.86548  20227487.302    20227492.426
  22251555.823   -15043542.28149 -11696915.04646  22251555.409    22251562.317
  20995840.200    -1028197.64749   -797197.04947  20995839.833    20995844.846
  20666779.756    -1246721.60549   -962438.91447  20666779.466    20666783.381
  21649592.612     3940704.95449   3030158.91547  21649592.139    21649598.220
  22008331.868   -13274803.37649 -10328517.05347  22008331.649    22008337.528
  23738769.255    -4651317.18449  -3610395.26145  23738768.593    23738775.409
 03  4 22 22 42 30.0000000  0  8G21G15G14G23G18G17G 3G31
  21329654.513     2986179.75049   2325068.59747  21329654.148    21329658.337
  20226452.003    -7176289.91549  -5585180.28748  20226451.469    20226456.609
  22233165.797   -15140181.24549 -11772217.96446  22233165.471    22233172.349
  21001227.004     -999889.88049   -775139.05447  21001226.613    21001231.635
  20672850.668    -1214818.74449   -937579.53847  20672850.384    20672854.309
  21659134.199     3990845.90649   3069229.73047  21659133.684    21659139.897
  22000426.979   -13316343.21049 -10360885.72747  22000426.812    22000432.775
  23722964.804    -4734368.92049  -3675110.82745  23722964.473    23722971.067
 03  4 22 22 43  0.0000000  0  8G21G15G14G23G18G17G 3G31
  21338879.400     3034657.03549   2362843.06947  21338879.061    21338883.279
  20225480.343    -7181396.08149  -5589159.10548  20225479.792    20225484.904
  22214833.338   -15236518.04649 -11847285.43146  22214833.081    22214839.905
  21006652.591     -971377.88749   -752921.90647  21006652.187    21006657.286
  20678970.801    -1182657.01349   -912518.44747  20678970.576    20678974.517
  21668732.316     4041285.20349   3108533.07547  21668731.879    21668738.065
  21992621.380   -13357361.46249 -10392847.97347  21992621.245    21992627.205
  23707229.790    -4817056.42049  -3739542.56545  23707229.527    23707235.982
 03  4 22 22 43 30.0000000  0  8G21G15G14G23G18G17G 3G31
  21348164.311     3083448.55449   2400862.42247  21348163.874    21348167.911
  20224573.018    -7186163.97249  -5592874.33748  20224572.450    20224577.600
  22196559.044   -15332550.21749 -11922115.52746  22196558.782    22196565.425
  21012116.838     -942662.78649   -730546.49847  21012116.454    21012121.595
  20685140.078    -1150237.41449   -887256.42347  20685139.826    20685143.715
  21678387.367     4092022.74749   3148068.77847  21678386.935    21678393.364
  21984915.381   -13397856.55549 -10424402.58147  21984915.230    21984921.198
  23691564.678    -4899376.91749  -3803688.34445  23691564.351    23691570.766
 03  4 22 22 44  0.0000000  0  8G21G15G14G23G18G17G 3G31
  21357508.642     3132554.01849   2439126.38847  21357508.325    21357512.362
  20223730.090    -7190593.16649  -5596325.65748  20223729.613    20223734.773
  22178343.103   -15428275.56449 -11996706.54946  22178342.863    22178349.220
  21017619.454     -913746.47649   -708014.29747  21017619.075    21017624.169
  20691358.054    -1117561.69949   -861794.82148  20691357.791    20691361.663
  21688099.089     4143058.36849   3187836.75947  21688098.682    21688105.055
  21977309.165   -13437827.41849 -10455548.68247  21977308.976    21977314.944
  23675969.646    -4981328.41549  -3867546.56945  23675969.478    23675975.660
 03  4 22 22 44 30.0000000  0  8G21G15G14G23G18G17G 3G31
  21366913.049     3181974.37249   2477635.72547  21366912.734    21366916.804
  20222952.193    -7194681.75149  -5599511.55048  20222951.632    20222956.700
  22160186.345   -15523690.61649 -12071055.77346  22160185.913    22160192.156
  21023160.290     -884629.30449   -685325.58747  21023159.889    21023164.993
  20697624.723    -1084630.30649   -836133.99648  20697624.463    20697628.330
  21697867.958     4194393.88849   3227838.42847  21697867.629    21697873.930
  21969803.236   -13477271.68449 -10486284.44947  21969803.082    21969808.896
  23660445.400    -5062907.47949  -3931114.57145  23660445.234    23660451.483
 03  4 22 22 45  0.0000000  0  8G21G15G14G23G18G17G 3G31
  21376377.211     3231708.18549   2516389.31547  21376376.852    21376380.804
  20222238.843    -7198430.00749  -5602432.26748  20222238.356    20222243.472
  22142088.471   -15618794.43649 -12145162.47946  22142088.132    22142094.407
  21028738.816     -855314.04849   -662482.52947  21028738.407    21028743.515
  20703939.595    -1051445.89549   -810276.01747  20703939.311    20703943.065
  21707693.574     4246027.31549   3268072.22247  21707693.166    21707699.433
  21962397.470   -13516189.76149 -10516610.20547  21962397.279    21962402.948
  23644992.641    -5144113.16849  -3994391.64445  23644992.252    23644998.400
 03  4 22 22 45 30.0000000  0  8G21G15G14G23G18G17G 3G31
  21385901.159     3281756.45049   2555387.94947  21385900.838    21385904.611
  20221590.729    -7201836.17749  -5605086.40648  20221590.184    20221595.363
  22124050.497   -15713583.96149 -12219024.26746  22124050.179    22124056.519
  21034354.777     -825801.59649   -639485.80447  21034354.399    21034359.549
  20710302.391    -1018009.09649   -784221.36547  20710302.066    20710305.810
  21717575.830     4297959.36549   3308538.73346  21717575.415    21717581.714
  21955092.111   -13554579.58049 -10546524.32947  21955091.976    21955097.563
  23629611.476    -5224942.43649  -4057375.40145  23629610.961    23629617.105
 03  4 22 22 46  0.0000000  0  8G21G15G14G23G18G17G 3G31
  21395485.031     3332118.99349   2594631.45047  21395484.594    21395488.310
  20221007.731    -7204899.21349  -5607473.17148  20221007.238    20221012.476
  22106072.901   -15808056.66349 -12292639.20746  22106072.585    22106078.849
  21040008.094     -796093.29349   -616336.46447  21040007.716    21040012.833
  20716712.923     -984321.46249   -757971.25547  20716712.628    20716716.428
  21727515.300     4350190.57749   3349238.32446  21727514.844    21727521.121
  21947887.511   -13592440.10549 -10576026.00947  21947887.344    21947892.968
  23614302.369    -5305392.74149  -4120063.89645  23614301.789    23614307.955
 03  4 22 22 46 30.0000000  0  8G21G15G14G23G18G17G 3G31
  21405128.590     3382796.03049   2634120.03547  21405128.198    21405131.855
  20220490.465    -7207617.73549  -5609591.48648  20220489.956    20220495.127
  22088156.238   -15902209.60649 -12366004.97846  22088155.898    22088162.064
  21045698.584     -766190.04349   -593035.22247  21045698.156    21045703.184
  20723171.017     -950384.05649   -731526.51647  20723170.697    20723174.531
  21737511.742     4402721.53249   3390171.50146  21737511.254    21737517.281
  21940783.939   -13629769.62549 -10605113.92447  21940783.751    21940789.429
  23599065.822    -5385461.30349  -4182454.90645  23599065.267    23599071.567
 03  4 22 22 47  0.0000000  0  8G21G15G14G23G18G17G 3G31
  21414832.296     3433788.78749   2673854.62047  21414831.850    21414835.542
  20220039.129    -7209989.75749  -5611439.80648  20220038.589    20220043.704
  22070300.942   -15996039.51349 -12439119.04346  22070300.579    22070306.639
  21051425.984     -736092.10049   -569582.26547  21051425.591    21051430.604
  20729676.564     -916197.15249   -704887.37547  20729676.234    20729680.074
  21747565.294     4455553.20449   3431339.00446  21747564.804    21747570.780
  21933781.745   -13666565.99949 -10633786.39747  21933781.619    21933787.296
  23583902.272    -5465144.84749  -4244545.90145  23583901.835    23583908.241
 03  4 22 22 47 30.0000000  0  8G21G15G14G23G18G17G 3G31
  21424596.055     3485097.29849   2713835.26447  21424595.551    21424599.314
  20219653.719    -7212014.53649  -5613017.54548  20219653.186    20219658.366
  22052507.492   -16089544.05749 -12511979.57546  22052507.147    22052513.130
  21057190.132     -705801.18649   -545978.95447  21057189.721    21057194.766
  20736229.306     -881762.20249   -678054.94747  20736229.007    20736232.820
  21757676.223     4508685.83349   3472741.00946  21757675.674    21757681.534
  21926881.382   -13702828.23249 -10662042.65447  21926881.106    21926886.750
  23568812.358    -5544440.99249  -4306335.02245  23568812.151    23568818.713
 03  4 22 22 48  0.0000000  0  8G21G15G14G23G18G17G 3G31
  21434419.575     3536721.00449   2754061.50047  21434419.131    21434423.063
  20219334.529    -7213691.74949  -5614324.45148  20219334.036    20219339.207
  22034776.257   -16182721.43849 -12584585.17146  22034775.853    22034781.819
  21062990.612     -675319.33349   -522226.84847  21062990.205    21062995.325
  20742828.869     -847081.21049   -651030.78747  20742828.559    20742832.335
  21767844.236     4562119.21849   3514377.35946  21767843.696    21767849.577
  21920082.521   -13738555.56649 -10689882.10947  21920082.283    21920088.053
  23553796.614    -5623348.12349  -4367821.02845  23553796.626    23553803.024
 03  4 22 22 48 30.0000000  0  8G21G15G14G23G18G17G 3G31
  21444303.135     3588660.78949   2794534.02547  21444302.818    21444306.928
  20219081.853    -7215019.32449  -5615358.91048  20219081.311    20219086.537
  22017107.778   -16275568.29449 -12656933.22446  22017107.464    22017113.432
  21068827.352     -644647.05149   -498326.36147  21068826.955    21068832.075
  20749475.147     -812154.72449   -623815.34747  20749474.857    20749478.558
  21778069.571     4615853.88949   3556248.50146  21778069.037    21778074.971
  21913385.909   -13773746.31349 -10717303.44447  21913385.729    21913391.423
  23538855.487    -5701862.86549  -4429001.29145  23538855.779    23538862.088
 03  4 22 22 49  0.0000000  0  8G21G15G14G23G18G17G 3G31
  21454247.088     3640915.87649   2835252.26047  21454246.664    21454250.816
  20218895.848    -7215996.85649  -5616120.61848  20218895.340    20218900.543
  21999502.579   -16368082.95249 -12729022.42146  21999502.352    21999508.253
  21074699.890     -613786.24349   -474278.97247  21074699.549    21074704.633
  20756167.683     -776984.94549   -596410.31147  20756167.394    20756171.196
  21788352.121     4669889.48349   3598354.11746  21788351.608    21788357.749
  21906791.658   -13808399.76849 -10744306.10947  21906791.424    21906797.040
  23523989.604    -5779983.57749  -4489874.50645  23523989.901    23523996.062
 03  4 22 22 49 30.0000000  0  8G21G15G14G23G18G17G 3G31
  21464250.593     3693485.57649   2876215.64347  21464250.289    21464254.479
  20218776.505    -7216624.23349  -5616609.47348  20218775.993    20218781.173
  21981961.118   -16460263.64849 -12800851.38646  21981960.835    21981966.710
  21080607.953     -582739.12749   -450086.40747  21080607.599    21080612.697
  20762906.231     -741573.73749   -568817.16047  20762905.949    20762909.748
  21798691.995     4724225.10749   3640693.51746  21798691.480    21798697.463
  21900299.711   -13842515.62049 -10770889.87847  21900299.448    21900305.000
  23509199.287    -5857708.58149  -4550439.38945  23509199.260    23509205.493
 03  4 22 22 50  0.0000000  0  8G21G15G14G23G18G17G 3G31
  21474314.282     3746370.40449   2917424.55847  21474313.962    21474318.261
  20218724.007    -7216900.11949  -5616824.44148  20218723.469    20218728.606
  21964483.761   -16552107.46549 -12872417.85946  21964483.415    21964489.248
  21086551.361     -551506.59749   -425749.35847  21086550.975    21086555.996
  20769690.621     -705922.05849   -541036.63247  20769690.322    20769694.000
  21809088.986     4778861.82649   3683267.54746  21809088.532    21809094.473
  21893910.277   -13876092.23549 -10797053.45547  21893910.022    21893915.497
  23494484.541    -5935034.98849  -4610693.67745  23494484.308    23494490.646
 03  4 22 22 50 30.0000000  0  8G21G15G14G23G18G17G 3G31
  21484438.156     3799571.37949   2958879.85947  21484437.853    21484441.967
  20218738.745    -7216822.66549  -5616764.07848  20218738.219    20218743.380
  21947070.982   -16643611.36049 -12943719.45746  21947070.660    21947076.507
  21092529.870     -520089.04749   -401268.14547  21092529.496    21092534.577
  20776520.540     -670030.25449   -513068.98547  20776520.254    20776523.988
  21819543.451     4833800.22449   3726076.64446  21819543.005    21819549.023
  21887623.749   -13909127.64949 -10822795.31747  21887623.534    21887629.058
  23479845.893    -6011959.71849  -4670634.98045  23479845.851    23479852.216
 03  4 22 22 51  0.0000000  0  8G21G15G14G23G18G17G 3G31
  21494621.861     3853087.80449   3000580.92547  21494621.613    21494625.789
  20218820.806    -7216391.42849  -5616428.04148  20218820.292    20218825.463
  21929723.265   -16734773.18349 -13014754.49846  21929722.859    21929728.822
  21098543.273     -488488.06849   -376644.00047  21098542.923    21098548.043
  20783395.916     -633899.79749   -484915.37847  20783395.625    20783399.459
  21830055.252     4889040.14449   3769120.70246  21830054.867    21830060.889
  21881440.209   -13941621.26149 -10848114.99147  21881440.134    21881445.735
  23465284.576    -6088480.70249  -4730261.68345  23465284.352    23465290.728
 03  4 22 22 51 30.0000000  0  8G21G15G14G23G18G17G 3G31
  21504865.881     3906919.59249   3042527.76447  21504865.591    21504869.537
  20218970.326    -7215605.53549  -5615815.65248  20218969.818    20218974.941
  21912441.102   -16825590.95649 -13085521.45346  21912440.683    21912446.642
  21104591.263     -456705.36649   -351878.26047  21104590.956    21104596.078
  20790316.384     -597532.59649   -456577.29747  20790316.103    20790319.899
  21840624.575     4944581.68749   3812399.77446  21840624.111    21840630.131
  21875360.078   -13973572.35349 -10873011.91847  21875359.934    21875365.675
  23450800.154    -6164595.94549  -4789572.18845  23450800.079    23450806.554
 03  4 22 22 52  0.0000000  0  8G21G15G14G23G18G17G 3G31
  21515169.835     3961066.55249   3084720.15247  21515169.458    21515173.541
  20219187.464    -7214464.29849  -5614926.36248  20219186.958    20219192.109
  21895224.914   -16916062.21549 -13156018.40046  21895224.571    21895230.395
  21110673.596     -424742.48949   -326972.11247  21110673.265    21110678.410
  20797281.526     -560930.30049   -428056.01747  20797281.252    20797285.026
  21851251.177     5000424.53349   3855913.64646  21851250.744    21851256.714
  21869383.257   -14004980.22749 -10897485.57247  21869383.141    21869389.005
  23436393.433    -6240303.25149  -4848564.83345  23436393.472    23436399.902
 03  4 22 22 52 30.0000000  0  8G21G15G14G23G18G17G 3G31
  21525533.703     4015528.87949   3127158.32547  21525533.333    21525537.376
  20219472.524    -7212966.08049  -5613758.91148  20219472.041    20219477.195
  21878075.137   -17006184.60849 -13226243.51046  21878074.794    21878080.444
  21116790.087     -392600.37349   -301926.29947  21116789.781    21116794.854
  20804291.312     -524093.56049   -399352.06747  20804291.059    20804294.810
  21861935.242     5056569.16949   3899662.68546  21861934.748    21861940.796
  21863510.274   -14035843.42949 -10921534.80047  21863510.137    21863515.975
  23422065.054    -6315599.98249  -4907237.54945  23422065.061    23422071.340
 03  4 22 22 53  0.0000000  0  8G21G15G14G23G18G17G 3G31
  21535957.746     4070306.82049   3169842.38747  21535957.337    21535961.540
  20219825.788    -7211109.71249  -5612312.38148  20219825.286    20219830.464
  21860992.361   -17095955.40849 -13296194.65947  21860992.010    21860997.408
  21122940.526     -360279.99649   -276741.59547  21122940.183    21122945.243
  20811345.482     -487023.61649   -370466.39847  20811345.245    20811348.937
  21872676.530     5113015.94649   3943647.14646  21872676.171    21872682.302
  21857741.152   -14066160.85749 -10945158.75847  21857740.991    21857746.743
  23407815.277    -6390483.53249  -4965588.33245  23407815.286    23407821.283
 03  4 22 22 53 30.0000000  0  8G21G15G14G23G18G17G 3G31
  21546441.711     4125399.94349   3212772.08247  21546441.319    21546445.461
  20220247.210    -7208894.71249  -5610586.39948  20220246.725    20220251.952
  21843976.888   -17185372.50449 -13365870.18547  21843976.520    21843981.788
  21129124.432     -327783.05349   -251419.29247  21129124.052    21129129.156
  20818443.829     -449721.87649   -341400.10447  20818443.561    20818447.228
  21883475.500     5169764.76149   3987866.97046  21883475.056    21883481.216
  21852075.917   -14095931.63749 -10968356.74447  21852075.803    21852081.473
  23393644.594    -6464951.93649  -5023615.60145  23393644.407    23393650.278
 03  4 22 22 54  0.0000000  0  8G21G15G14G23G18G17G 3G31
  21556985.546     4180809.07449   3255947.97647  21556985.209    21556989.616
  20220737.276    -7206319.42249  -5608579.67248  20220736.805    20220742.036
  21827029.231   -17274432.85749 -13435267.72747  21827028.823    21827034.072
  21135341.886     -295110.19149   -225959.91447  21135341.488    21135346.564
  20825586.068     -412189.19249   -312153.85347  20825585.797    20825589.462
  21894331.993     5226816.27949   4032322.65346  21894331.579    21894337.797
  21846514.952   -14125154.22349 -10991127.56547  21846514.873    21846520.480
  23379553.318    -6539002.13049  -5081316.99745  23379553.103    23379558.973
 03  4 22 22 54 30.0000000  0  8G21G15G14G23G18G17G 3G31
  21567589.912     4236534.05649   3299370.02447  21567589.469    21567593.849
  20221296.090    -7203382.88549  -5606291.44848  20221295.598    20221300.832
  21810149.749   -17363134.22249 -13504385.54347  21810149.358    21810154.654
  21141592.632     -262262.71049   -200364.48147  21141592.220    21141597.258
  20832772.142     -374426.74349   -282728.56447  20832771.792    20832775.421
  21905246.173     5284170.39649   4077014.12346  21905245.694    21905252.045
  21841058.614   -14153827.62949 -11013470.45847  21841058.440    21841064.067
  23365541.969    -6612631.84149  -5138690.73445  23365541.712    23365547.715
 03  4 22 22 55  0.0000000  0  8G21G15G14G23G18G17G 3G31
  21578253.953     4292574.92649   3343038.19647  21578253.626    21578258.141
  20221923.805    -7200084.22449  -5603721.05648  20221923.344    20221928.535
  21793338.970   -17451474.41449 -13573221.93647  21793338.666    21793343.998
  21147876.254     -229242.04149   -174634.09047  21147875.840    21147880.852
  20840001.335     -336436.12049   -253125.48347  20840001.047    20840004.751
  21916217.908     5341827.48449   4121941.69346  21916217.468    21916223.804
  21835706.789   -14181951.36149 -11035385.03647  21835706.625    21835712.209
  23351610.954    -6685839.02249  -5195735.22645  23351610.666    23351616.821
 03  4 22 22 55 30.0000000  0  8G21G15G14G23G18G17G 3G31
  21588978.250     4348931.70349   3386952.55247  21588977.882    21588982.357
  20222620.719    -7196422.23849  -5600867.55448  20222620.181    20222625.378
  21776597.413   -17539450.92149 -13641774.92747  21776597.126    21776602.570
  21154192.600     -196049.26949   -148769.59547  21154192.197    21154197.210
  20847273.921     -298218.26449   -223345.35147  20847273.633    20847277.379
  21927247.403     5399787.57849   4167105.35346  21927247.052    21927253.253
  21830459.962   -14209524.13549 -11056870.29947  21830459.677    21830465.262
  23337760.717    -6758621.16949  -5252448.52545  23337760.625    23337766.921
 03  4 22 22 56  0.0000000  0  8G21G15G14G23G18G17G 3G31
  21599762.482     4405603.66649   3431112.48847  21599762.195    21599766.801
  20223386.735    -7192396.38949  -5597730.51148  20223386.231    20223391.456
  21759925.451   -17627061.91049 -13710043.10447  21759925.138    21759930.598
  21160541.356     -162686.09549   -122772.31747  21160540.982    21160546.032
  20854589.557     -259774.80449   -193389.40147  20854589.268    20854592.950
  21938334.681     5458050.31349   4212504.83246  21938334.128    21938340.339
  21825317.811   -14236545.55449 -11077925.93847  21825317.617    21825323.284
  23323991.835    -6830976.41149  -5308829.17045  23323991.797    23323998.211
 03  4 22 22 56 30.0000000  0  8G21G15G14G23G18G17G 3G31
  21610606.926     4462590.70749   3475517.95047  21610606.549    21610611.126
  20224222.180    -7188006.05349  -5594309.46548  20224221.653    20224226.876
  21743323.556   -17714305.19649 -13778024.76647  21743323.181    21743328.613
  21166922.291     -129153.96849    -96643.38547  21166921.945    21166927.036
  20861947.672     -221107.31649   -163258.89847  20861947.414    20861951.202
  21949479.106     5516615.25449   4258139.82946  21949478.662    21949484.811
  21820280.842   -14263014.95249 -11098551.42547  21820280.704    21820286.327
  23310304.778    -6902902.71549  -5364875.59245  23310304.622    23310311.012
 03  4 22 22 57  0.0000000  0  8G21G15G14G23G18G17G 3G31
  21621511.236     4519893.54649   3520169.47847  21621510.909    21621515.566
  20225127.269    -7183249.55749  -5590603.10148  20225126.756    20225131.997
  21726792.058   -17801177.89949 -13845717.66347  21726791.765    21726797.122
  21173335.336      -95453.39549    -70383.19147  21173334.995    21173340.028
  20869348.319     -182216.38649   -132954.27247  20869348.101    20869351.858
  21960681.261     5575482.93249   4304010.67446  21960680.817    21960687.052
  21815349.231   -14288930.70249 -11118745.49447  21815349.108    21815354.775
  23296699.775    -6974397.12449  -5420585.46345  23296699.561    23296706.003
 03  4 22 22 57 30.0000000  0  8G21G15G14G23G18G17G 3G31
  21632475.592     4577510.95949   3565066.12747  21632475.209    21632479.699
  20226102.155    -7178126.79749  -5586611.33948  20226101.621    20226106.819
  21710331.542   -17887678.64349 -13913120.72847  21710331.181    21710336.431
  21179780.030      -61586.55849    -43993.45347  21179779.684    21179784.698
  20876791.073     -143104.07449   -102477.16147  20876790.859    20876794.655
  21971940.985     5634653.28849   4350117.39646  21971940.592    21971946.763
  21810522.965   -14314293.11849 -11138508.40747  21810522.789    21810528.514
  23283177.400    -7045458.39649  -5475957.82945  23283177.042    23283183.383
 03  4 22 22 58  0.0000000  0  8G21G15G14G23G18G17G 3G31
  21643499.927     4635443.59549   3610208.40747  21643499.487    21643503.852
  20227146.902    -7172636.39649  -5582333.09448  20227146.398    20227151.616
  21693942.237   -17973804.62549 -13980231.76347  21693941.887    21693947.102
  21186256.173      -27554.10949    -17474.65147  21186255.810    21186260.839
  20884275.875     -103771.15349    -71828.13247  20884275.677    20884279.431
  21983258.544     5694126.45949   4396460.08646  21983258.097    21983264.251
  21805802.150   -14339100.95149 -11157839.16747  21805801.988    21805807.712
  23269737.986    -7116083.77849  -5530990.54945  23269737.536    23269743.690
 03  4 22 22 58 30.0000000  0  8G21G15G14G23G18G17G 3G31
  21654584.130     4693691.21649   3655596.13147  21654583.684    21654587.926
  20228261.837    -7166777.48249  -5577767.70048  20228261.306    20228266.499
  21677624.695   -18059553.59049 -14047049.02847  21677624.303    21677629.542
  21192763.633        6642.68049      9172.20147  21192763.235    21192768.199
  20891802.479      -64219.06849    -41008.32747  20891802.266    20891805.962
  21994633.586     5753902.40049   4443038.69846  21994633.162    21994639.297
  21801187.085   -14363353.31949 -11176737.09947  21801186.863    21801192.577
  23256381.703    -7186271.05049  -5585681.87345  23256381.242    23256387.389
 03  4 22 22 59  0.0000000  0  8G21G15G14G23G18G17G 3G31
  21665728.102     4752254.22149   3701229.60747  21665727.709    21665732.011
  20229447.210    -7160548.49449  -5572913.93948  20229446.655    20229451.806
  21661379.493   -18144922.55849 -14113570.18847  21661379.020    21661384.358
  21199302.210       41003.31049     35946.72247  21199301.819    21199306.796
  20899370.683      -24448.34249    -10018.14347  20899370.417    20899374.106
  22006066.187     5813981.60649   4489853.62846  22006065.788    22006072.063
  21796677.749   -14387048.95149 -11195201.21547  21796677.664    21796683.391
  23243109.608    -7256017.27249  -5640029.53945  23243108.931    23243115.090
 03  4 22 22 59 30.0000000  0  8G21G15G14G23G18G17G 3G31
  21676932.396     4811133.03649   3747109.16147  21676932.052    21676936.419
  20230703.261    -7153948.19649  -5567770.84748  20230702.676    20230707.761
  21645206.967   -18229908.89549 -14179793.21247  21645206.545    21645211.949
  21205871.755       75526.87449     62848.19847  21205871.431    21205876.396
  20906980.275       15540.48149     21141.96947  20906980.029    20906983.750
  22017556.692     5874364.41849   4536905.14346  22017556.273    22017562.731
  21792274.708   -14410186.80249 -11213230.69747  21792274.642    21792280.349
  23229921.285    -7325319.94249  -5694031.56645  23229920.980    23229927.116
 03  4 22 23  0  0.0000000  0  8G21G15G14G23G18G17G 3G31
  21688196.795     4870327.63249   3793234.80847  21688196.444    21688200.562
  20232030.131    -7146975.49249  -5562337.56648  20232029.557    20232034.564
  21629107.715   -18314510.59449 -14245716.51547  21629107.341    21629112.665
  21212472.209      110212.10749     89875.65447  21212471.851    21212476.829
  20914631.136       55746.03749     52470.97447  20914630.883    20914634.607
  22029104.817     5935051.19049   4584193.48046  22029104.428    22029111.219
  21787978.105   -14432766.11849 -11230824.95547  21787977.947    21787983.661
  23216818.274    -7394176.72949  -5747686.16245  23216818.061    23216823.996
 03  4 22 23  0 30.0000000  0  8G21G15G14G23G18G17G 3G31
  21699521.027     4929836.25549   3839605.09547  21699520.625    21699524.879
  20233427.714    -7139631.19549  -5556614.74348  20233427.150    20233432.106
  21613081.669   -18398726.92249 -14311339.52547  21613081.445    21613086.751
  21219102.798      145056.22249    117026.91947  21219102.471    21219107.439
  20922322.687       96165.46749     83966.62747  20922322.437    20922326.205
  22040710.726     5996040.31849   4631717.41846  22040710.383    22040717.117
  21783787.432   -14454787.86049 -11247984.74447  21783787.348    21783793.094
  23203800.336    -7462587.16849  -5800992.94245  23203800.023    23203805.779
 03  4 22 23  1  0.0000000  0  8G21G15G14G23G18G17G 3G31
  21710904.861     4989658.53149   3886219.84147  21710904.513    21710908.555
  20234896.139    -7131914.65149  -5550601.85348  20234895.573    20234900.499
  21597129.515   -18482555.62849 -14376660.49547  21597129.279    21597134.523
  21225763.401      180057.85349    144300.91347  21225763.050    21225768.013
  20930054.813      136797.43849    115627.89747  20930054.465    20930058.222
  22052374.121     6057331.19149   4679476.49946  22052373.759    22052380.416
  21779703.193   -14476251.54949 -11264709.68347  21779703.015    21779708.704
  23190867.713    -7530549.30049  -5853950.39345  23190867.307    23190872.954
 03  4 22 23  1 30.0000000  0  8G21G15G14G23G18G17G 3G31
  21722348.544     5049795.79349   3933079.98747  21722348.201    21722352.350
  20236435.863    -7123823.29549  -5544296.89748  20236435.297    20236440.230
  21581251.774   -18565993.25549 -14441676.72347  21581251.451    21581256.741
  21232454.125      215217.48549    171698.03147  21232453.718    21232458.686
  20937827.268      177642.01549    147454.83047  20937826.924    20937830.682
  22064095.190     6118925.28149   4727471.84646  22064094.815    22064101.478
  21775725.389   -14497155.08449 -11280998.13947  21775725.229    21775730.896
  23178020.794    -7598059.43349  -5906555.62545  23178020.560    23178026.291
 03  4 22 23  2  0.0000000  0  8G21G15G14G23G18G17G 3G31
  21733852.158     5110247.32749   3980185.07947  21733851.847    21733855.867
  20238046.995    -7115356.75349  -5537699.59348  20238046.422    20238051.361
  21565448.759   -18649038.12449 -14506386.91347  21565448.401    21565453.721
  21239174.487      250533.28049    199216.83347  21239174.096    21239179.062
  20945639.865      218697.50249    179446.13347  20945639.546    20945643.224
  22075874.013     6180822.74449   4775703.59046  22075873.630    22075880.318
  21771854.330   -14517498.25149 -11296849.94747  21771854.079    21771859.691
  23165260.454    -7665115.88449  -5958807.35146  23165260.224    23165265.896
 03  4 22 23  2 30.0000000  0  8G21G15G14G23G18G17G 3G31
  21745415.541     5171012.79449   4027534.73547  21745415.202    21745419.318
  20239729.655    -7106514.33949  -5530809.39848  20239729.087    20239734.038
  21549720.810   -18731688.37349 -14570789.61447  21549720.499    21549725.761
  21245924.419      286003.82649    226856.20947  21245923.933    21245928.865
  20953492.417      259962.60149    211600.74647  20953492.049    20953495.716
  22087710.261     6243022.63649   4824170.98046  22087709.807    22087716.632
  21768089.871   -14537280.83849 -11312264.94147  21768089.645    21768095.216
  23152586.684    -7731716.93349  -6010704.21846  23152586.398    23152592.135
 03  4 22 23  3  0.0000000  0  8G21G15G14G23G18G17G 3G31
  21757038.727     5232092.89949   4075129.57147  21757038.326    21757042.563
  20241484.070    -7097294.41449  -5523625.04048  20241483.552    20241488.597
  21534068.654   -18813940.88949 -14634882.38747  21534068.345    21534073.468
  21252703.482      321628.85849    254615.96847  21252703.060    21252708.036
  20961384.679      301436.94949    243918.41747  20961384.336    20961388.076
  22099604.190     6305526.10349   4872874.94646  22099603.832    22099610.734
  21764432.337   -14556501.36549 -11327241.96347  21764432.067    21764437.669
  23140000.070    -7797859.50749  -6062243.83945  23139999.811    23140005.563
 03  4 22 23  3 30.0000000  0  8G21G15G14G23G18G17G 3G31
  21768721.747     5293486.90949   4122969.03247  21768721.378    21768725.540
  20243310.506    -7087696.55149  -5516146.18648  20243309.968    20243315.019
  21518492.451   -18895793.84549 -14698663.80647  21518492.228    21518497.245
  21259511.655      357406.57549    282494.70947  21259511.307    21259516.357
  20969316.435      343118.85949    276397.82647  20969316.125    20969319.888
  22111556.004     6368332.52649   4921814.95446  22111555.598    22111562.530
  21760881.694   -14575159.94449 -11341781.10747  21760881.415    21760886.963
  23127500.980    -7863541.98449  -6113424.94845  23127500.734    23127506.413
 03  4 22 23  4  0.0000000  0  8G21G15G14G23G18G17G 3G31
  21780464.348     5355194.95649   4171053.15947  21780463.968    21780468.209
  20245209.074    -7077719.40349  -5508371.78248  20245208.514    20245213.582
  21502992.868   -18977244.80949 -14762131.99947  21502992.578    21502997.543
  21266349.014      393336.40349    310491.96147  21266348.613    21266353.587
  20977287.635      385007.41549    309038.25847  20977287.296    20977290.971
  22123565.339     6431442.09849   4970991.21246  22123565.024    22123571.890
  21757438.019   -14593255.52949 -11355881.56247  21757437.869    21757443.396
  23115089.969    -7928761.77749  -6164245.51145  23115089.737    23115095.419
 03  4 22 23  4 30.0000000  0  8G21G15G14G23G18G17G 3G31
  21792266.770     5417216.44749   4219381.56447  21792266.348    21792270.565
  20247179.840    -7067362.76549  -5500301.67248  20247179.300    20247184.431
  21487569.881   -19058292.32149 -14825285.81047  21487569.705    21487574.691
  21273214.940      429416.62049    338606.42047  21273214.490    21273219.483
  20985297.708      427100.85149    341838.32547  20985297.401    20985301.117
  22135632.281     6494854.33949   5020403.29146  22135631.891    22135638.841
  21754101.655   -14610788.17649 -11369543.35747  21754101.569    21754107.042
  23102767.394    -7993517.52249  -6214704.49645  23102767.058    23102772.785
 03  4 22 23  5  0.0000000  0  8G21G15G14G23G18G17G 3G31
  21804128.649     5479551.88949   4267954.57346  21804128.246    21804132.594
  20249223.113    -7056625.13949  -5491934.68548  20249222.585    20249227.743
  21472224.340   -19138933.59149 -14888123.06847  21472224.059    21472229.064
  21280109.273      465646.70749    366837.65047  21280108.797    21280113.815
  20993346.867      469398.82849    374797.78047  20993346.518    20993350.105
  22147756.855     6558569.35349   5070051.28846  22147756.527    22147763.371
  21750872.579   -14627757.04149 -11382765.83447  21750872.504    21750877.988
  23090533.410    -8057806.49749  -6264799.76546  23090533.276    23090539.041
 03  4 22 23  5 30.0000000  0  8G21G15G14G23G18G17G 3G31
  21816050.449     5542200.78449   4316771.89946  21816050.082    21816054.153
  20251339.016    -7045505.74849  -5483270.21648  20251338.490    20251343.719
  21456956.484   -19219166.48849 -14950642.11947  21456956.168    21456961.093
  21287031.839      502025.24349    395184.55547  21287031.395    21287036.391
  21001434.533      511900.09349    407915.64147  21001434.190    21001437.826
  22159938.997     6622587.07949   5119935.19546  22159938.644    22159945.441
  21747750.943   -14644161.56049 -11395548.56447  21747750.815    21747756.388
  23078388.699    -8121626.78149  -6314529.80546  23078388.604    23078394.444
 03  4 22 23  6  0.0000000  0  8G21G15G14G23G18G17G 3G31
  21828031.595     5605162.06349   4365832.55647  21828031.159    21828035.402
  20253527.595    -7034004.55049  -5474308.23948  20253527.125    20253532.326
  21441766.619   -19298989.90449 -15012842.09047  21441766.264    21441771.121
  21293982.359      538550.52249    423645.80247  21293981.953    21293986.911
  21009560.453      554602.42649    441190.17547  21009560.134    21009563.827
  22172178.619     6686907.17949   5170054.70946  22172178.350    22172185.105
  21744736.724   -14660001.71649 -11407891.53847  21744736.552    21744742.161
  23066333.692    -8184976.82749  -6363893.42146  23066333.410    23066339.470
 03  4 22 23  6 30.0000000  0  8G21G15G14G23G18G17G 3G31
  21840072.391     5668436.18749   4415137.06746  21840071.993    21840075.926
  20255789.094    -7022120.59549  -5465048.01048  20255788.609    20255793.739
  21426655.118   -19378401.22149 -15074720.94847  21426654.826    21426659.503
  21300960.664      575221.70349    452220.74747  21300960.262    21300965.227
  21017724.701      597505.56549    474621.19547  21017724.412    21017727.971
  22184476.087     6751529.62849   5220409.80946  22184475.687    22184482.570
  21741829.855   -14675277.38149 -11419794.64947  21741829.685    21741835.302
  23054368.295    -8247854.56549  -6412889.02146  23054368.113    23054374.179
 03  4 22 23  7  0.0000000  0  8G21G15G14G23G18G17G 3G31
  21852172.516     5732022.91149   4464685.10546  21852171.987    21852176.209
  20258123.663    -7009852.81549  -5455488.69948  20258123.163    20258128.222
  21411622.493   -19457398.32549 -15136277.04747  21411622.143    21411626.709
  21307966.474      612037.75649    480908.58147  21307966.082    21307971.114
  21025926.961      640608.17649    508207.63147  21025926.614    21025930.155
  22196830.957     6816454.46349   5271000.54246  22196830.494    22196837.387
  21739030.549   -14689987.89949 -11431257.39247  21739030.323    21739035.941
  23042493.330    -8310257.92749  -6461514.96446  23042493.263    23042499.199
 03  4 22 23  7 30.0000000  0  8G21G15G14G23G18G17G 3G31
  21864331.920     5795921.56549   4514476.21346  21864331.538    21864335.727
  20260531.307    -6997200.68049  -5445629.88948  20260530.826    20260535.802
  21396668.598   -19535979.64949 -15197509.15647  21396668.435    21396673.070
  21314999.666      648997.18649    509708.12747  21314999.223    21315004.314
  21034166.690      683908.47849    541948.11647  21034166.350    21034169.923
  22209243.139     6881680.73849   5321826.15446  22209242.721    22209249.733
  21736338.631   -14704133.14949 -11442279.66747  21736338.536    21736344.157
  23030709.257    -8372185.20149  -6509769.95046  23030708.992    23030714.797
 03  4 22 23  8  0.0000000  0  8G21G15G14G23G18G17G 3G31
  21876550.996     5860131.96649   4564510.28546  21876550.440    21876554.592
  20263012.225    -6984163.09449  -5435470.73248  20263011.729    20263016.717
  21381794.594   -19614142.87949 -15258415.48247  21381794.382    21381799.048
  21322059.980      686099.26149    538618.84347  21322059.526    21322064.595
  21042443.867      727405.71049    575842.05047  21042443.549    21042447.219
  22221712.704     6947209.13549   5372887.16646  22221712.269    22221719.416
  21733754.541   -14717712.70649 -11452861.13547  21733754.435    21733760.101
  23019015.871    -8433634.08849  -6557652.15546  23019015.517    23019021.352
 03  4 22 23  8 30.0000000  0  8G21G15G14G23G18G17G 3G31
  21888828.983     5924654.88749   4614787.84846  21888828.669    21888832.840
  20265566.907    -6970738.24549  -5425009.81948  20265566.440    20265571.418
  21367000.776   -19691885.09549 -15318993.75547  21367000.493    21367005.110
  21329147.290      723343.67649    567640.45747  21329146.889    21329151.913
  21050758.535      771099.75749    609889.34247  21050758.223    21050761.947
  22234239.997     7013040.23549   5424184.09046  22234239.626    22234246.758
  21731278.441   -14730725.10749 -11463000.66747  21731278.269    21731283.881
  23007413.811    -8494601.83649  -6605159.45946  23007413.549    23007419.348
 03  4 22 23  9  0.0000000  0  8G21G15G14G23G18G17G 3G31
  21901166.929     5989489.82049   4665308.50947  21901166.448    21901170.904
  20268195.354    -6956926.01049  -5414247.03948  20268194.831    20268199.797
  21352287.294   -19769204.67049 -15379242.69447  21352286.969    21352291.667
  21336261.528      760729.06849    596771.93347  21336261.124    21336266.160
  21059110.398      814989.16749    644088.87547  21059110.121    21059113.787
  22246824.779     7079173.40649   5475716.37246  22246824.363    22246831.512
  21728910.054   -14743170.77249 -11472698.58347  21728909.919    21728915.486
  22995903.738    -8555086.70449  -6652290.48146  22995903.527    22995909.287
 03  4 22 23  9 30.0000000  0  8G21G15G14G23G18G17G 3G31
  21913563.602     6054635.59149   4716071.40646  21913563.256    21913567.629
  20270897.410    -6942726.36749  -5403182.38348  20270896.900    20270901.857
  21337654.426   -19846100.33449 -15439161.30947  21337654.080    21337658.867
  21343402.227      798253.55049    626011.78447  21343401.830    21343406.852
  21067499.145      859071.94449    678439.08247  21067498.824    21067502.501
  22259466.875     7145607.46449   5527483.10046  22259466.442    22259473.500
  21726649.492   -14755050.20049 -11481955.28447  21726649.344    21726654.864
  22984486.197    -8615087.73949  -6699044.47846  22984485.672    22984491.421
 03  4 22 23 10  0.0000000  0  8G21G15G14G23G18G17G 3G31
  21926019.563     6120091.63949   4767076.10146  21926019.163    21926023.469
  20273673.389    -6928138.52849  -5391815.23948  20273672.828    20273677.834
  21323102.528   -19922570.26449 -15498748.19247  21323102.234    21323107.054
  21350569.031      835915.64149    655358.86647  21350568.649    21350573.687
  21075924.240      903346.34249    712938.59447  21075923.892    21075927.617
  22272166.098     7212342.27849   5579484.19846  22272165.681    22272172.659
  21724496.572   -14766363.34449 -11490770.71747  21724496.494    21724502.070
  22973160.796    -8674603.20249  -6745420.10446  22973160.222    22973166.111
 03  4 22 23 10 30.0000000  0  8G21G15G14G23G18G17G 3G31
  21938534.608     6185858.29049   4818322.76746  21938534.189    21938538.694
  20276523.535    -6913161.10649  -5380144.52148  20276522.965    20276527.947
  21308632.220   -19998611.86349 -15558001.31847  21308632.011    21308636.763
  21357761.930      873715.20049    684813.06747  21357761.649    21357766.677
  21084385.842      947812.49349    747587.53747  21084385.563    21084389.284
  22284922.677     7279378.54849   5631720.18346  22284922.289    22284929.149
  21722451.763   -14777109.00649 -11499143.96347  21722451.680    21722457.178
  22961928.317    -8733630.32649  -6791415.21946  22961927.798    22961933.685
 03  4 22 23 11  0.0000000  0  8G21G15G14G23G18G17G 3G31
  21951108.679     6251935.69649   4869811.66346  21951108.324    21951112.545
  20279448.051    -6897792.93449  -5368169.33148  20279447.430    20279452.399
  21294243.944   -20074222.74149 -15616918.80047  21294243.682    21294248.423
  21364981.130      911651.61549    714373.89547  21364980.761    21364985.790
  21092883.871      992469.63649    782385.30347  21092883.580    21092887.228
  22297736.688     7346716.08749   5684190.94346  22297736.318    22297743.171
  21720515.049   -14787286.92049 -11507074.79947  21720514.821    21720520.346
  22950789.290    -8792167.01749  -6837028.18046  22950788.690    22950794.527
 03  4 22 23 11 30.0000000  0  8G21G15G14G23G18G17G 3G31
  21963741.963     6318322.86349   4921541.84146  21963741.469    21963745.830
  20282446.808    -6882034.13549  -5355889.74948  20282446.235    20282451.167
  21279937.768   -20149401.74049 -15675499.77547  21279937.556    21279942.234
  21372225.922      949723.04749    744039.95147  21372225.516    21372230.517
  21101417.828     1037315.68649    817330.26747  21101417.493    21101421.115
  22310607.830     7414354.13749   5736895.85146  22310607.368    22310614.306
  21718686.147   -14796897.51749 -11514563.58247  21718685.977    21718691.479
  22939743.658    -8850212.07949  -6882258.06146  22939743.047    22939748.849
 03  4 22 23 12  0.0000000  0  8G21G15G14G23G18G17G 3G31
  21976433.842     6385020.42949   4973513.91646  21976433.551    21976438.065
  20285520.292    -6865882.92149  -5343304.39248  20285519.727    20285524.638
  21265714.296   -20224146.01049 -15733741.99447  21265714.083    21265718.726
  21379496.248      987929.30149    773811.04847  21379495.913    21379500.915
  21109987.574     1082350.46949    852422.29247  21109987.320    21109991.004
  22323536.331     7482293.37849   5789835.48446  22323535.947    22323542.766
  21716965.396   -14805939.73849 -11521609.46447  21716965.318    21716970.753
  22928791.862    -8907762.67249  -6927102.64346  22928791.468    22928797.292
 03  4 22 23 12 30.0000000  0  8G21G15G14G23G18G17G 3G31
  21989185.111     6452027.49449   5025727.18946  21989184.655    21989189.160
  20288668.459    -6849339.15349  -5330413.14748  20288667.927    20288672.838
  21251573.871   -20298454.09249 -15791644.31547  21251573.612    21251578.272
  21386792.050     1026268.72849    803685.91247  21386791.682    21386796.645
  21118593.088     1127572.44349    887660.19147  21118592.773    21118596.519
  22336522.040     7550532.98049   5843009.13746  22336521.638    22336528.349
  21715352.793   -14814414.01349 -11528212.80247  21715352.714    21715358.175
  22917934.524    -8964817.54849  -6971560.95546  22917934.155    22917939.990
 03  4 22 23 13  0.0000000  0  8G21G15G14G23G18G17G 3G31
  22001994.902     6519343.90449   5078181.46746  22001994.615    22001999.222
  20291891.425    -6832402.18149  -5317215.51348  20291890.906    20291895.841
  21237516.905   -20372324.10949 -15849205.29647  21237516.643    21237521.277
  21394112.945     1064740.42149    833663.84847  21394112.624    21394117.592
  21127233.968     1172980.88449    923043.38647  21127233.700    21127237.453
  22349564.660     7619073.27849   5896417.08746  22349564.378    22349571.293
  21713848.264   -14822320.28449 -11534373.53147  21713848.236    21713853.771
  22907171.957    -9021374.70549  -7015631.42546  22907171.665    22907177.474
 03  4 22 23 13 30.0000000  0  8G21G15G14G23G18G17G 3G31
  22014863.754     6586968.79349   5130876.14646  22014863.278    22014867.872
  20295189.304    -6815071.34349  -5303710.97548  20295188.803    20295193.747
  21223543.698   -20445754.41849 -15906423.65447  21223543.387    21223547.970
  21401458.840     1103343.01349    863743.77647  21401458.449    21401463.470
  21135910.125     1218574.19249    958570.62847  21135909.854    21135913.626
  22362664.465     7687912.81549   5950058.22846  22362664.190    22362671.194
  21712451.856   -14829658.76549 -11540091.83747  21712451.782    21712457.375
  22896504.460    -9077432.71849  -7059312.96346  22896504.240    22896509.927
 03  4 22 23 14  0.0000000  0  8G21G15G14G23G18G17G 3G31
  22027790.845     6654901.50749   5183810.68446  22027790.537    22027795.001
  20298562.161    -6797346.41049  -5289899.33648  20298561.708    20298566.622
  21209654.314   -20518743.63449 -15963298.29647  21209653.952    21209658.485
  21408829.274     1142075.09249    893924.61047  21408828.926    21408833.911
  21144621.142     1264350.78949    994240.69147  21144620.883    21144624.645
  22375821.158     7757051.57649   6003932.49846  22375820.772    22375827.954
  21711163.387   -14836429.78349 -11545367.95947  21711163.304    21711168.874
  22885932.334    -9132990.21549  -7102604.49346  22885931.999    22885937.734
 03  4 22 23 14 30.0000000  0  8G21G15G14G23G18G17G 3G31
  22040776.823     6723142.03249   5236985.08346  22040776.349    22040780.734
  20302010.359    -6779226.12849  -5275779.64548  20302009.871    20302014.820
  21195849.241   -20591289.50449 -16019827.47647  21195848.849    21195853.372
  21416224.390     1180936.23849    924206.01447  21416223.967    21416228.957
  21153366.912     1310310.18949   1030053.20147  21153366.689    21153370.396
  22389034.716     7826489.62049   6058039.98046  22389034.424    22389041.439
  21709983.010   -14842632.91649 -11550201.57447  21709982.901    21709988.488
  22875455.779    -9188044.99449  -7145504.29446  22875455.382    22875461.180
 03  4 22 23 15  0.0000000  0  8G21G15G14G23G18G17G 3G31
  22053821.112     6791690.61449   5290399.47746  22053820.727    22053825.238
  20305533.998    -6760709.15349  -5261350.83348  20305533.512    20305538.487
  21182128.854   -20663389.26649 -16076009.02547  21182128.558    21182133.154
  21423643.955     1219926.08749    954587.71247  21423643.510    21423648.500
  21162147.353     1356451.69949   1066007.61747  21162147.120    21162150.819
  22402305.680     7896227.48849   6112381.13146  22402305.277    22402312.216
  21708910.780   -14848267.54749 -11554592.18947  21708910.674    21708916.233
  22865075.170    -9242594.68949  -7188010.51746  22865074.878    22865080.672
 03  4 22 23 15 30.0000000  0  8G21G15G14G23G18G17G 3G31
  22066923.883     6860545.89049   5344052.92846  22066923.408    22066927.848
  20309133.082    -6741795.97749  -5246613.29347  20309132.560    20309137.570
  21168493.653   -20735042.52149 -16131842.65747  21168493.357    21168497.959
  21431087.406     1259042.59449    985068.08847  21431087.077    21431092.186
  21170962.126     1402773.42549   1102102.45847  21170961.848    21170965.487
  22415633.181     7966263.48449   6166954.55646  22415632.820    22415639.502
  21707946.439   -14853334.70349 -11558540.63147  21707946.382    21707951.944
  22854791.092    -9296638.56549  -7230122.59746  22854790.628    22854796.396
 03  4 22 23 16  0.0000000  0  8G21G15G14G23G18G17G 3G31
  22080084.935     6929708.53149   5397945.82446  22080084.565    22080089.151
  20312807.896    -6722484.89649  -5231565.70048  20312807.356    20312812.428
  21154943.981   -20806246.19349 -16187325.97547  21154943.737    21154948.295
  21438555.195     1298285.77949   1015647.17547  21438554.807    21438559.900
  21179811.232     1449275.40849   1138337.76147  21179810.952    21179814.540
  22429017.553     8036598.34049   6221760.90446  22429017.185    22429023.826
  21707090.270   -14857833.32949 -11562046.07447  21707090.334    21707095.889
  22844603.606    -9350173.85049  -7271838.37846  22844603.220    22844608.927
 03  4 22 23 16 30.0000000  0  8G21G15G14G23G18G17G 3G31
  22093304.630     6999178.11949   5452077.91746  22093304.165    22093308.818
  20316558.470    -6702775.48549  -5216207.72148  20316557.969    20316563.027
  21141480.305   -20876998.61749 -16242457.66947  21141479.988    21141484.542
  21446046.786     1337654.65649   1046324.21047  21446046.431    21446051.524
  21188694.345     1495956.31549   1174712.47747  21188693.992    21188697.675
  22442458.776     8107231.98049   6276800.00746  22442458.339    22442465.034
  21706342.505   -14861763.60849 -11565108.63447  21706342.462    21706348.021
  22834513.194    -9403198.88649  -7313156.54646  22834512.905    22834518.508
 03  4 22 23 17  0.0000000  0  8G21G15G14G23G18G17G 3G31
  22106582.306     7068953.56949   5506448.33646  22106582.011    22106586.684
  20320385.005    -6682667.19049  -5200538.91348  20320384.460    20320389.460
  21128102.551   -20947298.61349 -16297236.82447  21128102.319    21128106.810
  21453562.090     1377147.79549   1077098.07647  21453561.788    21453566.844
  21197611.274     1542814.90849   1211225.65147  21197610.929    21197614.695
  22455956.667     8178163.66049   6332071.39446  22455956.245    22455962.939
  21705702.689   -14865126.01549 -11567728.68947  21705702.605    21705708.229
  22824520.325    -9455712.46549  -7354076.18246  22824519.924    22824525.476
 03  4 22 23 17 30.0000000  0  8G21G15G14G23G18G17G 3G31
  22119918.748     7139034.97149   5561057.16846  22119918.399    22119922.821
  20324287.531    -6662159.08249  -5184558.57047  20324286.979    20324292.015
  21114811.473   -21017143.77049 -16351661.56147  21114811.201    21114815.675
  21461100.983     1416764.49349   1107968.21947  21461100.629    21461105.699
  21206561.915     1589850.32149   1247876.61647  21206561.503    21206565.266
  22469511.115     8249393.23649   6387574.88846  22469510.642    22469517.477
  21705171.025   -14867920.50149 -11569906.21447  21705170.873    21705176.427
  22814624.842    -9507712.52649  -7394595.67846  22814624.614    22814630.247
 03  4 22 23 18  0.0000000  0  8G21G15G14G23G18G17G 3G31
  22133312.852     7209421.45549   5615903.71346  22133312.507    22133316.877
  20328266.127    -6641251.11549  -5168266.64848  20328265.655    20328270.726
  21101607.099   -21086533.00849 -16405731.03447  21101606.802    21101611.207
  21468662.977     1456503.27849   1138933.50647  21468662.634    21468667.754
  21215545.657     1637061.11449   1284664.22647  21215545.334    21215549.124
  22483122.110     8320919.85549   6443309.88346  22483121.698    22483128.619
  21704747.284   -14870147.62049 -11571641.63647  21704747.076    21704752.566
  22804827.353    -9559198.05749  -7434714.25446  22804827.157    22804832.914
 03  4 22 23 18 30.0000000  0  8G21G15G14G23G18G17G 3G31
  22146764.999     7280112.86149   5670987.88446  22146764.654    22146769.194
  20332321.183    -6619941.96749  -5151662.11948  20332320.657    20332325.744
  21088489.838   -21155464.08849 -16459443.49547  21088489.543    21088493.924
  21476248.176     1496363.76949   1169993.61647  21476247.853    21476252.947
  21224562.939     1684447.01349   1321588.28747  21224562.641    21224566.351
  22496789.752     8392743.88049   6499276.57746  22496789.357    22496796.395
  21704431.381   -14871807.10049 -11572934.74347  21704431.265    21704436.740
  22795128.214    -9610166.73249  -7474430.08346  22795128.051    22795133.849
 03  4 22 23 19  0.0000000  0  8G21G15G14G23G18G17G 3G31
  22160275.130     7351109.15949   5726309.61146  22160274.801    22160279.499
  20336452.722    -6598230.90649  -5134744.41248  20336452.207    20336457.310
  21075460.112   -21223934.90349 -16512797.31547  21075459.893    21075464.267
  21483856.379     1536345.24749   1201148.00847  21483856.066    21483861.152
  21233613.422     1732007.05849   1358648.05647  21233613.085    21233616.764
  22510513.951     8464865.22749   6555474.95846  22510513.636    22510520.669
  21704223.488   -14872899.09849 -11573785.66247  21704223.419    21704228.942
  22785527.782    -9660616.83549  -7513741.81646  22785527.617    22785533.536
 03  4 22 23 19 30.0000000  0  8G21G15G14G23G18G17G 3G31
  22173843.152     7422409.63549   5781868.40846  22173842.908    22173847.525
  20340660.762    -6576117.60349  -5117513.27448  20340660.194    20340665.346
  21062518.287   -21291944.26649 -16565791.56047  21062518.052    21062522.497
  21491487.456     1576446.57749   1232395.77547  21491487.113    21491492.186
  21242696.618     1779739.98649   1395842.52847  21242696.327    21242700.094
  22524294.740     8537283.31849   6611904.55246  22524294.465    22524301.517
  21704123.663   -14873423.80649 -11574194.53947  21704123.628    21704129.110
  22776026.339    -9710546.84049  -7552648.28746  22776026.265    22776032.058
 03  4 22 23 20  0.0000000  0  8G21G15G14G23G18G17G 3G31
  22187468.864     7494012.65249   5837662.86046  22187468.585    22187473.313
  20344945.155    -6553602.65349  -5099969.16948  20344944.638    20344949.813
  21049664.433   -21359491.59649 -16618425.78347  21049664.101    21049668.629
  21499140.966     1616665.77849   1263735.39747  21499140.585    21499145.625
  21251812.381     1827643.53149   1433169.94247  21251812.057    21251815.839
  22538131.682     8609996.40949   6668564.01046  22538131.376    22538138.481
  21704131.689   -14873382.59949 -11574162.43847  21704131.522    21704136.944
  22766624.035    -9759956.38249  -7591149.19246  22766623.975    22766629.764
 03  4 22 23 20 30.0000000  0  8G21G15G14G23G18G17G 3G31
  22201152.034     7565918.31249   5893693.18046  22201151.713    22201156.351
  20349306.285    -6530685.17549  -5082111.39848  20349305.699    20349310.831
  21036898.738   -21426574.81549 -16670698.35947  21036898.509    21036903.090
  21506816.711     1657002.27049   1295166.42947  21506816.401    21506821.385
  21260960.400     1875717.00249   1470629.78547  21260960.104    21260963.965
  22552024.790     8683004.57349   6725453.44146  22552024.478    22552031.515
  21704247.343   -14872775.17449 -11573689.12647  21704247.132    21704252.530
  22757321.068    -9808843.52849  -7629243.07146  22757321.034    22757326.769
 03  4 22 23 21  0.0000000  0  8G21G15G14G23G18G17G 3G31
  22214892.692     7638125.85249   5949958.77346  22214892.449    22214896.675
  20353744.032    -6507364.32149  -5063939.31348  20353743.517    20353748.620
  21024221.953   -21493191.89849 -16722607.71747  21024221.714    21024226.213
  21514514.775     1697455.30549   1326688.26047  21514514.402    21514519.398
  21270140.681     1923959.93949   1508221.65347  21270140.418    21270144.369
  22565974.060     8756307.80549   6782572.74446  22565973.721    22565980.734
  21704470.496   -14871601.97349 -11572774.95847  21704470.328    21704475.837
  22748117.982    -9857206.61149  -7666928.57546  22748117.876    22748123.555
 03  4 22 23 21 30.0000000  0  8G21G15G14G23G18G17G 3G31
  22228690.942     7710634.91749   6006459.26646  22228690.479    22228695.063
  20358258.688    -6483639.28849  -5045452.29447  20358258.201    20358263.330
  21011634.208   -21559341.42249 -16774152.74547  21011633.928    21011638.294
  21522234.703     1738023.98449   1358300.20747  21522234.357    21522239.396
  21279353.145     1972371.34149   1545944.80447  21279352.781    21279356.691
  22579979.403     8829905.55349   6839921.55046  22579978.966    22579985.976
  21704801.351   -14869863.52149 -11571420.32947  21704801.139    21704806.671
  22739014.917    -9905044.10449  -7704204.53246  22739014.697    22739020.293
 03  4 22 23 22  0.0000000  0  8G21G15G14G23G18G17G 3G31
  22242546.133     7783445.95349   6063195.07146  22242545.795    22242550.704
  20362850.530    -6459509.08649  -5026649.54747  20362850.072    20362855.103
  20999135.827   -21625021.05749 -16825331.62147  20999135.541    20999139.831
  21529976.670     1778708.03649   1390002.06147  21529976.278    21529981.311
  21288597.515     2020950.63649   1583798.79547  21288597.201    21288600.973
  22594040.853     8903798.16049   6897500.14546  22594040.421    22594047.327
  21705239.835   -14867559.43749 -11569624.94147  21705239.645    21705245.126
  22730012.143    -9952353.80349  -7741069.21346  22730011.930    22730017.551
 03  4 22 23 22 30.0000000  0  8G21G15G14G23G18G17G 3G31
  22256459.244     7856558.23549   6120165.65546  22256458.824    22256463.416
  20367519.613    -6434973.10149  -5007530.60447  20367519.070    20367524.111
  20986727.106   -21690229.17149 -16876143.08247  20986726.821    20986731.092
  21537740.351     1819506.58349   1421793.12547  21537739.963    21537745.012
  21297873.665     2069696.92049   1621782.90347  21297873.329    21297877.027
  22608158.118     8977984.89749   6955307.92846  22608157.728    22608164.707
  21705786.006   -14864689.70149 -11567388.79547  21705785.787    21705791.263
  22721109.951    -9999134.17349  -7777521.41646  22721109.853    22721115.564
 03  4 22 23 23  0.0000000  0  8G21G15G14G23G18G17G 3G31
  22270429.324     7929971.09749   6177370.40046  22270428.892    22270433.598
  20372265.852    -6410031.35249  -4988095.48647  20372265.354    20372270.420
  20974408.254   -21754964.74549 -16926586.33147  20974407.950    20974412.276
  21545525.557     1860418.16349   1453672.26247  21545525.183    21545530.283
  21307181.170     2118608.71349   1659895.96447  21307180.876    21307184.661
  22622331.368     9052464.93849   7013344.23946  22622330.916    22622337.938
  21706439.451   -14861255.49249 -11564712.79847  21706439.225    21706444.768
  22712308.930   -10045384.37049  -7813560.51446  22712308.715    22712314.463
 03  4 22 23 23 30.0000000  0  8G21G15G14G23G18G17G 3G31
  22284456.401     8003682.92149   6234808.13546  22284455.823    22284460.670
  20377089.357    -6384683.53249  -4968343.95247  20377088.875    20377093.943
  20962179.513   -21819226.28849 -16976660.20647  20962179.236    20962183.619
  21553332.129     1901441.74149   1485638.68247  21553331.759    21553336.766
  21316519.919     2167684.72749   1698136.99647  21316519.720    21316523.499
  22636560.187     9127237.96149   7071608.86246  22636559.766    22636566.846
  21707200.026   -14857257.37449 -11561597.38747  21707199.928    21707205.609
  22703609.049   -10091103.21549  -7849185.56646  22703608.699    22703614.438
 03  4 22 23 24  0.0000000  0  8G21G15G14G23G18G17G 3G31
  22298540.045     8077694.52149   6292479.42946  22298539.642    22298544.653
  20381990.438    -6358928.44549  -4948275.05647  20381989.972    20381994.939
  20950041.369   -21883011.99449 -17026363.30047  20950041.119    20950045.515
  21561159.905     1942577.21749   1517692.28747  21561159.550    21561164.620
  21325890.143     2216924.86449   1736505.92147  21325889.884    21325893.678
  22650844.773     9202303.97449   7130101.78046  22650844.357    22650851.443
  21708068.230   -14852694.96249 -11558042.27147  21708068.117    21708073.772
  22695010.651   -10136288.50349  -7884394.84946  22695010.251    22695015.918
 03  4 22 23 24 30.0000000  0  8G21G15G14G23G18G17G 3G31
  22312681.079     8152005.42049   6350383.98246  22312680.712    22312685.452
  20386969.147    -6332765.20449  -4927888.12447  20386968.665    20386973.697
  20937994.255   -21946319.76549 -17075693.98147  20937994.008    20937998.324
  21569008.829     1983823.88149   1549832.53847  21569008.546    21569013.586
  21335291.284     2266328.48149   1775002.22547  21335291.055    21335294.914
  22665184.950     9277662.48449   7188822.62246  22665184.649    22665191.745
  21709043.756   -14847568.64549 -11554047.74747  21709043.681    21709049.263
  22686513.948   -10180938.55549  -7919187.07346  22686513.553    22686519.262
 03  4 22 23 25  0.0000000  0  8G21G15G14G23G18G17G 3G31
  22326878.803     8226614.64949   6408520.99946  22326878.384    22326883.112
  20392025.505    -6306193.80649  -4907183.15447  20392025.065    20392030.146
  20926038.255   -22009148.60849 -17124651.46247  20926038.045    20926042.339
  21576878.854     2025180.37149   1582058.36647  21576878.488    21576883.440
  21344723.342     2315894.18749   1813624.84247  21344723.116    21344726.946
  22679580.839     9353312.87749   7247770.92546  22679580.503    22679587.541
  21710126.448   -14841879.54349 -11549614.69047  21710126.382    21710131.851
  22678119.239   -10225052.44149  -7953561.50346  22678118.925    22678124.621
 03  4 22 23 25 30.0000000  0  8G21G15G14G23G18G17G 3G31
  22341133.273     8301521.62849   6466890.00046  22341132.935    22341137.685
  20397159.730    -6279213.60649  -4886159.63047  20397159.250    20397164.323
  20914173.766   -22071497.08549 -17173234.64247  20914173.569    20914177.810
  21584769.404     2066645.82649   1614369.10647  21584769.056    21584774.111
  21354185.976     2365621.00949   1852372.98647  21354185.795    21354189.673
  22694032.152     9429254.72049   7306946.30846  22694031.779    22694038.915
  21711316.130   -14835627.91949 -11544743.31447  21711316.069    21711321.527
  22669826.969   -10268628.84749  -7987517.12346  22669826.596    22669832.248
 03  4 22 23 26  0.0000000  0  8G21G15G14G23G18G17G 3G31
  22355444.201     8376725.22249   6525490.12446  22355443.749    22355448.410
  20402371.660    -6251824.82849  -4864817.73647  20402371.162    20402376.265
  20902400.919   -22133364.18249 -17221442.71647  20902400.659    20902404.843
  21592680.367     2108218.84149   1646763.64747  21592680.069    21592685.193
  21363679.110     2415507.47649   1891245.54047  21363678.913    21363682.773
  22708538.693     9505487.17749   7366348.14146  22708538.406    22708545.696
  21712612.605   -14828814.91849 -11539434.49347  21712612.481    21712618.053
  22661637.025   -10311666.90149  -8021053.24346  22661636.705    22661642.289
 03  4 22 23 26 30.0000000  0  8G21G15G14G23G18G17G 3G31
  22369811.567     8452225.98249   6584321.83546  22369811.212    22369815.727
  20407661.672    -6224026.01149  -4843156.33647  20407661.150    20407666.256
  20890720.095   -22194747.36049 -17269273.72247  20890719.796    20890723.924
  21600612.080     2149899.73049   1679242.25647  21600611.767    21600616.805
  21373202.618     2465553.77249   1930242.63847  21373202.390    21373206.280
  22723100.830     9582010.55449   7425976.65346  22723100.415    22723107.707
  21714015.940   -14821440.20849 -11533687.98247  21714015.780    21714021.399
  22653549.888   -10354164.27049  -8054168.05746  22653549.744    22653555.328
 03  4 22 23 27  0.0000000  0  8G21G15G14G23G18G17G 3G31
  22384235.215     8528022.41649   6643383.92446  22384234.727    22384239.373
  20413029.574    -6195817.64049  -4821175.79948  20413029.044    20413034.189
  20879131.480   -22255645.91349 -17316727.08947  20879131.128    20879135.183
  21608564.020     2191687.07549   1711803.80447  21608563.683    21608568.725
  21382756.115     2515758.06649   1969362.84347  21382755.926    21382759.879
  22737717.744     9658823.40249   7485830.76546  22737717.365    22737724.675
  21715525.915   -14813504.90849 -11527504.63647  21715525.844    21715531.444
  22645565.928   -10396120.45449  -8086861.15846  22645565.761    22645571.246
 03  4 22 23 27 30.0000000  0  8G21G15G14G23G18G17G 3G31
  22398714.943     8604113.83549   6702675.86846  22398714.522    22398719.196
  20418475.550    -6167199.07449  -4798875.63447  20418474.984    20418480.107
  20867635.349   -22316058.59549 -17363801.86347  20867635.007    20867638.915
  21616536.050     2233580.02049   1744447.65547  21616535.674    21616540.696
  21392339.580     2566119.51749   2008605.50947  21392339.441    21392343.357
  22752389.935     9735925.45349   7545910.23046  22752389.479    22752396.736
  21717142.661   -14805009.53149 -11520884.87947  21717142.485    21717148.102
  22637685.386   -10437534.18149  -8119131.58446  22637684.997    22637690.393
 03  4 22 23 28  0.0000000  0  8G21G15G14G23G18G17G 3G31
  22413250.909     8680500.06749   6762197.53946  22413250.439    22413254.944
  20423999.626    -6138169.52949  -4776255.23047  20423999.100    20424004.308
  20856231.987   -22375983.62849 -17410496.65147  20856231.621    20856235.511
  21624527.844     2275578.01849   1777173.35947  21624527.501    21624532.636
  21401952.998     2616637.60249   2047970.23947  21401952.757    21401956.656
  22767116.701     9813316.28749   7606214.65246  22767116.313    22767123.784
  21718865.805   -14795954.72049 -11513829.19147  21718865.612    21718871.203
  22629908.048   -10478403.78449  -8150977.99846  22629907.681    22629913.153
 03  4 22 23 28 30.0000000  0  8G21G15G14G23G18G17G 3G31
  22427842.765     8757180.47549   6821948.45146  22427842.288    22427846.939
  20429601.994    -6108728.81749  -4753314.41747  20429601.511    20429606.626
  20844921.478   -22435420.02049 -17456810.67247  20844921.161    20844925.155
  21632539.535     2317680.00449   1809980.08847  21632539.264    21632544.409
  21411595.807     2667310.94949   2087455.95247  21411595.601    21411599.518
  22781898.521     9890995.34249   7666743.69246  22781898.131    22781905.742
  21720695.301   -14786341.15749 -11506338.11047  21720695.046    21720700.563
  22622234.528   -10518728.36449  -8182399.72246  22622234.153    22622239.736
 03  4 22 23 29  0.0000000  0  8G21G15G14G23G18G17G 3G31
  22442490.498     8834154.26849   6881927.97746  22442489.958    22442494.520
  20435282.697    -6078876.37949  -4730052.79847  20435282.209    20435287.326
  20833704.295   -22494366.14849 -17502742.67247  20833703.987    20833708.124
  21640571.033     2359885.26049   1842867.29847  21640570.705    21640575.767
  21421268.235     2718138.91149   2127062.14547  21421267.905    21421271.768
  22796735.204     9968962.08549   7727496.91245  22796734.808    22796742.330
  21722630.902   -14776169.52249 -11498412.18347  21722630.626    21722636.163
  22614664.898   -10558506.63749  -8213395.76946  22614664.564    22614670.242
 03  4 22 23 29 30.0000000  0  8G21G15G14G23G18G17G 3G31
  22457193.816     8911420.57949   6942135.42146  22457193.279    22457197.945
  20441041.801    -6048612.08649  -4706470.24947  20441041.302    20441046.439
  20822580.612   -22552820.84349 -17548291.74547  20822580.348    20822584.644
  21648621.839     2402192.86549   1875834.25147  21648621.521    21648626.594
  21430969.636     2769120.35949   2166787.93247  21430969.348    21430973.149
  22811626.382    10047215.67249   7788473.63245  22811626.040    22811633.697
  21724672.545   -14765440.87749 -11490052.22147  21724672.252    21724677.762
  22607199.669   -10597737.60449  -8243965.33846  22607199.122    22607204.894
 03  4 22 23 30  0.0000000  0  8G21G15G14G23G18G17G 3G31
  22471952.688     8988979.18249   7002570.61546  22471952.181    22471956.814
  20446879.363    -6017935.44549  -4682566.38447  20446878.850    20446883.982
  20811550.821   -22610782.69649 -17593456.78047  20811550.534    20811554.848
  21656692.133     2444602.20849   1908880.46647  21656691.794    21656696.859
  21440700.080     2820254.76049   2206632.91047  21440699.862    21440703.735
  22826572.253    10125755.87749   7849673.69245  22826571.853    22826579.434
  21726820.061   -14754155.58149 -11481258.49547  21726819.766    21726825.260
  22599838.578   -10636419.83749  -8274107.31046  22599838.088    22599843.846
 03  4 22 23 30 30.0000000  0  8G21G15G14G23G18G17G 3G31
  22486767.147     9066829.72949   7063233.32246  22486766.635    22486771.332
  20452795.531    -5986845.76649  -4658340.67147  20452795.015    20452800.083
  20800615.089   -22668250.00349 -17638236.44947  20800614.824    20800619.110
  21664781.692     2487112.85949   1942005.64347  21664781.274    21664786.404
  21450459.674     2871541.69749   2246596.74447  21450459.446    21450463.352
  22841572.559    10204582.39149   7911096.90645  22841572.108    22841579.639
  21729073.383   -14742313.92449 -11472031.24047  21729073.156    21729078.651
  22592582.259   -10674551.83449  -8303820.52646  22592581.821    22592587.487
 03  4 22 23 31  0.0000000  0  8G21G15G14G23G18G17G 3G31
  22501636.921     9144970.54449   7124122.20146  22501636.421    22501641.060
  20458790.379    -5955343.03849  -4633793.10647  20458789.834    20458794.868
  20789773.752   -22725221.92249 -17682630.10447  20789773.429    20789777.627
  21672890.211     2529723.63849   1975208.83447  21672889.850    21672894.960
  21460248.051     2922979.52149   2286678.16447  21460247.810    21460251.636
  22856627.196    10283694.03949   7972742.23845  22856626.737    22856634.212
  21731432.497   -14729917.46349 -11462371.66547  21731432.163    21731437.607
  22585430.755   -10712133.08249  -8333104.59446  22585430.332    22585435.992
 03  4 22 23 31 30.0000000  0  8G21G15G14G23G18G17G 3G31
  22516561.847     9223401.60249   7185237.23446  22516561.349    22516566.029
  20464863.937    -5923426.03649  -4608922.72347  20464863.440    20464868.461
  20779027.067   -22781696.35349 -17726636.10547  20779026.709    20779030.831
  21681017.992     2572434.84749   2008490.29047  21681017.564    21681022.602
  21470065.202     2974568.45949   2326877.32347  21470064.903    21470068.739
  22871736.248    10363091.71149   8034610.45245  22871735.826    22871743.213
  21733897.001   -14716965.86449 -11452279.52247  21733896.746    21733902.238
  22578384.340   -10749161.27049  -8361957.67946  22578384.080    22578389.703
 03  4 22 23 32  0.0000000  0  8G21G15G14G23G18G17G 3G31
  22531541.808     9302121.90949   7246577.65646  22531541.319    22531546.166
  20471016.209    -5891095.53449  -4583730.13647  20471015.751    20471020.857
  20768375.020   -22837673.14049 -17770254.34047  20768374.663    20768378.713
  21689164.406     2615244.59949   2041848.52547  21689164.024    21689169.032
  21479910.644     3026306.61249   2367192.76347  21479910.347    21479914.214
  22886899.205    10442773.15549   8096699.82045  22886898.789    22886906.182
  21736466.818   -14703461.02849 -11441756.29147  21736466.667    21736472.232
  22571443.258   -10785636.53849  -8390379.95746  22571443.025    22571448.696
 03  4 22 23 32 30.0000000  0  8G21G15G14G23G18G17G 3G31
  22546576.787     9381131.22549   7308143.28146  22546576.300    22546581.229
  20477247.600    -5858350.09049  -4558214.21147  20477247.067    20477252.086
  20757818.102   -22893149.92149 -17813482.95547  20757817.742    20757821.825
  21697329.641     2658153.04149   2075283.66547  21697329.242    21697334.222
  21489784.367     3078194.12149   2407624.58247  21489784.102    21489788.085
  22902116.173    10522738.64149   8159010.50245  22902115.736    22902123.116
  21739141.920   -14689402.64649 -11430801.73247  21739141.855    21739147.494
  22564607.752   -10821556.76249  -8418369.71246  22564607.588    22564613.315
 03  4 22 23 33  0.0000000  0  8G21G15G14G23G18G17G 3G31
  22561666.652     9460429.04149   7369933.70346  22561666.193    22561671.311
  20483557.912    -5825189.57849  -4532374.86047  20483557.309    20483562.335
  20747356.484   -22948125.44449 -17856320.98347  20747356.204    20747360.342
  21705513.381     2701159.31549   2108795.02647  21705513.016    21705518.099
  21499686.393     3130229.95049   2448171.97047  21499686.177    21499690.167
  22917387.063    10602987.71749   8221542.14545  22917386.753    22917394.202
  21741922.251   -14674792.17449 -11419416.95847  21741922.141    21741927.752
  22557878.184   -10856921.21649  -8445926.40746  22557877.956    22557883.698
 03  4 22 23 33 30.0000000  0  8G21G15G14G23G18G17G 3G31
  22576811.198     9540014.40049   7431948.19646  22576810.759    22576816.054
  20489946.780    -5791615.17349  -4506213.00047  20489946.275    20489951.371
  20736990.183   -23002600.11649 -17898768.73447  20736989.931    20736994.132
  21713715.493     2744261.52849   2142381.15947  21713715.138    21713720.197
  21509616.418     3182412.01149   2488833.30547  21509616.173    21509620.107
  22932711.649    10683518.39149   8284293.24546  22932711.334    22932718.759
  21744807.180   -14659631.60149 -11407603.53647  21744807.103    21744812.736
  22551254.231   -10891730.06549  -8473050.16146  22551254.061    22551259.761
 03  4 22 23 34  0.0000000  0  8G21G15G14G23G18G17G 3G31
  22592010.214     9619886.03749   7494185.76346  22592009.827    22592015.163
  20496414.666    -5757626.12949  -4479728.03547  20496414.168    20496419.278
  20726719.598   -23056572.29249 -17940824.92847  20726719.391    20726723.530
  21721935.877     2787459.38149   2176041.80947  21721935.467    21721940.481
  21519574.148     3234740.09149   2529608.41947  21519573.859    21519577.818
  22948089.711    10764330.57849   8347263.69945  22948089.338    22948096.907
  21747796.744   -14643921.50449 -11395361.91447  21747796.654    21747802.239
  22544736.300   -10925981.85149  -8499739.84346  22544736.124    22544741.796
 03  4 22 23 34 30.0000000  0  8G21G15G14G23G18G17G 3G31
  22607263.543     9700043.19549   7556645.81046  22607263.247    22607268.717
  20502961.797    -5723221.22449  -4452919.02547  20502961.255    20502966.380
  20716545.025   -23110040.00849 -17982488.04147  20716544.834    20716548.906
  21730174.306     2830752.91649   2209777.01947  21730173.934    21730179.041
  21529559.509     3287213.77349   2570496.99047  21529559.306    21529563.269
  22963521.444    10845424.53549   8410453.69345  22963521.085    22963528.773
  21750890.818   -14627661.93949 -11382692.13747  21750890.742    21750896.318
  22538324.763   -10959674.77749  -8525994.04546  22538324.543    22538330.222
 03  4 22 23 35  0.0000000  0  8G21G15G14G23G18G17G 3G31
  22622571.326     9780485.38549   7619327.96746  22622570.980    22622576.473
  20509587.820    -5688401.02849  -4425786.41647  20509587.298    20509592.464
  20706466.487   -23163002.95149 -18023757.82547  20706466.302    20706470.350
  21738430.708     2874140.52949   2243585.54147  21738430.318    21738435.434
  21539572.470     3339831.55749   2611497.85347  21539572.164    21539576.033
  22979006.595    10926798.62149   8473861.98145  22979006.135    22979013.731
  21754089.058   -14610854.72849 -11369595.62447  21754089.018    21754094.663
  22532019.487   -10992808.78749  -8551812.74046  22532019.337    22532025.035
 03  4 22 23 35 30.0000000  0  8G21G15G14G23G18G17G 3G31
  22637933.101     9861211.22249   7682231.11946  22637932.715    22637938.136
  20516292.876    -5653165.27449  -4398329.99247  20516292.416    20516297.607
  20696484.148   -23215459.89549 -18064633.32247  20696483.973    20696488.032
  21746704.886     2917621.69249   2277466.95747  21746704.539    21746709.620
  21549612.611     3392592.95649   2652610.62347  21549612.323    21549616.173
  22994544.674    11008451.81249   8537487.76045  22994544.308    22994551.893
  21757391.559   -14593500.59449 -11356072.94047  21757391.481    21757397.096
  22525820.929   -11025382.85249  -8577195.10246  22525820.729    22525826.403
 03  4 22 23 36  0.0000000  0  8G21G15G14G23G18G17G 3G31
  22653348.648     9942219.97649   7745354.77746  22653348.243    22653353.583
  20523077.109    -5617513.52049  -4370549.41947  20523076.720    20523081.908
  20686598.305   -23267409.86649 -18105113.77647  20686598.156    20686602.220
  21754996.755     2961195.80249   2311420.81147  21754996.449    21755001.514
  21559680.010     3445497.07449   2693834.60947  21559679.705    21559683.534
  23010135.957    11090383.86049   8601330.81845  23010135.524    23010143.033
  21760797.944   -14575600.58349 -11342124.89547  21760797.793    21760803.374
  22519728.889   -11057396.06949  -8602140.43646  22519728.796    22519734.431
 03  4 22 23 36 30.0000000  0  8G21G15G14G23G18G17G 3G31
  22668817.904    10023511.49749   7808698.75246  22668817.454    22668822.811
  20529940.775    -5581445.16849  -4342444.21547  20529940.338    20529945.507
  20676809.375   -23318851.04749 -18145197.77547  20676809.203    20676813.215
  21763306.324     3004862.84249   2345447.05947  21763306.017    21763311.125
  21569774.302     3498543.52149   2735169.48447  21569774.006    21569777.934
  23025780.224    11172594.64049   8665391.08045  23025779.844    23025787.340
  21764307.997   -14557155.39349 -11327752.03947  21764307.823    21764313.416
  22513744.090   -11088846.89949  -8626647.56346  22513743.840    22513749.544
 03  4 22 23 37  0.0000000  0  8G21G15G14G23G18G17G 3G31
  22684341.192    10105085.27649   7872262.64046  22684340.738    22684345.767
  20536883.718    -5544959.86149  -4314014.11847  20536883.222    20536888.458
  20667117.470   -23369782.34849 -18184884.46347  20667117.253    20667121.238
  21771633.457     3048621.95049   2379545.05547  21771633.112    21771638.233
  21579895.581     3551731.58549   2776614.69647  21579895.329    21579899.397
  23041477.450    11255083.50549   8729668.02745  23041476.987    23041484.369
  21767921.494   -14538165.91649 -11312955.05847  21767921.352    21767927.044
  22507866.436   -11119734.56849  -8650715.86146  22507866.188    22507871.740
 03  4 22 23 37 30.0000000  0  8G21G15G14G23G18G17G 3G31
  22699917.696    10186940.21049   7936045.63046  22699917.364    22699922.248
  20543905.906    -5508057.80249  -4285259.27747  20543905.430    20543910.664
  20657522.693   -23420203.29049 -18224173.46647  20657522.495    20657526.433
  21779977.739     3092472.00949   2413713.92447  21779977.475    21779982.617
  21590043.688     3605060.06849   2818169.35447  21590043.424    21590047.539
  23057227.119    11337848.98749   8794160.52645  23057226.734    23057234.149
  21771638.296   -14518633.79849 -11297735.24547  21771638.178    21771643.944
  22502095.972   -11150058.74349  -8674345.06246  22502095.654    22502101.192
 03  4 22 23 38  0.0000000  0  8G21G15G14G23G18G17G 3G31
  22715547.728    10269076.45449   8000047.84646  22715547.443    22715552.436
  20551007.618    -5470737.81649  -4256178.78547  20551007.214    20551012.496
  20648025.430   -23470111.89649 -18263063.25147  20648025.180    20648029.030
  21788339.605     3136413.52049   2447954.04147  21788339.267    21788344.389
  21600218.517     3658529.42549   2859833.76847  21600218.270    21600222.346
  23073029.729    11420891.49549   8858868.92045  23073029.274    23073036.824
  21775458.441   -14498558.97049 -11282092.53947  21775458.324    21775464.071
  22496432.940   -11179817.47049  -8697533.67746  22496432.674    22496438.254
 03  4 22 23 38 30.0000000  0  8G21G15G14G23G18G17G 3G31
  22731230.995    10351492.26849   8064267.88246  22731230.687    22731235.826
  20558188.743    -5433000.72349  -4226773.27447  20558188.332    20558193.633
  20638625.567   -23519508.04049 -18301553.71347  20638625.377    20638629.226
  21796718.403     3180444.85149   2482264.15247  21796718.076    21796723.231
  21610419.893     3712138.02149   2901606.66747  21610419.608    21610423.680
  23088884.662    11504209.59449   8923792.01545  23088884.208    23088891.786
  21779381.499   -14477943.51749 -11266028.56547  21779381.308    21779387.069
  22490877.385   -11209010.87649  -8720281.78046  22490877.270    22490882.976
 03  4 22 23 39  0.0000000  0  8G21G15G14G23G18G17G 3G31
  22746967.280    10434186.93449   8128705.21346  22746967.022    22746972.242
  20565449.300    -5394846.33949  -4197042.59547  20565448.856    20565454.144
  20629323.520   -23568390.75149 -18339644.09947  20629323.307    20629327.153
  21805114.293     3224565.41249   2516643.79647  21805113.973    21805119.087
  21620647.620     3765884.98949   2943487.41047  21620647.347    21620651.385
  23104792.003    11587802.49549   8988929.24445  23104791.535    23104799.173
  21783407.207   -14456788.52949 -11249544.18247  21783406.981    21783412.708
  22485429.697   -11237638.22849  -8742588.78746  22485429.681    22485435.483
 03  4 22 23 39 30.0000000  0  8G21G15G14G23G18G17G 3G31
  22762756.550    10517159.17549   8193358.83746  22762756.272    22762761.469
  20572789.224    -5356274.64049  -4166986.73947  20572788.834    20572794.118
  20620119.321   -23616759.25549 -18377333.80147  20620119.049    20620122.949
  21813527.108     3268774.46049   2551092.40447  21813526.779    21813531.827
  21630901.454     3819769.16349   2985475.06247  21630901.169    21630905.198
  23120751.421    11671669.35249   9054279.95045  23120751.007    23120758.622
  21787535.324   -14435095.31849 -11232640.40247  21787535.133    21787540.746
  22480090.118   -11265698.94449  -8764454.27146  22480089.987    22480095.706
 03  4 22 23 40  0.0000000  0  8G21G15G14G23G18G17G 3G31
  22778598.228    10600408.27849   8258228.18446  22778598.005    22778603.322
  20580208.770    -5317285.33049  -4136605.47047  20580208.288    20580213.514
  20611013.125   -23664612.41049 -18414621.93948  20611012.833    20611016.818
  21821956.520     3313071.38449   2585609.47747  21821956.194    21821961.220
  21641181.213     3873789.90649   3027569.12447  21641180.982    21641185.017
  23136762.766    11755809.26549   9119843.42645  23136762.343    23136770.006
  21791765.616   -14412865.28649 -11215318.32947  21791765.335    21791770.977
  22474858.285   -11293192.22949  -8785877.60646  22474858.199    22474863.787
 03  4 22 23 40 30.0000000  0  8G21G15G14G23G18G17G 3G31
  22794492.766    10683933.89849   8323313.00946  22794492.472    22794497.714
  20587707.692    -5277878.13049  -4105898.57947  20587707.247    20587712.495
  20602005.222   -23711949.06849 -18451507.60948  20602004.939    20602008.957
  21830402.616     3357455.79549   2620194.72047  21830402.247    21830407.299
  21651487.117     3927947.03649   3069769.46747  21651486.867    21651490.860
  23152825.901    11840221.71649   9185619.23345  23152825.492    23152833.142
  21796097.846   -14390099.22049 -11197578.55447  21796097.586    21796103.241
  22469734.766   -11320117.09549  -8806858.00246  22469734.556    22469740.049
 03  4 22 23 41  0.0000000  0  8G21G15G14G23G18G17G 3G31
  22810439.634    10767734.62249   8388612.20546  22810439.361    22810444.583
  20595286.135    -5238053.28149  -4074866.24547  20595285.650    20595290.960
  20593095.669   -23758768.71749 -18487990.41847  20593095.377    20593099.400
  21838865.205     3401926.88749   2654847.51247  21838864.809    21838869.923
  21661818.749     3982239.29849   3112075.09547  21661818.405    21661822.415
  23168940.796    11924905.81649   9251606.75245  23168940.356    23168948.016
  21800531.891   -14366798.42349 -11179422.11547  21800531.606    21800537.241
  22464719.309   -11346473.23149  -8827395.24646  22464719.129    22464724.628
 03  4 22 23 41 30.0000000  0  8G21G15G14G23G18G17G 3G31
  22826438.801    10851810.16149   8454125.51446  22826438.475    22826443.725
  20602944.115    -5197810.04849  -4043507.90147  20602943.659    20602949.011
  20584284.683   -23805070.22949 -18524069.48847  20584284.436    20584288.433
  21847344.331     3446484.61649   2689567.81347  21847343.899    21847349.020
  21672175.921     4036666.38849   3154485.79647  21672175.595    21672179.530
  23185107.209    12009861.07849   9317805.56045  23185106.884    23185114.662
  21805067.372   -14342963.88349 -11160849.76747  21805067.166    21805072.841
  22459812.048   -11372259.55449  -8847488.47946  22459812.085    22459817.631
 03  4 22 23 42  0.0000000  0  8G21G15G14G23G18G17G 3G31
  22842489.929    10936159.49249   8519852.18346  22842489.583    22842495.035
  20610681.743    -5157148.79249  -4011823.82147  20610681.302    20610686.542
  20575572.526   -23850852.69749 -18559744.10348  20575572.298    20575576.265
  21855839.570     3491127.96149   2724354.81047  21855839.167    21855844.356
  21682558.538     4091227.40949   3197000.86247  21682558.208    21682562.136
  23201325.157    12095086.52449   9384214.89046  23201324.788    23201332.656
  21809704.093   -14318597.29049 -11141862.83947  21809703.976    21809709.686
  22455013.647   -11397475.59149  -8867137.33346  22455013.657    22455019.257
 03  4 22 23 42 30.0000000  0  8G21G15G14G23G18G17G 3G31
  22858593.039    11020781.47849   8585791.32546  22858592.665    22858597.909
  20618498.981    -5116069.33949  -3979813.88047  20618498.500    20618503.746
  20566959.347   -23896115.42549 -18595013.73148  20566959.120    20566962.997
  21864351.049     3535856.28749   2759208.03847  21864350.685    21864355.944
  21692966.451     4145921.60449   3239619.68847  21692966.172    21692970.147
  23217594.144    12180580.81749   9450833.75345  23217593.834    23217601.822
  21814441.929   -14293700.01549 -11122462.39147  21814441.806    21814447.515
  22450323.947   -11422120.94749  -8886341.50746  22450323.815    22450329.445
 03  4 22 23 43  0.0000000  0  8G21G15G14G23G18G17G 3G31
  22874747.801    11105675.67349   8651942.57846  22874747.531    22874752.780
  20626395.887    -5074571.27149  -3947477.73847  20626395.393    20626400.633
  20558445.350   -23940857.20249 -18629877.41648  20558445.015    20558448.885
  21872878.834     3580669.52349   2794127.43547  21872878.411    21872883.588
  21703399.633     4200748.61649   3282342.01147  21703399.419    21703403.425
  23233914.455    12266344.13749   9517662.21945  23233914.185    23233922.097
  21819280.444   -14268272.75149 -11102648.97347  21819280.426    21819286.140
  22445742.951   -11446194.49149  -8905100.09446  22445742.746    22445748.300
 03  4 22 23 43 30.0000000  0  8G21G15G14G23G18G17G 3G31
  22890954.245    11190840.57649   8718304.74546  22890953.903    22890959.191
  20634372.287    -5032655.14149  -3914815.85047  20634371.771    20634377.029
  20550030.291   -23985077.98549 -18664335.14248  20550030.040    20550033.896
  21881422.490     3625566.48049   2829112.05847  21881422.037    21881427.236
  21713857.899     4255707.07749   3325166.75747  21713857.699    21713861.640
  23250285.688    12352374.89849   9584699.07745  23250285.312    23250293.369
  21824219.766   -14242317.66949 -11082424.25947  21824219.607    21824225.257
  22441270.701   -11469696.42249  -8923413.29246  22441270.532    22441275.942
 03  4 22 23 44  0.0000000  0  8G21G15G14G23G18G17G 3G31
  22907212.003    11276275.19549   8784877.09246  22907211.627    22907216.766
  20642428.281    -4990321.13049  -3881828.32147  20642427.744    20642432.928
  20541714.603   -24028777.06049 -18698386.33348  20541714.327    20541718.228
  21889981.868     3670546.50349   2864161.41847  21889981.441    21889986.638
  21724341.236     4310796.67049   3368093.69347  21724340.962    21724344.803
  23266707.558    12438672.00649   9651943.48645  23266707.154    23266715.056
  21829259.065   -14215836.10949 -11061789.30647  21829258.878    21829264.546
  22436907.479   -11492626.25149  -8941280.68246  22436907.172    22436912.538
 03  4 22 23 44 30.0000000  0  8G21G15G14G23G18G17G 3G31
  22923521.035    11361978.50649   8851658.80346  22923520.567    22923525.601
  20650563.659    -4947569.19249  -3848515.13647  20650563.123    20650568.340
  20533498.382   -24071953.56049 -18732030.32748  20533498.085    20533501.985
  21898557.001     3715609.08049   2899275.09847  21898556.585    21898561.689
  21734849.155     4366016.14449   3411121.83447  21734848.878    21734852.774
  23283179.993    12525234.85649   9719394.95845  23283179.719    23283187.536
  21834398.149   -14188829.58749 -11040745.29047  21834398.021    21834403.744
  22432653.018   -11514983.55249  -8958701.94446  22432652.678    22432658.035
 03  4 22 23 45  0.0000000  0  8G21G15G14G23G18G17G 3G31
  22939881.036    11447949.82449   8918649.36946  22939880.571    22939885.437
  20658778.627    -4904398.69849  -3814875.80847  20658778.146    20658783.414
  20525381.867   -24114606.27349 -18765266.18448  20525381.584    20525385.435
  21907147.929     3760754.30249   2934453.18347  21907147.497    21907152.547
  21745381.814     4421365.82349   3454251.42747  21745381.566    21745385.445
  23299702.992    12612062.79449   9787053.01445  23299702.691    23299710.517
  21839637.091   -14161298.93549 -11019292.86247  21839636.944    21839642.691
  22428507.804   -11536766.98349  -8975676.04146  22428507.407    22428512.774
 03  4 22 23 45 30.0000000  0  8G21G15G14G23G18G17G 3G31
  22956291.870    11534188.48349   8985848.26346  22956291.371    22956296.223
  20667073.299    -4860809.45449  -3780910.18047  20667072.873    20667078.209
  20517365.133   -24156734.71849 -18798093.50148  20517364.794    20517368.636
  21915754.288     3805981.44649   2969695.09747  21915753.879    21915759.047
  21755939.207     4476844.67449   3497481.69047  21755938.887    21755942.711
  23316275.953    12699154.99749   9854916.96945  23316275.678    23316283.731
  21844975.332   -14133245.62949 -10997433.17447  21844975.278    21844981.058
  22424471.660   -11557976.43449  -8992202.88046  22424471.312    22424476.782
 03  4 22 23 46  0.0000000  0  8G21G15G14G23G18G17G 3G31
  22972753.191    11620693.54649   9053254.71846  22972752.664    22972757.905
  20675447.760    -4816801.72349  -3746618.46047  20675447.266    20675452.545
  20509448.213   -24198337.72749 -18830511.39948  20509447.945    20509451.802
  21924376.263     3851290.21249   3005000.62247  21924375.900    21924381.093
  21766521.035     4532452.24449   3540812.23747  21766520.721    21766524.608
  23332899.528    12786511.43249   9922986.83445  23332899.240    23332907.197
  21850413.066   -14104670.92449 -10975167.19247  21850412.944    21850418.638
  22420544.994   -11578611.28549  -9008281.98346  22420544.670    22420550.219
 03  4 22 23 46 30.0000000  0  8G21G15G14G23G18G17G 3G31
  22989264.844    11707464.07049   9120868.04946  22989264.453    22989269.905
  20683901.761    -4772375.63349  -3712000.74347  20683901.313    20683906.449
  20501631.476   -24239415.05049 -18862519.67448  20501631.196    20501635.015
  21933013.561     3896679.80249   3040369.12147  21933013.211    21933018.422
  21777127.072     4588187.73949   3584242.46747  21777126.838    21777130.683
  23349572.876    12874130.20849   9991261.08845  23349572.547    23349580.631
  21855949.655   -14075576.41149 -10952496.17847  21855949.481    21855955.211
  22416727.763   -11598671.47649  -9023913.29846  22416727.353    22416732.876
 03  4 22 23 47  0.0000000  0  8G21G15G14G23G18G17G 3G31
  23005827.048    11794499.11049   9188687.46546  23005826.657    23005832.235
  20692435.536    -4727531.10649  -3677056.96647  20692435.065    20692440.037
  20493914.916   -24279966.01649 -18894117.79448  20493914.608    20493918.346
  21941666.193     3942149.68949   3075800.18947  21941665.861    21941671.080
  21787757.446     4644050.44549   3627771.83347  21787757.170    21787761.148
  23366296.070    12962010.79549  10059739.36245  23366295.789    23366303.893
  21861584.840   -14045963.73149 -10929421.39347  21861584.670    21861590.386
  22413019.894   -11618156.37649  -9039096.32246  22413019.490    22413025.014
 03  4 22 23 47 30.0000000  0  8G21G15G14G23G18G17G 3G31
  23022439.531    11881798.05149   9256712.53246  23022439.167    23022444.619
  20701048.890    -4682267.89149  -3641786.94647  20701048.382    20701053.428
  20486298.647   -24319989.70249 -18925305.05448  20486298.341    20486302.063
  21950334.230     3987699.92149   3111293.85347  21950333.840    21950338.993
  21798411.926     4700040.26549   3671400.25947  21798411.654    21798415.579
  23383068.851    13050152.20649  10128420.88045  23383068.648    23383076.673
  21867318.311   -14015834.11249 -10905943.80247  21867318.141    21867323.930
  22409421.641   -11637065.29649  -9053830.54646  22409421.281    22409426.726
 03  4 22 23 48  0.0000000  0  8G21G15G14G23G18G17G 3G31
  23039101.769    11969358.90049   9324941.66846  23039101.481    23039106.888
  20709741.756    -4636586.71449  -3606191.25447  20709741.244    20709746.362
  20478782.597   -24359486.32449 -18956081.60748  20478782.324    20478786.084
  21959017.162     4033329.04149   3146848.99447  21959016.779    21959021.930
  21809090.130     4756155.38349   3715126.29647  21809089.931    21809093.883
  23399891.192    13138552.90549  10197304.45545  23399890.853    23399898.767
  21873149.787   -13985189.92249 -10882065.24647  21873149.584    21873155.400
  22405932.903   -11655398.93649  -9068116.48246  22405932.535    22405937.914
 03  4 22 23 48 30.0000000  0  8G21G15G14G23G18G17G 3G31
  23055813.896    12057181.18049   9393374.52946  23055813.562    23055819.079
  20718514.266    -4590487.31349  -3570269.64547  20718513.691    20718518.756
  20471367.172   -24398454.90849 -18986446.70648  20471366.828    20471370.552
  21967715.022     4079037.02949   3182465.59847  21967714.697    21967719.909
  21819792.327     4812395.96549   3758950.10247  21819792.191    21819796.163
  23416762.419    13227212.59849  10266389.83045  23416762.183    23416770.418
  21879078.865   -13954032.13249 -10857786.47547  21879078.699    21879084.547
  22402553.918   -11673156.34849  -9081953.41946  22402553.475    22402558.809
 03  4 22 23 49  0.0000000  0  8G21G15G14G23G18G17G 3G31
  23072575.520    12145263.89649   9462010.32846  23072575.129    23072580.787
  20727366.262    -4543969.65049  -3534022.13347  20727365.693    20727370.835
  20464052.271   -24436894.62249 -19016399.69948  20464051.932    20464055.654
  21976427.902     4124823.55049   3218143.38947  21976427.575    21976432.834
  21830518.394     4868761.07249   3802870.92847  21830518.146    21830522.218
  23433682.920    13316130.11049  10335676.10945  23433682.649    23433690.948
  21885105.424   -13922362.23749 -10833108.66247  21885105.247    21885111.122
  22399284.475   -11690337.18049  -9095341.08046  22399284.069    22399289.359
 03  4 22 23 49 30.0000000  0  8G21G15G14G23G18G17G 3G31
  23089386.550    12233605.97649   9530848.21246  23089386.140    23089391.938
  20736297.820    -4497033.92849  -3497448.86047  20736297.270    20736302.462
  20456838.199   -24474805.08549 -19045940.28948  20456837.856    20456841.500
  21985155.651     4170687.81449   3253881.76747  21985155.303    21985160.604
  21841267.938     4925250.23049   3846888.44247  21841267.694    21841271.752
  23450652.392    13405304.58049  10405162.58045  23450652.101    23450660.558
  21891229.065   -13890182.21649 -10808033.35947  21891228.967    21891234.693
  22396124.689   -11706941.41849  -9108279.43946  22396124.356    22396129.694
 03  4 22 23 50  0.0000000  0  8G21G15G14G23G18G17G 3G31
  23106246.948    12322206.75249   9599887.69946  23106246.468    23106252.229
  20745308.890    -4449680.13649  -3460549.82047  20745308.352    20745313.568
  20449724.902   -24512185.80749 -19075068.09648  20449724.550    20449728.139
  21993898.208     4216629.62249   3289680.56847  21993897.811    21993903.070
  21852040.992     4981863.06749   3891002.33647  21852040.786    21852044.734
  23467670.739    13494735.38349  10474848.82245  23467670.340    23467678.614
  21897449.768   -13857493.24849 -10782561.46547  21897449.521    21897455.246
  22393074.665   -11722968.53549  -9120768.11246  22393074.417    22393079.838
 03  4 22 23 50 30.0000000  0  8G21G15G14G23G18G17G 3G31
  23123156.175    12411063.98849   9669127.02046  23123155.622    23123161.411
  20754399.427    -4401909.32149  -3423325.82147  20754398.909    20754404.112
  20442712.272   -24549036.94149 -19103783.23848  20442711.965    20442715.565
  22002655.222     4262647.72449   3325538.80947  22002654.759    22002660.044
  21862837.321     5038597.95249   3935211.31447  21862837.063    21862841.082
  23484737.400    13584420.36349  10544733.10445  23484736.925    23484745.113
  21903766.508   -13824298.00249 -10756695.07347  21903766.308    21903772.117
  22390134.442   -11738419.40349  -9132807.76546  22390134.152    22390139.635
 03  4 22 23 51  0.0000000  0  8G21G15G14G23G18G17G 3G31
  23140113.968    12500178.19549   9738566.59446  23140113.612    23140119.354
  20763569.481    -4353720.07349  -3385775.78147  20763568.980    20763574.232
  20435800.878   -24585356.51849 -19132084.17048  20435800.530    20435804.164
  22011426.835     4308743.21049   3361457.35947  22011426.436    22011431.597
  21873657.011     5095455.77649   3979516.07347  21873656.753    21873660.936
  23501852.566    13674360.21549  10614816.00545  23501851.937    23501860.116
  21910179.528   -13790596.37449 -10730434.10647  21910179.508    21910185.366
  22387304.204   -11753292.16749  -9144396.92246  22387304.002    22387309.429
 03  4 22 23 51 30.0000000  0  8G21G15G14G23G18G17G 3G31
  23157120.389    12589547.12349   9808204.61445  23157119.960    23157125.492
  20772818.970    -4305114.09949  -3347901.01047  20772818.437    20772823.668
  20428990.378   -24621145.57049 -19159971.72248  20428990.084    20428993.688
  22020212.906     4354914.22449   3397434.75947  22020212.514    22020217.648
  21884499.828     5152434.60549   4023915.14747  21884499.546    21884503.613
  23519015.916    13764552.26849  10685095.43745  23519015.095    23519023.006
  21916688.570   -13756391.62949 -10703781.08847  21916688.502    21916694.340
  22384583.890   -11767588.03249  -9155536.55746  22384583.665    22384588.933
 03  4 22 23 52  0.0000000  0  8G21G15G14G23G18G17G 3G31
  23174175.305    12679170.57949   9878040.99345  23174174.872    23174180.313
  20782147.768    -4256090.65949  -3309700.94147  20782147.259    20782152.601
  20422281.109   -24656403.15549 -19187445.13348  20422280.779    20422284.390
  22029013.294     4401160.97149   3433471.16247  22029012.912    22029018.172
  21895365.661     5209534.54449   4068408.60247  21895365.344    21895369.269
  23536227.042    13854996.76049  10755571.52645  23536226.109    23536234.347
  21923293.005   -13721685.01049 -10676736.98947  21923292.980    21923298.839
  22381973.565   -11781306.32849  -9166226.13346  22381973.212    22381978.370
 03  4 22 23 52 30.0000000  0  8G21G15G14G23G18G17G 3G31
  23191278.496    12769047.83649   9948075.13645  23191277.972    23191283.234
  20791555.883    -4206650.32949  -3271176.03847  20791555.436    20791560.824
  20415672.893   -24691128.98449 -19214504.19748  20415672.594    20415676.245
  22037827.917     4447482.63749   3469565.95047  22037827.610    22037832.959
  21906254.324     5266754.59549   4112995.63147  21906254.026    21906257.893
  23553485.800    13945691.82649  10826242.94145  23553484.922    23553493.212
  21929992.559   -13686478.62149 -10649303.47047  21929992.612    21929998.470
  22379472.979   -11794447.19249  -9176465.77446  22379472.474    22379477.758
 03  4 22 23 53  0.0000000  0  8G21G15G14G23G18G17G 3G31
  23208429.665    12859177.56849  10018305.98545  23208429.159    23208434.357
  20801043.490    -4156792.90249  -3232326.11447  20801043.017    20801048.348
  20409166.125   -24725322.21849 -19241148.24748  20409165.809    20409169.482
  22046657.120     4493879.55149   3505719.37947  22046656.757    22046661.959
  21917165.882     5324095.03049   4157676.45847  21917165.592    21917169.500
  23570791.897    14036637.57149  10897109.64445  23570791.031    23570799.872
  21936787.179   -13650773.19349 -10621481.09147  21936787.208    21936793.033
  22377082.285   -11807009.92649  -9186254.93646  22377081.809    22377087.154
 03  4 22 23 53 30.0000000  0  8G21G15G14G23G18G17G 3G31
  23225628.660    12949558.29349  10088732.42745  23225628.062    23225633.518
  20810610.448    -4106518.59249  -3193151.34447  20810609.955    20810615.204
  20402760.813   -24758982.50249 -19267377.01348  20402760.473    20402764.135
  22055500.543     4540351.25549   3541931.08847  22055500.135    22055505.232
  21928100.099     5381554.99649   4202450.45147  21928099.842    21928103.791
  23588145.856    14127832.44349  10968170.40644  23588144.927    23588153.765
  21943676.450   -13614570.77449 -10593271.45047  21943676.339    21943682.134
  22374801.528   -11818994.76049  -9195593.76346  22374801.128    22374806.572
 03  4 22 23 54  0.0000000  0  8G21G15G14G23G18G17G 3G31
  23242874.938    13040188.56449  10159353.31245  23242874.443    23242880.006
  20820256.658    -4055827.70249  -3153651.97447  20820256.146    20820261.401
  20396456.902   -24792109.58449 -19293190.29448  20396456.557    20396460.259
  22064357.905     4586897.16549   3578200.60947  22064357.533    22064362.620
  21939056.784     5439133.67749   4247316.93747  21939056.607    21939060.644
  23605546.811    14219275.28948  11039424.55244  23605546.430    23605554.603
  21950660.014   -13577873.26449 -10564676.01547  21950659.714    21950665.527
  22372630.875   -11830401.56249  -9204482.18446  22372630.560    22372635.937
 03  4 22 23 54 30.0000000  0  8G21G15G14G23G18G17G 3G31
  23260168.726    13131067.69249  10230168.16445  23260168.261    23260173.937
  20829982.098    -4004720.43249  -3113828.15547  20829981.564    20829986.806
  20390254.488   -24824703.02649 -19318587.75748  20390254.211    20390257.942
  22073229.397     4633516.88749   3614527.64947  22073228.962    22073234.079
  21950036.367     5496830.85549   4292275.75547  21950036.086    21950040.112
  23622994.702    14310965.19849  11110871.12744  23622994.683    23623002.794
  21957737.259   -13540682.31549 -10535696.08647  21957736.885    21957742.801
  22370570.334   -11841230.25349  -9212920.12846  22370569.987    22370575.311
 03  4 22 23 55  0.0000000  0  8G21G15G14G23G18G17G 3G31
  23277509.454    13222194.29249  10301175.81145  23277508.976    23277514.856
  20839786.691    -3953197.14049  -3073680.16147  20839786.116    20839791.347
  20384153.662   -24856762.90849 -19343569.46148  20384153.414    20384157.074
  22082114.751     4680209.92649   3650911.80447  22082114.300    22082119.474
  21961038.228     5554645.61149   4337326.20247  21961037.959    21961041.931
  23640489.506    14402900.61548  11182509.04444  23640489.297    23640497.087
  21964907.888   -13503000.05649 -10506333.31947  21964907.571    21964913.485
  22368619.790   -11851481.25649  -9220907.93446  22368619.357    22368624.522
 03  4 22 23 55 30.0000000  0  8G21G15G14G23G18G17G 3G31
  23294897.331    13313567.92249  10372375.93345  23294896.879    23294902.952
  20849670.327    -3901257.59049  -3033207.81347  20849669.804    20849675.123
  20378154.698   -24888288.25949 -19368134.65048  20378154.407    20378157.943
  22091014.108     4726976.50049   3687353.28547  22091013.749    22091018.920
  21972062.406     5612578.21349   4382468.45747  21972062.147    21972066.244
  23658030.792    14495081.90548  11254338.48044  23658030.936    23658039.334
  21972171.891   -13464827.78249 -10476588.72847  21972171.512    21972177.403
  22366779.137   -11861153.79449  -9228444.98346  22366778.741    22366783.826
 03  4 22 23 56  0.0000000  0  8G21G15G14G23G18G17G 3G31
  23312331.772    13405186.44449  10443766.91245  23312331.249    23312337.445
  20859632.935    -3848903.11449  -2992412.14847  20859632.497    20859637.941
  20372257.217   -24919279.56649 -19392283.69348  20372256.920    20372260.453
  22099927.313     4773815.27649   3723851.03047  22099926.909    22099932.119
  21983108.857     5670626.90649   4427701.19047  21983108.521    21983112.548
  23675619.009    14587506.73148  11326357.71844  23675619.209    23675627.348
  21979528.596   -13426168.26349 -10446464.46047  21979528.179    21979534.091
  22365048.350   -11870248.96349  -9235532.12746  22365047.970    22365053.101
 03  4 22 23 56 30.0000000  0  8G21G15G14G23G18G17G 3G31
  23329812.823    13497049.33649  10515348.26045  23329812.427    23329818.472
  20869674.794    -3796133.40449  -2951292.92247  20869674.285    20869679.784
  20366461.496   -24949736.27949 -19416016.17848  20366461.202    20366464.770
  22108854.102     4820726.29549   3760405.04747  22108853.729    22108859.005
  21994177.347     5728791.70349   4473024.38947  21994176.969    21994180.843
  23693253.417    14680174.41748  11398566.13544  23693252.972    23693260.868
  21986977.758   -13387022.65249 -10415961.42647  21986977.392    21986983.189
  22363427.597   -11878766.48949  -9242169.17346  22363427.162    22363432.314
 03  4 22 23 57  0.0000000  0  8G21G15G14G23G18G17G 3G31
  23347340.257    13589155.17549  10587118.94345  23347339.762    23347345.656
  20879795.494    -3742948.93549  -2909850.49547  20879794.979    20879800.434
  20360767.424   -24979658.69949 -19439332.32348  20360767.144    20360770.777
  22117794.493     4867708.72849   3797014.72047  22117794.119    22117799.441
  22005267.592     5787071.50649   4518437.19047  22005267.290    22005271.268
  23710933.638    14773083.06748  11470962.42344  23710933.580    23710941.039
  21994518.978   -13347393.52649 -10385081.62347  21994518.542    21994524.413
  22361916.495   -11886706.89749  -9248356.50746  22361916.088    22361921.364
 03  4 22 23 57 30.0000000  0  8G21G15G14G23G18G17G 3G31
  23364913.710    13681503.40149  10659078.50945  23364913.188    23364918.978
  20889995.152    -3689349.74049  -2868084.91347  20889994.657    20890000.048
  20355175.244   -25009045.96949 -19462231.47148  20355174.946    20355178.543
  22126748.659     4914763.02249   3833680.40647  22126748.290    22126753.612
  22016379.771     5845466.44649   4563939.73447  22016379.487    22016383.392
  23728659.623    14866232.79148  11543546.53444  23728658.932    23728667.129
  22002151.863   -13307282.13949 -10353826.03447  22002151.488    22002157.450
  22360515.434   -11894069.64349  -9254093.71846  22360514.978    22360520.371
 03  4 22 23 58  0.0000000  0  8G21G15G14G23G18G17G 3G31
  23382532.984    13774093.29049  10731226.33945  23382532.569    23382538.346
  20900273.763    -3635335.77049  -2825996.13547  20900273.212    20900278.622
  20349684.918   -25037897.63749 -19484713.27148  20349684.617    20349688.183
  22135716.569     4961889.20149   3870402.09247  22135716.133    22135721.396
  22027513.893     5903976.74249   4609532.12647  22027513.540    22027517.572
  23746430.799    14959622.61148  11616317.67344  23746430.478    23746438.459
  22009876.273   -13266690.11249 -10322195.92147  22009875.970    22009881.912
  22359224.262   -11900854.62049  -9259380.72446  22359223.872    22359229.189
 03  4 22 23 58 30.0000000  0  8G21G15G14G23G18G17G 3G31
  23400197.752    13866922.80549  10803560.92445  23400197.431    23400203.412
  20910631.014    -3580907.89349  -2783584.82047  20910630.512    20910635.950
  20344296.445   -25066213.83549 -19506777.82148  20344296.207    20344299.750
  22144697.890     5009086.32449   3907179.05047  22144697.455    22144702.583
  22038669.676     5962601.27949   4655213.55947  22038669.397    22038673.542
  23764247.540    15053250.72158  11689274.51944                  23764247.132
  22017691.577   -13225619.98549 -10290193.26747  22017691.419    22017697.333
  22358043.016   -11907062.54849  -9264218.06646  22358042.539    22358047.838
 03  4 22 23 59  0.0000000  0  8G21G15G14G23G18G17G 3G31
  23417908.157    13959991.65049  10876081.98445  23417907.899    23417913.939
  20921067.074    -3526065.88949  -2740850.81347  20921066.577    20921071.989
  20339009.997   -25093994.28149 -19528424.89848  20339009.737    20339013.250
  22153692.809     5056354.54849   3944011.42047  22153692.388    22153697.468
  22049847.222     6021339.89649   4700983.90447  22049847.018    22049851.031
                  15147115.68058  11762415.90444
  22025597.707   -13184073.13249 -10257819.13247  22025597.566    22025603.396
  22356971.461   -11912693.14349  -9268605.54146  22356971.001    22356976.364
